[[{"header":{"parameterUnit":"m.s-1","parameterCategory":1,"la1":30.6,"la2":28.766,"lo1":-90.7593,"lo2":-88.6598,"dy":0.0162,"dx":0.0183,"nx":116,"ny":114,"refTime":"2024-04-11T12:00:00:Z","depth":0,"parameterNumber":2,"parameterNumberName":"U-component_of_WINDS"},"data":[0.0,0.0,0.0,0.0,0.0,0.0,0.0,0.0,0.0,0.0,0.0,0.0,0.0,0.0,0.0,0.0,0.0,0.0,0.0,0.0,0.0,0.0,0.0,0.0,0.0,0.0,0.0,0.0,0.0,0.0,0.0,0.0,0.0,0.0,0.0,0.0,0.0,0.0,0.0,0.0,0.0,0.0,0.0,0.0,0.0,0.0,0.0,0.0,0.0,0.0,0.0,0.0,0.0,0.0,0.0,0.0,0.0,0.0,0.0,0.0,0.0,0.0,0.0,0.0,0.0,0.0,0.0,0.0,0.0,0.0,0.0,0.0,0.0,0.0,0.0,0.0,0.0,0.0,0.0,0.0,0.0,0.0,0.0,0.0,0.0,0.0,0.0,0.0,0.0,0.0,0.0,0.0,0.0,0.0,0.0,0.0,0.0,0.0,0.0,0.0,0.0,0.0,0.0,0.0,0.0,0.0,0.0,0.0,0.0,0.0,0.0,0.0,0.0,0.0,0.0,0.0,0.0,0.0,0.0,0.0,0.0,0.0,0.0,0.0,0.0,0.0,0.0,0.0,0.0,0.0,0.0,0.0,0.0,0.0,0.0,0.0,0.0,0.0,0.0,0.0,0.0,0.0,0.0,0.0,0.0,0.0,0.0,0.0,0.0,0.0,0.0,0.0,0.0,0.0,0.0,0.0,0.0,0.0,0.0,0.0,0.0,0.0,0.0,0.0,0.0,0.0,0.0,0.0,0.0,0.0,0.0,0.0,0.0,0.0,0.0,0.0,0.0,0.0,0.0,0.0,0.0,0.0,0.0,0.0,0.0,0.0,0.0,0.0,0.0,0.0,0.0,0.0,0.0,0.0,0.0,0.0,0.0,0.0,0.0,0.0,0.0,0.0,0.0,0.0,0.0,0.0,0.0,0.0,0.0,0.0,0.0,0.0,0.0,0.0,0.0,0.0,0.0,0.0,0.0,0.0,0.0,0.0,0.0,0.0,0.0,0.0,0.0,0.0,0.0,0.0,0.0,0.0,0.0,0.0,0.0,0.0,0.0,0.0,0.0,0.0,0.0,0.0,0.0,0.0,0.0,0.0,0.0,0.0,0.0,0.0,0.0,0.0,0.0,0.0,0.0,0.0,0.0,0.0,0.0,0.0,0.0,0.0,0.0,0.0,0.0,0.0,0.0,0.0,0.0,0.0,0.0,0.0,0.0,0.0,0.0,0.0,0.0,0.0,0.0,0.0,0.0,0.0,0.0,0.0,0.0,0.0,0.0,0.0,0.0,0.0,0.0,0.0,0.0,0.0,0.0,0.0,0.0,0.0,0.0,0.0,0.0,0.0,0.0,0.0,0.0,0.0,0.0,0.0,0.0,0.0,0.0,0.0,0.0,0.0,0.0,0.0,0.0,0.0,0.0,0.0,0.0,0.0,0.0,0.0,0.0,0.0,0.0,0.0,0.0,0.0,0.0,0.0,0.0,0.0,0.0,0.0,0.0,0.0,0.0,0.0,0.0,0.0,0.0,0.0,0.0,0.0,0.0,0.0,0.0,0.0,0.0,0.0,0.0,0.0,0.0,0.0,0.0,0.0,0.0,0.0,0.0,0.0,0.0,0.0,0.0,0.0,0.0,0.0,0.0,0.0,0.0,0.0,0.0,0.0,0.0,0.0,0.0,0.0,0.0,0.0,0.0,0.0,0.0,0.0,0.0,0.0,0.0,0.0,0.0,0.0,0.0,0.0,0.0,0.0,0.0,0.0,0.0,0.0,0.0,0.0,0.0,0.0,0.0,0.0,0.0,0.0,0.0,0.0,0.0,0.0,0.0,0.0,0.0,0.0,0.0,0.0,0.0,0.0,0.0,0.0,0.0,0.0,0.0,0.0,0.0,0.0,0.0,0.0,0.0,0.0,0.0,0.0,0.0,0.0,0.0,0.0,0.0,0.0,0.0,0.0,0.0,0.0,0.0,0.0,0.0,0.0,0.0,0.0,0.0,0.0,0.0,0.0,0.0,0.0,0.0,0.0,0.0,0.0,0.0,0.0,0.0,0.0,0.0,0.0,0.0,0.0,0.0,0.0,0.0,0.0,0.0,0.0,0.0,0.0,0.0,0.0,0.0,0.0,0.0,0.0,0.0,0.0,0.0,0.0,0.0,0.0,0.0,0.0,0.0,0.0,0.0,0.0,0.0,0.0,0.0,0.0,0.0,0.0,0.0,0.0,0.0,0.0,0.0,0.0,0.0,0.0,0.0,0.0,0.0,0.0,0.0,0.0,0.0,0.0,0.0,0.0,0.0,0.0,0.0,0.0,0.0,0.0,0.0,0.0,0.0,0.0,0.0,0.0,0.0,0.0,0.0,0.0,0.0,0.0,0.0,0.0,0.0,0.0,0.0,0.0,0.0,0.0,0.0,0.0,0.0,0.0,0.0,0.0,0.0,0.0,0.0,0.0,0.0,0.0,0.0,0.0,0.0,0.0,0.0,0.0,0.0,0.0,0.0,0.0,0.0,0.0,0.0,0.0,0.0,0.0,0.0,0.0,0.0,0.0,0.0,0.0,0.0,0.0,0.0,0.0,0.0,0.0,0.0,0.0,0.0,0.0,0.0,0.0,0.0,0.0,0.0,0.0,0.0,0.0,0.0,0.0,0.0,0.0,0.0,0.0,0.0,0.0,0.0,0.0,0.0,0.0,0.0,0.0,0.0,0.0,0.0,0.0,0.0,0.0,0.0,0.0,0.0,0.0,0.0,0.0,0.0,0.0,0.0,0.0,0.0,0.0,0.0,0.0,0.0,0.0,0.0,0.0,0.0,0.0,0.0,0.0,0.0,0.0,0.0,0.0,0.0,0.0,0.0,0.0,0.0,0.0,0.0,0.0,0.0,0.0,0.0,0.0,0.0,0.0,0.0,0.0,0.0,0.0,0.0,0.0,0.0,0.0,0.0,0.0,0.0,0.0,0.0,0.0,0.0,0.0,0.0,0.0,0.0,0.0,0.0,0.0,0.0,0.0,0.0,0.0,0.0,0.0,0.0,0.0,0.0,0.0,0.0,0.0,0.0,0.0,0.0,0.0,0.0,0.0,0.0,0.0,0.0,0.0,0.0,0.0,0.0,0.0,0.0,0.0,0.0,0.0,0.0,0.0,0.0,0.0,0.0,0.0,0.0,0.0,0.0,0.0,0.0,0.0,0.0,0.0,0.0,0.0,0.0,0.0,0.0,0.0,0.0,0.0,0.0,0.0,0.0,0.0,0.0,0.0,0.0,0.0,0.0,0.0,0.0,0.0,0.0,0.0,0.0,0.0,0.0,0.0,0.0,0.0,0.0,0.0,0.0,0.0,0.0,0.0,0.0,0.0,0.0,0.0,0.0,0.0,0.0,0.0,0.0,0.0,0.0,0.0,0.0,0.0,0.0,0.0,0.0,0.0,0.0,0.0,0.0,0.0,0.0,0.0,0.0,0.0,0.0,0.0,0.0,0.0,0.0,0.0,0.0,0.0,0.0,0.0,0.0,0.0,0.0,0.0,0.0,0.0,0.0,0.0,0.0,0.0,0.0,0.0,0.0,0.0,0.0,0.0,0.0,0.0,0.0,0.0,0.0,0.0,0.0,0.0,0.0,0.0,0.0,0.0,0.0,0.0,0.0,0.0,0.0,0.0,0.0,0.0,0.0,0.0,0.0,0.0,0.0,0.0,0.0,0.0,0.0,0.0,0.0,0.0,0.0,0.0,0.0,0.0,0.0,0.0,0.0,0.0,0.0,0.0,0.0,0.0,0.0,0.0,0.0,0.0,0.0,0.0,0.0,0.0,0.0,0.0,0.0,0.0,0.0,0.0,0.0,0.0,0.0,0.0,0.0,0.0,0.0,0.0,0.0,0.0,0.0,0.0,0.0,0.0,0.0,0.0,0.0,0.0,0.0,0.0,0.0,0.0,0.0,0.0,0.0,0.0,0.0,0.0,0.0,0.0,0.0,0.0,0.0,0.0,0.0,0.0,0.0,0.0,0.0,0.0,0.0,0.0,0.0,0.0,0.0,0.0,0.0,0.0,0.0,0.0,0.0,0.0,0.0,0.0,0.0,0.0,0.0,0.0,0.0,0.0,0.0,0.0,0.0,0.0,0.0,0.0,0.0,0.0,0.0,0.0,0.0,0.0,0.0,0.0,0.0,0.0,0.0,0.0,0.0,0.0,0.0,0.0,0.0,0.0,0.0,0.0,0.0,0.0,0.0,0.0,0.0,0.0,0.0,0.0,0.0,0.0,0.0,0.0,0.0,0.0,0.0,0.0,0.0,0.0,0.0,0.0,0.0,0.0,0.0,0.0,0.0,0.0,0.0,0.0,0.0,0.0,0.0,0.0,0.0,0.0,0.0,0.0,0.0,0.0,0.0,0.0,0.0,0.0,0.0,0.0,0.0,0.0,0.0,0.0,0.0,0.0,0.0,0.0,0.0,0.0,0.0,0.0,0.0,0.0,0.0,0.0,0.0,0.0,0.0,0.0,0.0,0.0,0.0,0.0,0.0,0.0,0.0,0.0,0.0,0.0,0.0,0.0,0.0,0.0,0.0,0.0,0.0,0.0,0.0,0.0,0.0,0.0,0.0,0.0,0.0,0.0,0.0,0.0,0.0,0.0,0.0,0.0,0.0,0.0,0.0,0.0,0.0,0.0,0.0,0.0,0.0,0.0,0.0,0.0,0.0,0.0,0.0,0.0,0.0,0.0,0.0,0.0,0.0,0.0,0.0,0.0,0.0,0.0,0.0,0.0,0.0,0.0,0.0,0.0,0.0,0.0,0.0,0.0,0.0,0.0,0.0,0.0,0.0,0.0,0.0,0.0,0.0,0.0,0.0,0.0,0.0,0.0,0.0,0.0,0.0,0.0,0.0,0.0,0.0,0.0,0.0,0.0,0.0,0.0,0.0,0.0,0.0,0.0,0.0,0.0,0.0,0.0,0.0,0.0,0.0,0.0,0.0,0.0,0.0,0.0,0.0,0.0,0.0,0.0,0.0,0.0,0.0,0.0,0.0,0.0,0.0,0.0,0.0,0.0,0.0,0.0,0.0,0.0,0.0,0.0,0.0,0.0,0.0,0.0,0.0,0.0,0.0,0.0,0.0,0.0,0.0,0.0,0.0,0.0,0.0,0.0,0.0,0.0,0.0,0.0,0.0,0.0,0.0,0.0,0.0,0.0,0.0,0.0,0.0,0.0,0.0,0.0,0.0,0.0,0.0,0.0,0.0,0.0,0.0,0.0,0.0,0.0,0.0,0.0,0.0,0.0,0.0,0.0,0.0,0.0,0.0,0.0,0.0,0.0,0.0,0.0,0.0,0.0,0.0,0.0,0.0,0.0,0.0,0.0,0.0,0.0,0.0,0.0,0.0,0.0,0.0,0.0,0.0,0.0,0.0,0.0,0.0,0.0,0.0,0.0,0.0,0.0,0.0,0.0,0.0,0.0,0.0,0.0,0.0,0.0,0.0,0.0,0.0,0.0,0.0,0.0,0.0,0.0,0.0,0.0,0.0,0.0,0.0,0.0,0.0,0.0,0.0,0.0,0.0,0.0,0.0,0.0,0.0,0.0,0.0,0.0,0.0,0.0,0.0,0.0,0.0,0.0,0.0,0.0,0.0,0.0,0.0,0.0,0.0,0.0,0.0,0.0,0.0,0.0,0.0,0.0,0.0,0.0,0.0,0.0,0.0,0.0,0.0,0.0,0.0,0.0,0.0,0.0,0.0,0.0,0.0,0.0,0.0,0.0,0.0,0.0,0.0,0.0,0.0,0.0,0.0,0.0,0.0,0.0,0.0,0.0,0.0,0.0,0.0,0.0,0.0,0.0,0.0,0.0,0.0,0.0,0.0,0.0,0.0,0.0,0.0,0.0,0.0,0.0,0.0,0.0,0.0,0.0,0.0,0.0,0.0,0.0,0.0,0.0,0.0,0.0,0.0,0.0,0.0,0.0,0.0,0.0,0.0,0.0,0.0,0.0,0.0,0.0,0.0,0.0,0.0,0.0,0.0,0.0,0.0,0.0,0.0,0.0,0.0,0.0,0.0,0.0,0.0,0.0,0.0,0.0,0.0,0.0,0.0,0.0,0.0,0.0,0.0,0.0,0.0,0.0,-1.06,0.0,0.0,0.0,0.0,0.0,0.0,0.0,0.0,0.0,0.0,0.0,0.0,0.0,0.0,0.0,0.0,0.0,0.0,0.0,0.0,0.0,0.0,0.0,0.0,-0.4479,-0.4502,-0.4502,-0.4502,-0.4502,-0.4502,0.0,0.0,0.0,0.0,0.0,-0.4502,-0.4499,-0.4689,-0.5069,-0.6593,-0.9069,-1.2394,-1.1493,-1.0074,-0.8299,0.0,0.0,0.0,0.0,0.0,0.0,0.0,0.0,0.0,0.0,0.0,0.0,0.0,0.0,0.0,0.0,0.0,0.0,0.0,0.0,0.0,0.0,0.0,0.0,0.0,0.0,0.0,0.0,0.0,0.0,0.0,0.0,0.0,0.0,0.0,0.0,0.0,0.0,0.0,0.0,0.0,0.0,0.0,0.0,0.0,0.0,0.0,0.0,0.0,0.0,0.0,0.0,0.0,0.0,0.0,0.0,0.0,0.0,0.0,0.0,0.0,0.0,0.0,0.0,0.0,0.0,0.0,0.0,0.0,0.0,0.0,-1.1288,0.0,0.0,0.0,0.0,0.0,0.0,0.0,0.0,0.0,0.0,0.0,0.0,0.0,0.0,0.0,0.0,0.0,0.0,0.0,0.0,0.0,-0.4443,-0.4487,-0.4507,-0.4561,-0.4689,-0.4706,-0.4763,-0.4906,-0.478,0.0,0.0,0.0,-0.4717,-0.4717,-0.4849,-0.5515,-0.6721,-0.9905,-1.3459,-1.7339,-1.8031,-1.6557,-1.3168,-1.0626,0.0,0.0,0.0,0.0,0.0,0.0,0.0,0.0,0.0,0.0,0.0,0.0,0.0,0.0,0.0,0.0,0.0,0.0,0.0,0.0,0.0,0.0,0.0,0.0,0.0,0.0,0.0,0.0,0.0,0.0,0.0,0.0,0.0,0.0,0.0,0.0,0.0,0.0,0.0,0.0,0.0,0.0,0.0,0.0,0.0,0.0,0.0,0.0,0.0,0.0,0.0,0.0,0.0,0.0,0.0,0.0,0.0,0.0,0.0,0.0,0.0,0.0,0.0,0.0,-1.6526,-1.6526,-1.6526,-1.7671,-1.9469,-1.5926,-1.5223,-1.6305,0.0,0.0,0.0,0.0,0.0,0.0,0.0,0.0,0.0,0.0,0.0,0.0,0.0,0.0,0.0,0.0,0.0,0.0,0.0,0.0,-0.4491,-0.4504,-0.4507,-0.478,-0.5487,-0.5542,-0.5832,-0.6536,-0.5939,-0.5534,-0.5542,-0.5542,-0.5566,-0.563,-0.6254,-0.7978,-1.0817,-1.725,-2.1002,-2.2201,-2.3028,-2.306,-2.2193,-1.8293,0.0,0.0,0.0,0.0,0.0,0.0,0.0,0.0,0.0,0.0,0.0,0.0,0.0,0.0,0.0,0.0,0.0,0.0,0.0,0.0,0.0,0.0,0.0,0.0,0.0,0.0,0.0,0.0,0.0,0.0,0.0,0.0,0.0,0.0,0.0,0.0,0.0,0.0,0.0,0.0,0.0,0.0,0.0,-1.4806,-1.33,0.0,0.0,0.0,0.0,0.0,0.0,0.0,0.0,0.0,0.0,0.0,0.0,0.0,0.0,-2.1427,-2.1562,-2.1639,-2.1639,-2.1735,-2.1793,-2.1793,-2.1793,-2.1985,-2.2269,-2.1692,0.0,-1.7488,-1.6797,0.0,0.0,0.0,0.0,0.0,0.0,0.0,0.0,0.0,0.0,0.0,0.0,0.0,0.0,0.0,0.0,0.0,0.0,0.0,0.0,0.0,-0.639,-0.7691,-0.8913,-0.9851,-1.0126,-0.9585,-0.8827,-0.7801,-0.6484,-0.6461,-0.6508,-0.6529,-0.8658,-1.2603,-1.8403,-2.2771,-2.6229,-2.8744,-2.9461,-2.979,-2.9686,-2.7631,-2.3571,-1.8158,-1.6647,0.0,0.0,0.0,0.0,0.0,0.0,0.0,0.0,0.0,0.0,0.0,0.0,0.0,0.0,0.0,0.0,0.0,0.0,0.0,0.0,0.0,0.0,0.0,0.0,0.0,0.0,0.0,0.0,0.0,0.0,0.0,0.0,0.0,0.0,0.0,0.0,0.0,0.0,0.0,-1.2775,-1.4242,-1.2597,-1.4099,-1.387,0.0,0.0,0.0,0.0,0.0,0.0,0.0,0.0,0.0,-1.8888,-1.9481,-2.0942,-2.3509,-2.4471,-2.4947,-2.4947,-2.5428,-2.5664,-2.5664,-2.5664,-2.5664,-2.5644,-2.5139,-2.3808,-2.1795,-1.9408,-1.6913,-1.4206,0.0,0.0,0.0,0.0,0.0,-1.5269,0.0,0.0,0.0,0.0,0.0,0.0,0.0,0.0,0.0,0.0,0.0,0.0,-0.6818,-0.9429,-1.1742,-1.3303,-1.4567,-1.4517,-1.2691,-1.1693,-1.0019,-0.7436,-0.7372,-0.741,-0.7434,-1.2025,-1.7687,-2.4375,-2.7697,-3.0872,-3.3803,-3.4668,-3.512,-3.5186,-3.467,-2.9854,-2.2014,-2.0587,-1.8287,0.0,0.0,0.0,0.0,0.0,0.0,0.0,0.0,0.0,0.0,0.0,0.0,0.0,0.0,0.0,0.0,0.0,0.0,0.0,0.0,0.0,0.0,0.0,0.0,0.0,0.0,0.0,0.0,0.0,0.0,0.0,0.0,0.0,0.0,0.0,0.0,0.0,0.0,-1.31,-1.4714,-1.3694,-1.5842,-1.6019,0.0,0.0,0.0,0.0,0.0,0.0,-1.9004,-1.8061,-1.8642,-2.1205,-2.1908,-2.3158,-2.5048,-2.6313,-2.6928,-2.6948,-2.7582,-2.7895,-2.7895,-2.7895,-2.7895,-2.7857,-2.7217,-2.6563,-2.5673,-2.1865,-1.9788,-1.8635,-1.5061,-1.3231,-1.2942,-1.5311,-1.7253,-1.9158,0.0,0.0,0.0,0.0,0.0,0.0,0.0,0.0,0.0,0.0,0.0,-0.9194,-1.0075,-1.3675,-1.6684,-1.8297,-1.8624,-1.7736,-1.5361,-1.3811,-1.1541,-0.838,-0.8239,-0.8272,-0.8341,-1.6671,-2.2714,-2.6179,-3.2327,-3.5468,-3.5704,-3.7263,-3.7955,-3.787,-3.7095,-3.4033,-2.9263,-2.6166,-2.3423,-2.0751,0.0,0.0,0.0,0.0,0.0,0.0,0.0,0.0,0.0,0.0,0.0,0.0,0.0,0.0,0.0,0.0,0.0,0.0,0.0,0.0,0.0,0.0,0.0,0.0,0.0,0.0,0.0,0.0,0.0,0.0,0.0,0.0,0.0,0.0,0.0,0.0,0.0,0.0,0.0,-1.9665,-1.9969,0.0,0.0,0.0,0.0,-2.0946,-1.9719,-2.0989,-2.5832,-2.4548,-2.4817,-2.7376,-2.7491,-2.7588,-2.7703,-2.7799,-2.7838,-2.7838,-2.7876,-2.7895,-2.7895,-2.7895,-2.7895,-2.7895,-2.7857,-2.7818,-2.7568,-2.4933,-2.1936,-1.8972,-1.8722,-1.716,-1.5346,-1.7872,-1.8876,-1.9357,0.0,0.0,0.0,0.0,0.0,-0.4365,-0.44,-0.4463,-0.4689,-0.5206,-0.7992,-1.0666,-1.257,-1.776,-2.1754,-2.3419,-2.4599,-2.4008,-2.1061,-1.7933,-1.4761,-1.1581,-0.9957,-1.136,-1.6075,-2.2292,-2.783,-3.262,-3.5872,-3.8296,-3.9929,-4.0409,-4.0682,-4.0716,-4.0305,-3.8541,-3.5626,-3.1144,-2.7235,-2.3742,-2.0297,-1.6633,0.0,0.0,0.0,0.0,0.0,0.0,0.0,0.0,0.0,0.0,0.0,0.0,0.0,0.0,0.0,0.0,0.0,0.0,0.0,0.0,0.0,0.0,0.0,0.0,0.0,0.0,0.0,0.0,0.0,0.0,0.0,0.0,0.0,0.0,0.0,0.0,0.0,-1.9527,-2.1385,0.0,0.0,-2.1393,-2.2205,-2.3105,-2.4144,-2.5529,-2.7332,-2.6876,-2.6953,-2.7876,-2.8396,-2.8665,-2.8665,-2.9236,-2.95,-2.95,-2.95,-2.95,-2.95,-2.95,-2.95,-2.9481,-2.8909,-2.8665,-2.8569,-2.7126,-2.5837,-2.4721,-2.4721,-2.4163,-2.3485,-2.4394,-2.4375,-2.4024,0.0,0.0,0.0,0.0,0.0,-0.4405,-0.4401,-0.4462,-0.5078,-0.6666,-1.0115,-1.3678,-1.698,-2.2839,-2.7103,-2.8534,-2.9475,-2.8021,-2.3426,-2.0141,-1.6465,-1.2196,-1.1786,-1.5087,-2.2401,-2.6771,-3.145,-3.656,-3.8693,-4.0577,-4.2237,-4.2425,-4.2553,-4.2622,-4.2226,-4.1322,-3.9858,-3.5799,-3.1667,-2.7578,-2.4401,-2.0618,-1.6623,0.0,0.0,0.0,0.0,0.0,0.0,0.0,0.0,0.0,0.0,0.0,0.0,0.0,0.0,0.0,0.0,0.0,0.0,0.0,0.0,0.0,0.0,0.0,0.0,0.0,0.0,0.0,0.0,0.0,0.0,0.0,0.0,0.0,0.0,0.0,-2.2049,-2.1227,-2.4139,-2.5563,-2.3865,-2.5236,-2.6241,-2.6241,-2.8063,-2.9179,-2.9179,-2.9429,-2.9583,-2.9583,-3.0108,-3.0377,-3.0377,-3.0948,-3.1231,-3.1231,-3.1231,-3.1231,-3.1231,-3.1231,-3.1231,-3.1192,-3.0352,-2.9992,-2.991,-2.9083,-2.8736,-2.8698,-2.8121,-2.7895,-2.7895,-2.7895,-2.7525,-2.7005,0.0,0.0,0.0,0.0,0.0,-0.4405,-0.4401,-0.4462,-0.5646,-0.8851,-1.3462,-1.8333,-2.3271,-2.8802,-3.2502,-3.3429,-3.2885,-2.9412,-2.2155,-2.0193,-1.6469,-1.0157,-1.3844,-1.9381,-2.6557,-2.9916,-3.3563,-3.7603,-4.0763,-4.2304,-4.2359,-4.313,-4.3515,-4.3478,-4.269,-4.2187,-4.1832,-4.0039,-3.6839,-3.2543,-2.7847,-2.4906,-2.2659,0.0,0.0,0.0,0.0,0.0,0.0,0.0,0.0,0.0,0.0,0.0,0.0,0.0,0.0,0.0,0.0,0.0,0.0,0.0,0.0,0.0,0.0,0.0,0.0,0.0,0.0,0.0,0.0,0.0,0.0,0.0,0.0,0.0,-1.94,-2.2064,-2.4514,-2.5404,-2.8442,-3.0481,-3.0481,-3.0481,-3.0481,-3.0481,-3.125,-3.1737,-3.1737,-3.2487,-3.2891,-3.2891,-3.2891,-3.2891,-3.2891,-3.2891,-3.2891,-3.2891,-3.2891,-3.2891,-3.2891,-3.2891,-3.2891,-3.2852,-3.2083,-3.1737,-3.1679,-3.0827,-3.0481,-3.0308,-2.8621,-2.7992,-2.7992,-2.7992,-2.7953,-2.7818,0.0,0.0,0.0,-0.4296,-0.4348,-0.4417,-0.4471,-0.4485,-0.6053,-1.0375,-1.4709,-1.9696,-2.5737,-3.0448,-3.3318,-3.3625,-3.2993,-2.999,-2.3886,-2.0859,-1.7736,-1.4193,-2.0189,0.0,-2.9127,-3.3563,-3.7221,-4.012,-4.1589,-4.2598,-4.3167,-4.3387,-4.3515,-4.3496,-4.3276,-4.3098,-4.2903,-4.1668,-4.0111,-3.8039,-3.3521,-2.9407,-2.5694,0.0,0.0,0.0,0.0,0.0,0.0,0.0,0.0,0.0,0.0,0.0,0.0,0.0,0.0,0.0,0.0,0.0,0.0,0.0,0.0,0.0,0.0,0.0,0.0,0.0,0.0,0.0,0.0,0.0,0.0,0.0,0.0,-2.3217,-2.276,-2.613,-2.8962,-2.9846,-3.1295,-3.2218,-3.2218,-3.2218,-3.2218,-3.2218,-3.2429,-3.2564,-3.2564,-3.2776,-3.2891,-3.2891,-3.2891,-3.2891,-3.2891,-3.2891,-3.2891,-3.2891,-3.2891,-3.2891,-3.2891,-3.2891,-3.2891,-3.2891,-3.2679,-3.2564,-3.2545,-3.2314,-3.2218,-3.2045,-3.0365,-2.9712,-2.9712,-2.9712,-2.9313,-2.8646,0.0,0.0,0.0,-0.4326,-0.4369,-0.4429,-0.4496,-0.4505,-0.6452,-1.1882,-1.5651,-2.0545,-2.7665,-3.125,-3.3305,-3.3703,-3.1506,-2.7959,-2.2978,-1.9601,-1.8526,-2.0189,0.0,-2.9714,-3.3183,-3.7037,-3.9863,-4.159,-4.2415,-4.3039,-4.3515,-4.3515,-4.3515,-4.3515,-4.3515,-4.3463,-4.3358,-4.2722,-4.1941,-4.0907,-3.8345,-3.4629,-3.0403,-2.8224,-2.5614,-2.2912,-2.1494,-2.0293,-1.8905,-1.5879,0.0,0.0,0.0,0.0,0.0,0.0,0.0,0.0,0.0,0.0,0.0,0.0,0.0,0.0,0.0,0.0,0.0,0.0,0.0,0.0,0.0,0.0,0.0,0.0,-2.5019,-2.8047,-2.8764,-3.0673,-3.2314,-3.3192,-3.4314,-3.5045,-3.5045,-3.5045,-3.5045,-3.5045,-3.5045,-3.5045,-3.5045,-3.5045,-3.5045,-3.5045,-3.468,-3.4487,-3.4487,-3.416,-3.416,-3.4487,-3.4487,-3.4487,-3.4487,-3.4487,-3.4314,0.0,-3.3603,-3.343,-3.341,-3.3045,-3.2891,0.0,0.0,0.0,0.0,0.0,-2.9852,-2.903,0.0,0.0,0.0,-0.437,-0.44,-0.4429,-0.4496,-0.4491,-0.6826,-1.3294,-1.626,-2.0826,-2.8881,-3.1157,-3.2426,-3.3201,-2.9017,-2.4675,-2.0768,-1.8262,-1.9932,-2.6722,-2.9586,-3.3183,-3.7804,-4.0084,-4.1627,-4.2433,-4.3149,-4.3515,-4.3515,-4.3515,-4.3515,-4.3515,-4.3515,-4.3463,-4.3394,-4.3269,-4.2777,-4.2068,-4.205,-3.9674,-3.5722,-3.2105,-2.9733,-2.799,-2.5064,-2.3002,-2.1478,-2.0309,0.0,0.0,0.0,0.0,0.0,0.0,0.0,0.0,0.0,0.0,0.0,0.0,0.0,0.0,0.0,0.0,0.0,0.0,0.0,0.0,0.0,0.0,0.0,0.0,-3.0515,-3.3865,-3.5423,-3.5141,-3.5026,-3.5692,-3.7084,-3.8007,-3.8007,-3.8007,-3.8007,-3.8007,-3.8007,-3.8007,-3.8007,0.0,0.0,0.0,0.0,-3.6846,-3.6846,-3.6135,-3.6135,-3.6846,-3.6846,-3.6846,-3.6846,-3.6846,-3.6404,-3.5596,-3.4814,-3.4436,-3.4302,-3.3506,-3.3199,-3.3179,-3.2987,-3.2468,-3.1737,-3.0865,-3.0063,-2.9377,0.0,0.0,0.0,-0.4311,-0.436,-0.4429,-0.4496,-0.4493,-0.7027,-1.4051,-1.6168,-2.0043,-2.7979,-2.9357,-2.9745,-2.9904,-2.6704,-2.3474,-2.0676,-2.3006,-2.5988,-2.9365,-3.3733,-3.7441,-4.0325,-4.1497,-4.2451,-4.3276,-4.3423,-4.3515,-4.3515,-4.3515,-4.3515,-4.3515,-4.3515,-4.3497,-4.348,-4.3394,-4.3249,-4.3103,-4.2977,-4.1267,-3.8673,-3.7891,-3.6199,-3.4178,-3.3546,-3.1869,-2.9482,-2.6184,-2.4099,-2.2264,-1.8562,0.0,0.0,0.0,0.0,0.0,0.0,0.0,0.0,0.0,0.0,0.0,0.0,0.0,0.0,0.0,0.0,0.0,0.0,0.0,0.0,-2.8233,-3.2744,-3.6077,-3.6423,-3.7526,-3.813,-3.7584,-3.7796,-3.8007,-3.8007,-3.8007,-3.8007,-3.8007,-3.8007,-3.8007,-3.8007,-3.8007,0.0,-3.8007,-3.7834,-3.7757,-3.7757,-3.7584,-3.7584,-3.7757,0.0,0.0,-3.7757,-3.7757,-3.7276,-3.6462,-3.6288,-3.5846,-3.5231,-3.5077,-3.5,-3.4865,-3.3449,-3.2795,-3.2564,-3.1756,-3.1333,-3.1102,0.0,0.0,0.0,-0.4296,-0.4359,-0.4428,-0.4494,-0.4502,-0.6369,-1.1571,-1.3125,-1.601,-2.1986,-2.2821,-2.3272,-2.4079,-2.2685,-2.1382,-2.0539,-2.4722,-2.9017,-3.3073,-3.6758,-3.9643,-4.1662,-4.2488,-4.3094,-4.3515,-4.3515,-4.3515,-4.3515,-4.3515,-4.3515,-4.3533,-4.392,-4.4103,-4.4121,-4.449,-4.4417,-4.4051,-4.3979,-4.2974,-4.1459,-4.0935,-3.9278,-3.7247,-3.7182,-3.5359,-3.2703,-3.0764,-2.9063,-2.7266,-2.4446,-2.1612,-1.8647,0.0,0.0,0.0,0.0,0.0,0.0,0.0,0.0,0.0,0.0,0.0,0.0,0.0,0.0,-2.041,0.0,0.0,-3.0553,-3.3135,-3.675,-3.925,-3.925,-4.0373,-4.0566,-3.8854,-3.9008,-3.9238,-3.9238,-3.9238,-3.9238,-3.9238,-3.9238,-3.9238,-3.9238,-3.9238,-3.9238,-3.9238,-3.8854,-3.8642,-3.8642,-3.8219,-3.8219,-3.8642,-3.8642,-3.8642,-3.8642,-3.8642,-3.818,-3.7353,-3.7353,-3.7123,-3.6719,-3.6269,-3.5865,-3.5404,-3.4538,-3.393,-3.3449,-3.2602,-3.2295,-3.2237,0.0,0.0,0.0,-0.429,-0.4361,-0.4428,-0.4491,-0.4505,-0.5649,-0.8865,-0.9977,-1.1934,-1.5791,-1.6326,-1.6828,-1.78,-1.9043,-2.0115,0.0,-2.6135,-3.1531,-3.6762,-3.9148,-4.1038,-4.2506,-4.3167,-4.3515,-4.3515,-4.3515,-4.3515,-4.3515,-4.3515,-4.3588,-4.3754,-4.4415,-4.4783,-4.4984,-4.5626,-4.5443,-4.4691,-4.4691,-4.4213,-4.3387,-4.2426,-4.0818,-3.9038,-3.8791,-3.665,-3.395,-3.395,-3.2818,-3.1201,-3.0051,-2.7493,-2.4006,-1.9428,-1.7282,0.0,0.0,0.0,0.0,0.0,0.0,0.0,0.0,0.0,-2.0316,-2.1096,-2.3227,-2.6098,-2.9912,-3.2664,-3.5332,-3.8257,-4.0604,-4.2038,-4.2038,-4.2508,-4.2085,-4.0027,-4.0362,-4.0689,-4.0516,-4.0496,-4.0573,-4.0746,-4.0746,-4.0823,-4.0997,-4.1016,-4.1016,-4.1016,-4.0208,-3.9796,-3.9796,-3.8911,-3.8834,-3.9534,-3.9534,-3.9534,-3.9534,-3.9534,-3.9065,-3.8238,-3.8065,-3.8007,-3.795,-3.7238,-3.6577,-3.5962,-3.5808,-3.5295,-3.4564,-3.3526,-3.3141,-3.3122,0.0,0.0,0.0,0.0,0.0,-0.4428,-0.4491,-0.4505,-0.5628,-0.8798,-0.9452,-1.0877,-1.4135,-1.4593,-1.4208,-1.3007,-1.813,-2.1796,-2.2657,-2.9922,-3.5775,-3.9331,-4.113,-4.2451,-4.3349,-4.346,-4.3515,-4.3515,-4.3515,-4.3515,-4.3515,-4.3515,-4.3883,-4.4563,-4.4672,-4.5112,-4.5773,-4.5865,-4.5443,-4.4691,-4.4691,-4.4213,-4.3406,-4.2581,-4.1647,-4.0712,-3.9994,-3.7631,-3.4862,-3.4862,-3.3316,-3.1488,-3.2032,-2.9989,-2.6722,-2.3318,0.0,-1.882,-1.8452,-1.9646,-2.1151,-2.1868,-2.1091,-2.0155,0.0,0.0,-2.619,-2.6408,-3.0267,-3.4234,-3.6337,-3.8326,-4.0034,-4.1192,-4.2258,-4.2951,-4.2951,-4.2374,-4.1827,-4.1538,-4.1604,-4.1354,-4.0573,-4.0496,-4.0823,-4.1604,-4.1662,-4.1989,-4.2777,-4.2816,-4.2816,-4.2816,-4.197,-4.1527,-4.1527,-4.0662,-4.0265,-4.0362,-4.0362,-4.0362,-4.0362,-4.0362,-3.9919,-3.9111,-3.8334,-3.8007,-3.7988,-3.7892,-3.7796,-3.7642,-3.6865,-3.65,-3.6238,-3.4641,-3.4052,-3.3936,0.0,0.0,0.0,0.0,0.0,-0.4428,-0.4491,-0.4505,-0.4978,-0.6292,-0.6579,-0.7155,-0.8466,-0.9121,-0.9211,-0.8602,-1.4849,-1.963,-2.142,-2.911,-3.527,-3.9038,-4.0744,-4.2194,-4.3478,-4.3515,-4.3515,-4.3515,-4.3515,-4.3515,-4.3515,-4.3515,-4.392,-4.4709,-4.5186,-4.5847,-4.6636,-4.7113,-4.6562,-4.5406,-4.5406,-4.436,-4.2708,-4.1919,-4.0524,-3.8762,-3.6982,-3.4266,0.0,0.0,-3.0216,-2.8998,-3.1219,-2.9696,-2.6649,-2.4373,-2.263,0.0,-2.2637,-2.375,0.0,0.0,-2.6861,-2.7367,-2.8371,-3.046,-3.2477,-3.3589,-3.6055,-3.8422,-3.9725,-4.1466,-4.2819,0.0,-4.3989,-4.4547,-4.4547,-4.3797,-4.3085,-4.2604,-4.2104,-4.147,-4.0573,-4.095,-4.1412,-4.1769,-4.2277,-4.272,-4.3085,-4.3104,-4.3104,-4.3104,-4.2758,-4.2566,-4.2566,-4.17,-4.1258,-4.1258,-4.0746,-4.0496,-4.0496,-4.0496,-4.0323,-3.9977,-3.9611,-3.9181,-3.8757,-3.8757,-3.845,-3.7969,-3.7603,-3.7469,-3.7257,-3.5565,-3.4968,-3.4911,0.0,0.0,0.0,0.0,0.0,-0.4393,-0.4465,-0.4485,-0.4507,-0.4507,-0.4535,-0.4574,-0.4592,-0.5159,-0.565,-0.595,-1.1776,-1.6885,-2.0242,-2.7423,-3.3565,-3.8096,-3.9836,-4.1449,-4.3043,-4.308,-4.3207,-4.3463,-4.3463,-4.348,-4.3515,-4.3515,-4.392,-4.4709,-4.5278,-4.6103,-4.7093,-4.7403,-4.6872,-4.5792,-4.5315,-4.3849,-4.1776,-4.0531,-3.8145,-3.5252,-3.344,-3.0876,0.0,0.0,-2.607,-2.5373,-2.7945,-2.6979,-2.4785,-2.408,-2.3768,-2.3887,-2.4892,0.0,0.0,-3.0076,-3.1816,-3.3518,-3.5244,-3.6416,-3.7446,-3.8603,-3.9908,-4.0997,-4.1485,-4.2867,0.0,-4.4259,-4.4816,-4.5325,-4.5575,-4.4662,-4.3758,-4.3162,-4.2124,-4.1181,-4.0554,-4.1296,-4.1904,-4.2143,-4.2951,-4.3547,-4.3778,-4.3797,-4.3797,-4.3797,-4.3566,-4.3431,-4.3431,-4.2585,-4.2038,-4.1788,-4.1162,-4.0727,-4.0516,-4.0746,-4.0854,-4.0854,-4.0854,-4.0527,-3.9969,-3.9727,-3.9265,-3.8661,-3.845,-3.8354,-3.818,-3.6738,-3.6192,-3.6192,0.0,0.0,0.0,0.0,0.0,-0.4335,-0.4395,-0.4462,-0.4507,-0.4507,-0.451,-0.452,-0.4587,-0.4632,-0.4979,-0.582,-0.9675,-1.4434,-2.0041,-2.5757,-3.1407,-3.6991,-3.878,-4.0404,-4.201,-4.2047,-4.2501,-4.3412,-4.3412,-4.3446,-4.3515,-4.3515,-4.392,-4.4691,-4.4656,-4.5516,-4.6942,-4.6003,-4.5582,-4.5457,-4.3833,-4.2285,-4.0687,-3.8311,-3.4495,-3.0411,-3.0338,0.0,0.0,0.0,-2.1418,-2.0859,-2.1794,-2.1437,0.0,-2.2566,-2.4116,0.0,0.0,0.0,-3.08,-3.3321,-3.5203,-3.6917,-3.865,-3.9778,-4.0298,-3.977,-4.1131,-4.2235,-4.1628,-4.2343,-4.3312,-4.4162,-4.4316,-4.4624,-4.5479,-4.4182,-4.3124,-4.3104,-4.1585,-4.0535,0.0,-4.1296,-4.2162,-4.3008,-4.3816,-4.4624,-4.5479,-4.5518,-4.5518,-4.5518,-4.4701,-4.4259,-4.4259,-4.3451,-4.2643,-4.1788,-4.1769,-4.1316,-4.0535,-4.1373,-4.175,-4.175,-4.175,-4.175,-4.1654,-4.0816,-4.0458,-4.0342,-3.9573,-3.9265,-3.915,-3.8257,-3.7911,-3.7904,0.0,0.0,0.0,0.0,0.0,0.0,-0.4386,-0.4423,-0.4449,-0.4494,-0.4496,0.0,0.0,0.0,0.0,0.0,-0.8227,-1.1749,-1.5317,-2.1797,-2.7537,-3.2151,-3.5351,-3.7769,-3.9365,-3.9402,-3.9581,-3.9871,-4.045,-4.0758,-4.0793,-4.1339,-4.2013,-4.2759,-4.2741,-4.3287,-4.4193,-4.3844,-4.3119,-4.2105,-4.1633,-3.9921,-3.7262,-3.3835,-3.0558,-2.7181,0.0,0.0,0.0,-1.8122,-1.7197,-1.6933,-1.9389,-1.8838,0.0,-1.9913,-2.2464,0.0,0.0,0.0,-3.3432,-3.5977,-3.7872,-3.9579,-4.1306,-4.1591,-4.16,-4.2121,-4.0605,-3.9135,-3.8947,-3.8823,-3.9045,-3.9977,-4.1495,-4.2879,-4.3816,-4.297,-4.2239,-4.2239,-4.12,0.0,0.0,0.0,0.0,-4.3085,-4.4374,-4.5287,-4.5575,-4.5594,-4.5594,-4.5594,-4.5325,-4.5171,-4.5171,-4.4316,-4.3758,-4.3451,-4.2912,-4.2508,-4.2239,-4.2527,-4.2662,-4.2624,-4.2038,-4.1788,-4.1731,-4.0854,-4.0496,-4.0477,-4.0208,-4.0092,-4.0054,-3.9765,-3.9665,-3.948,0.0,0.0,0.0,0.0,0.0,0.0,0.0,0.0,0.0,0.0,0.0,0.0,0.0,0.0,0.0,0.0,0.0,0.0,-1.2037,0.0,-2.2151,-2.6222,-2.9602,-3.2137,-3.374,-3.4032,-3.4336,-3.4672,-3.608,-3.6781,-3.6866,-3.8482,-3.9515,-4.0021,-4.0239,-4.0726,-4.1338,-4.063,-3.9462,-3.8023,-3.6941,-3.4705,-3.1697,-2.8305,-2.5226,0.0,0.0,0.0,0.0,-1.355,-1.3789,-1.4481,-1.683,-1.8115,-1.882,-1.9187,-2.3052,0.0,0.0,-3.345,-3.632,-3.8563,-4.0148,-4.1471,-4.2627,-4.2532,-4.2146,-4.2019,-3.9033,-3.6291,-3.5826,-3.545,-3.5626,-3.686,-3.9434,-4.1805,-4.3308,-4.2797,-4.2374,-4.2662,-4.195,0.0,0.0,0.0,0.0,-4.3124,-4.4643,-4.5594,-4.5594,-4.5594,-4.5594,-4.5594,-4.5594,-4.5594,-4.5594,-4.5037,-4.4605,-4.4297,-4.347,-4.3104,-4.3104,-4.3395,-4.3522,-4.3483,-4.2565,-4.2164,-4.2068,-4.088,-4.04,-4.04,-4.04,-4.04,-4.04,-4.04,-4.0377,-4.0182,0.0,0.0,0.0,0.0,0.0,0.0,0.0,0.0,0.0,0.0,0.0,0.0,0.0,0.0,0.0,0.0,0.0,0.0,0.0,0.0,0.0,-1.956,-2.2052,-2.4066,-2.5643,-2.6407,-2.721,-2.8106,-3.0376,-3.1553,-3.1753,-3.4715,-3.6125,-3.6145,-3.6753,-3.7381,-3.7882,-3.6076,-3.4553,-3.3103,-2.9991,-2.7134,-2.4487,-2.2103,0.0,0.0,0.0,0.0,0.0,0.0,0.0,0.0,0.0,0.0,-2.3621,-2.0656,-2.5878,-3.2651,-3.293,-3.5901,-3.9319,-4.0948,-4.1942,-4.2546,-4.2674,-4.2613,-4.1895,-3.9674,-3.6494,-3.3694,0.0,0.0,-3.2748,-3.4515,-3.7832,-4.1048,-4.3558,-4.3404,-4.3327,0.0,0.0,0.0,0.0,0.0,0.0,-4.322,0.0,-4.5594,-4.5594,-4.5594,-4.5594,-4.5594,-4.5594,-4.5594,-4.5594,-4.5594,-4.519,-4.4355,-4.3585,-4.322,-4.3258,-4.4023,-4.4362,-4.4295,-4.3292,-4.2872,-4.2728,-4.0988,-4.0253,-4.0253,-4.0215,-4.0196,-4.0196,-4.0196,-4.0148,-4.0098,0.0,0.0,0.0,0.0,0.0,0.0,0.0,0.0,0.0,0.0,0.0,0.0,0.0,0.0,0.0,0.0,0.0,0.0,0.0,0.0,0.0,0.0,0.0,0.0,0.0,0.0,0.0,0.0,-2.4005,-2.464,-2.4724,-2.6096,-2.6743,-2.676,-2.7485,-2.7522,-2.7112,-2.7158,-2.6366,-2.4983,0.0,-2.2865,-2.1018,0.0,0.0,0.0,0.0,0.0,0.0,0.0,0.0,0.0,0.0,0.0,-2.4502,-2.607,0.0,-3.3288,-3.6403,-3.8865,-4.0851,-4.1944,-4.24,-4.2599,-4.2674,-4.1263,-3.9606,-3.8486,-3.3272,-2.8624,0.0,0.0,0.0,-2.6568,-3.1711,0.0,-3.8284,-4.0584,0.0,0.0,0.0,-4.3035,-4.3035,-4.3799,0.0,0.0,-4.4991,-4.5594,-4.5594,-4.5594,-4.5594,-4.5594,-4.5594,-4.5594,-4.5594,-4.5594,-4.5498,-4.5267,-4.5056,-4.496,-4.497,-4.5118,-4.5169,-4.5074,-4.4115,-4.3663,-4.3488,-4.1748,-4.1023,-4.0966,-4.0309,-4.0042,-4.0042,-4.0042,-4.002,-3.9935,0.0,0.0,0.0,0.0,0.0,0.0,0.0,0.0,0.0,0.0,0.0,0.0,0.0,0.0,0.0,0.0,0.0,0.0,0.0,0.0,0.0,0.0,0.0,0.0,0.0,0.0,0.0,0.0,0.0,0.0,-1.8989,-2.08,-2.1626,-2.1662,-2.2376,-2.242,-2.197,-2.196,0.0,0.0,0.0,0.0,0.0,0.0,0.0,0.0,0.0,0.0,0.0,0.0,0.0,-1.9528,-2.3098,-2.6657,-2.9787,-3.1225,0.0,-3.7441,-4.0129,-4.1765,-4.2849,-4.3341,-4.2969,-4.2025,-4.0299,-3.8249,-3.6006,-3.3506,-2.8304,0.0,0.0,0.0,0.0,0.0,0.0,0.0,-3.8735,-4.1198,-4.2977,0.0,-4.3982,0.0,-4.4011,-4.4442,-4.4739,0.0,-4.5255,-4.5531,-4.5513,-4.5513,-4.5513,-4.5513,-4.5513,-4.5523,-4.5515,-4.5477,-4.5467,-4.5467,-4.5467,-4.5467,-4.5458,-4.5361,-4.53,-4.518,0.0,-4.3653,-4.3488,-4.2056,-4.1283,-4.0906,-4.0396,-3.9992,-3.9683,-3.9683,-3.9644,-3.9575,0.0,0.0,0.0,0.0,0.0,0.0,0.0,0.0,0.0,0.0,-0.4446,-0.4496,0.0,0.0,0.0,0.0,0.0,0.0,0.0,0.0,0.0,0.0,0.0,0.0,0.0,0.0,0.0,0.0,0.0,0.0,0.0,0.0,0.0,0.0,0.0,0.0,0.0,0.0,0.0,0.0,0.0,0.0,0.0,0.0,0.0,0.0,0.0,0.0,0.0,0.0,-2.185,-2.407,-2.8436,-3.3018,-3.667,-3.6123,-3.904,-4.2653,-4.357,-4.425,-4.4654,-4.458,-4.3259,-4.0928,-3.689,-3.4596,-3.2003,-2.733,0.0,0.0,-1.9534,0.0,-2.2106,-2.5617,0.0,-3.5923,-4.0636,-4.2381,-4.367,-4.4995,-4.5203,-4.5246,-4.5265,-4.5275,-4.5275,-4.5254,-4.5351,-4.5419,-4.5371,-4.5371,-4.5371,-4.5371,-4.5371,-4.537,-4.5359,-4.5307,-4.5256,-4.5256,-4.5256,-4.5256,-4.5275,-4.5136,-4.5045,-4.4917,0.0,0.0,-4.3272,-4.2249,-4.1432,-4.0793,-4.057,-4.0061,-3.9421,-3.9309,-3.9219,-3.9156,0.0,0.0,0.0,0.0,0.0,0.0,0.0,0.0,0.0,0.0,-0.4369,-0.4432,0.0,0.0,0.0,0.0,0.0,0.0,0.0,0.0,0.0,0.0,0.0,0.0,0.0,0.0,0.0,0.0,0.0,0.0,0.0,0.0,0.0,0.0,0.0,0.0,0.0,0.0,0.0,0.0,0.0,0.0,0.0,0.0,0.0,0.0,0.0,0.0,0.0,0.0,-2.3061,-2.6035,-3.2069,-3.6413,-3.9496,-4.0689,-4.2103,-4.3608,-4.5076,-4.5094,-4.4544,-4.3864,-4.1992,-3.9239,-3.5165,-3.2467,0.0,0.0,0.0,-1.9294,-1.8573,0.0,0.0,-1.9977,0.0,0.0,0.0,0.0,0.0,0.0,0.0,0.0,0.0,0.0,0.0,0.0,0.0,0.0,-4.5235,-4.5227,-4.5227,-4.5227,-4.5227,-4.5213,-4.5159,-4.5148,-4.5136,-4.5136,-4.5136,-4.5136,-4.5136,-4.501,-4.4895,-4.4808,0.0,0.0,-4.3941,-4.2995,-4.253,-4.2251,-4.0876,-4.0244,-4.0044,-3.937,-3.9087,-3.9036,0.0,0.0,0.0,0.0,0.0,0.0,0.0,-0.4201,-0.4265,-0.429,-0.4329,-0.438,-0.4446,-0.4477,-0.4499,0.0,0.0,0.0,0.0,0.0,0.0,0.0,0.0,0.0,0.0,0.0,0.0,0.0,0.0,0.0,0.0,0.0,0.0,0.0,0.0,0.0,0.0,0.0,0.0,0.0,0.0,0.0,0.0,0.0,0.0,0.0,0.0,0.0,0.0,0.0,-2.0799,-2.4189,-3.194,-3.7221,-4.0598,-4.0946,-4.28,-4.5002,-4.6214,-4.5938,-4.5131,-4.4323,-4.1992,-3.8377,-3.2632,0.0,0.0,0.0,0.0,-1.6837,-1.6925,0.0,0.0,0.0,0.0,0.0,0.0,0.0,0.0,0.0,0.0,0.0,0.0,0.0,0.0,0.0,0.0,0.0,-4.4919,-4.4931,-4.4931,-4.4931,-4.4833,-4.4764,-4.4726,-4.4662,-4.4623,-4.4623,-4.4623,-4.4623,-4.4642,-4.4535,-4.4458,-4.4374,-4.414,0.0,-4.3855,-4.3372,-4.292,-4.2458,-4.1646,-4.1077,-4.0671,-4.0283,-3.9862,-3.9463,0.0,0.0,0.0,0.0,0.0,0.0,-0.4072,-0.4142,-0.4195,-0.4253,-0.4262,-0.4301,-0.4372,-0.4443,-0.4477,0.0,0.0,0.0,0.0,0.0,0.0,0.0,0.0,0.0,0.0,0.0,0.0,0.0,0.0,0.0,0.0,0.0,0.0,0.0,0.0,0.0,0.0,0.0,0.0,0.0,0.0,0.0,0.0,0.0,0.0,0.0,0.0,0.0,0.0,0.0,-1.8067,-2.1248,-2.8627,-3.4656,-3.9111,-3.9515,-4.2121,-4.5204,-4.6691,-4.6507,-4.5663,-4.469,-4.2029,-3.7679,-3.0179,-2.6759,0.0,0.0,0.0,-1.4964,-1.5649,0.0,0.0,0.0,0.0,0.0,0.0,0.0,0.0,0.0,0.0,0.0,0.0,0.0,0.0,0.0,0.0,0.0,-4.456,-4.4573,-4.4573,-4.4573,-4.4421,-4.4332,-4.4318,-4.4206,-4.4166,-4.4166,-4.4166,-4.4166,-4.4166,-4.4094,-4.4036,-4.3958,-4.3835,0.0,0.0,-4.3532,-4.313,-4.2543,-4.2378,-4.1919,-4.1334,-4.115,-4.0708,-4.012,0.0,0.0,0.0,0.0,0.0,0.0,-0.4013,-0.4068,-0.4106,-0.4112,-0.4169,-0.4239,-0.4311,-0.4366,-0.4409,0.0,0.0,0.0,0.0,0.0,0.0,0.0,0.0,0.0,0.0,0.0,0.0,0.0,0.0,0.0,0.0,0.0,0.0,0.0,0.0,0.0,0.0,0.0,0.0,0.0,0.0,0.0,0.0,0.0,0.0,0.0,0.0,0.0,0.0,0.0,0.0,-1.8646,-2.0974,-2.6591,-3.3146,-3.7533,0.0,0.0,-4.6085,-4.6507,-4.5535,-4.3975,-4.1185,-3.6707,-2.8638,0.0,0.0,0.0,-1.5123,-1.5607,-1.568,-1.8992,-2.1233,0.0,0.0,0.0,0.0,0.0,0.0,0.0,0.0,0.0,0.0,0.0,0.0,0.0,0.0,0.0,0.0,-4.417,-4.417,-4.417,-4.4136,-4.4109,-4.4033,-4.4017,-4.402,-4.402,-4.402,-4.402,-4.402,-4.3961,-4.3913,-4.3897,0.0,0.0,0.0,-4.3532,-4.346,-4.3331,-4.2598,-4.2249,-4.2103,-4.137,-4.104,-4.0875,0.0,0.0,0.0,0.0,0.0,0.0,-0.3993,-0.402,-0.4051,-0.4096,-0.4116,-0.4169,-0.4224,-0.4305,-0.4354,-0.4401,-0.4429,0.0,0.0,0.0,0.0,0.0,0.0,0.0,0.0,0.0,0.0,0.0,0.0,0.0,0.0,0.0,0.0,0.0,0.0,0.0,0.0,0.0,0.0,0.0,0.0,0.0,0.0,0.0,0.0,0.0,0.0,0.0,0.0,0.0,0.0,0.0,-1.5554,-1.8467,0.0,0.0,-3.6486,-3.9918,-4.4416,-4.5406,-4.48,-4.3185,-4.0726,-3.6578,-2.8448,0.0,0.0,-1.6463,-1.5472,-1.601,-1.6977,-1.9701,-2.1243,0.0,0.0,0.0,0.0,0.0,0.0,0.0,0.0,0.0,0.0,0.0,0.0,0.0,0.0,0.0,0.0,-4.3846,-4.3913,-4.3913,-4.3846,-4.3779,-4.3765,-4.3716,-4.3699,-4.3699,-4.3699,-4.3699,-4.3699,-4.3666,-4.3667,-4.3649,0.0,0.0,0.0,-4.3515,-4.3515,-4.3478,-4.3149,-4.302,-4.2983,-4.2653,-4.2249,-4.1791,0.0,0.0,0.0,0.0,0.0,-0.3913,-0.3961,-0.3993,-0.4018,-0.4066,-0.4067,-0.4096,-0.4165,-0.4211,-0.4261,-0.4326,-0.4378,0.0,0.0,0.0,0.0,0.0,0.0,0.0,0.0,0.0,-0.6702,-0.6702,0.0,0.0,0.0,0.0,0.0,0.0,0.0,0.0,0.0,0.0,0.0,0.0,0.0,0.0,0.0,0.0,0.0,0.0,0.0,0.0,0.0,0.0,0.0,0.0,0.0,0.0,0.0,0.0,-3.2168,-3.6193,-4.1772,-4.3461,-4.3314,-4.1937,-3.9221,-3.5037,0.0,0.0,-2.1408,-1.6671,-1.5894,-1.6481,-1.7858,-1.9711,-2.0674,-1.9481,0.0,0.0,0.0,0.0,0.0,0.0,0.0,0.0,0.0,0.0,0.0,0.0,0.0,0.0,0.0,-4.3985,-4.3961,-4.3721,-4.3617,-4.3565,-4.3565,-4.3513,-4.3515,-4.3515,-4.3515,-4.3515,-4.3515,-4.3515,-4.3515,-4.3515,0.0,0.0,0.0,-4.3515,-4.3515,-4.3515,-4.3515,-4.3515,-4.3515,-4.3515,-4.313,-4.2616,0.0,0.0,0.0,0.0,0.0,-0.3906,-0.3906,-0.3961,-0.3994,-0.4009,-0.4007,-0.4019,-0.4092,-0.4099,-0.4136,-0.4188,-0.4323,0.0,0.0,0.0,0.0,0.0,0.0,0.0,0.0,0.0,-0.6702,-0.6702,-0.8175,-0.8897,0.0,0.0,0.0,0.0,0.0,0.0,0.0,0.0,0.0,0.0,0.0,0.0,0.0,0.0,0.0,0.0,0.0,0.0,0.0,0.0,0.0,0.0,0.0,0.0,0.0,0.0,-2.7181,-3.0675,-3.7973,-4.0524,-4.093,-4.012,-3.6266,-3.139,0.0,0.0,-1.8654,-1.6194,-1.6328,-1.7147,-1.7942,-1.8775,-1.9315,-1.9297,-2.14,0.0,0.0,0.0,0.0,0.0,0.0,0.0,0.0,0.0,0.0,0.0,0.0,0.0,0.0,-4.469,-4.4323,-4.3533,-4.3515,-4.3515,-4.3515,-4.3515,-4.3515,-4.3515,-4.3515,-4.3515,-4.3515,-4.3515,-4.3515,0.0,0.0,0.0,0.0,-4.3515,-4.3515,-4.3515,-4.3515,-4.3515,-4.3515,-4.3515,-4.3496,-4.3369,0.0,0.0,0.0,0.0,0.0,0.0,-0.3906,-0.3913,-0.3935,-0.3935,-0.3975,-0.4007,-0.4034,-0.407,-0.4117,-0.4136,-0.4208,0.0,0.0,0.0,0.0,0.0,0.0,0.0,0.0,-0.6107,-0.6899,-0.746,-0.8423,-0.8897,-0.8897,-0.8897,0.0,0.0,0.0,0.0,0.0,0.0,0.0,0.0,0.0,0.0,0.0,0.0,0.0,0.0,0.0,0.0,0.0,0.0,0.0,0.0,0.0,0.0,0.0,-1.6251,-2.0372,0.0,-3.0772,-3.3041,-3.3587,-3.333,-3.1274,-2.8191,-2.3906,0.0,-1.9447,-1.7025,-1.7154,-1.7961,-1.8775,-1.9132,-1.9866,-2.1547,-2.2492,0.0,0.0,0.0,0.0,0.0,0.0,0.0,0.0,0.0,0.0,0.0,0.0,0.0,0.0,0.0,-4.3754,-4.3515,-4.3515,-4.3515,-4.3515,-4.3515,-4.3515,-4.3515,-4.3515,-4.3515,-4.3515,-4.3515,0.0,0.0,0.0,0.0,0.0,-4.3515,-4.3515,-4.3515,-4.3515,-4.3515,-4.3515,-4.3515,-4.3463,-4.3392,0.0,0.0,0.0,0.0,0.0,0.0,-0.3906,-0.3906,-0.3906,-0.3906,-0.3935,-0.3975,-0.4004,-0.4037,-0.4061,-0.4062,-0.41,0.0,0.0,0.0,0.0,0.0,0.0,0.0,-0.5373,-0.6195,-0.6977,-0.7761,-0.852,-0.8886,-0.8858,-0.8891,-0.8897,-0.8897,-0.8891,0.0,0.0,0.0,0.0,0.0,0.0,0.0,-0.8897,0.0,0.0,0.0,0.0,0.0,0.0,0.0,0.0,0.0,0.0,0.0,0.0,0.0,-1.5177,-1.8606,0.0,-2.7515,-2.8352,-2.8374,-2.6704,0.0,0.0,0.0,0.0,-1.7147,-1.8273,-1.9455,-1.9315,-2.006,-2.0904,-2.151,-2.3419,0.0,0.0,0.0,0.0,0.0,0.0,0.0,0.0,0.0,0.0,0.0,0.0,0.0,0.0,0.0,-4.3809,-4.3515,-4.3515,-4.3515,-4.3515,-4.3515,-4.3515,-4.3515,-4.3515,-4.3515,-4.3515,-4.3515,0.0,0.0,0.0,0.0,0.0,-4.3515,-4.3515,-4.3515,-4.3515,-4.3515,-4.3497,-4.3463,-4.3393,-4.3323,0.0,0.0,0.0,0.0,0.0,0.0,0.0,-0.3906,-0.3906,-0.3906,-0.3906,-0.3931,-0.3987,-0.399,-0.3986,-0.3987,-0.3991,0.0,0.0,0.0,0.0,0.0,0.0,0.0,-0.5443,-0.6249,-0.7032,-0.7777,-0.8532,-0.8863,-0.88,-0.8863,-0.8903,-0.8903,-0.8903,-0.8897,-0.8897,-0.8897,-0.8897,-0.8897,-0.8897,-0.8897,0.0,0.0,0.0,0.0,0.0,0.0,0.0,0.0,0.0,0.0,0.0,0.0,0.0,0.0,0.0,0.0,0.0,-2.3362,-2.4626,-2.4749,-2.2456,-1.9953,0.0,0.0,0.0,0.0,-1.951,-2.128,-1.9609,-2.1327,-2.2254,-2.0013,-2.4236,0.0,0.0,0.0,0.0,0.0,0.0,0.0,0.0,0.0,0.0,0.0,0.0,0.0,0.0,0.0,-4.4268,-4.3533,-4.3515,-4.3515,-4.3515,-4.3515,-4.3515,-4.3515,-4.3515,-4.3515,-4.3515,-4.3515,0.0,0.0,0.0,0.0,0.0,-4.3515,-4.3497,-4.3497,-4.3497,-4.3497,-4.348,-4.3394,-4.3287,-4.3142,0.0,0.0,0.0,0.0,0.0,0.0,0.0,0.0,0.0,0.0,-0.3906,-0.3909,-0.3916,-0.3931,-0.392,0.0,0.0,0.0,0.0,0.0,0.0,0.0,0.0,0.0,-0.6075,-0.6869,-0.7666,-0.8469,-0.8716,-0.8812,-0.88,-0.8863,-0.8903,-0.8903,-0.8903,-0.8897,-0.8897,-0.8897,-0.8897,-0.8897,-0.8897,-0.8897,0.0,0.0,0.0,0.0,-0.8897,-0.8914,0.0,0.0,0.0,0.0,0.0,0.0,0.0,0.0,-1.1089,-1.2107,-1.4519,0.0,-1.7967,-1.8651,-1.7775,-1.6716,0.0,0.0,0.0,0.0,0.0,0.0,0.0,0.0,-2.3006,-2.3033,0.0,0.0,0.0,0.0,0.0,0.0,0.0,0.0,0.0,0.0,0.0,0.0,0.0,0.0,0.0,0.0,-4.3699,-4.3515,-4.3515,-4.3515,-4.3515,-4.3515,-4.3515,-4.3515,-4.3515,-4.3515,-4.3515,-4.3515,0.0,0.0,0.0,0.0,-4.3515,-4.3515,-4.3463,-4.3411,-4.3411,-4.3358,-4.325,-4.3215,-4.3031,-4.2788,0.0,0.0,0.0,0.0,0.0,0.0,0.0,0.0,0.0,0.0,-0.3906,-0.3906,-0.3906,-0.3906,-0.3906,0.0,0.0,0.0,0.0,0.0,0.0,0.0,0.0,-0.5583,-0.6689,-0.7233,-0.7884,-0.8652,-0.8753,-0.8788,-0.8748,-0.8829,-0.8857,-0.8857,-0.8891,-0.8897,-0.8897,-0.8897,-0.8897,-0.8897,-0.8897,0.0,0.0,0.0,0.0,0.0,-0.8897,-0.8897,0.0,-0.8981,-0.8998,-0.8998,0.0,0.0,0.0,0.0,-1.11,-1.1707,-1.2882,-1.4019,-1.4981,-1.5472,-1.5299,-1.501,-1.5086,0.0,0.0,0.0,0.0,0.0,0.0,0.0,0.0,0.0,0.0,0.0,0.0,0.0,0.0,0.0,0.0,0.0,0.0,0.0,0.0,0.0,0.0,0.0,0.0,0.0,-4.3515,-4.3515,-4.3515,-4.3515,-4.3515,-4.3515,-4.3515,-4.3515,-4.3515,-4.3515,-4.3515,-4.3515,0.0,0.0,0.0,0.0,-4.3464,-4.334,-4.3287,-4.3251,-4.3178,-4.3087,-4.2957,-4.2899,-4.267,-4.2376,0.0,0.0,0.0,0.0,0.0,0.0,0.0,0.0,0.0,0.0,0.0,0.0,0.0,0.0,0.0,0.0,0.0,0.0,0.0,0.0,0.0,0.0,-0.5316,-0.5915,-0.7181,-0.75,-0.7958,-0.8604,-0.874,-0.8769,-0.8711,-0.8794,-0.8812,-0.8823,-0.8869,-0.8897,-0.8897,-0.8897,-0.8897,-0.8897,-0.8897,0.0,0.0,0.0,0.0,0.0,0.0,0.0,0.0,-0.8964,-0.8987,-0.8987,-0.8981,0.0,0.0,0.0,0.0,0.0,-1.3282,-1.3846,-1.4076,-1.4264,-1.4378,-1.446,-1.4665,0.0,0.0,0.0,0.0,0.0,0.0,0.0,0.0,0.0,0.0,0.0,0.0,0.0,0.0,0.0,0.0,0.0,0.0,0.0,0.0,0.0,0.0,0.0,0.0,0.0,0.0,-4.3515,-4.3515,-4.3515,-4.3515,-4.3515,-4.3515,-4.3515,-4.3515,-4.3515,-4.3515,-4.3515,-4.3515,0.0,0.0,0.0,-4.334,-4.3142,-4.303,-4.2974,-4.2843,-4.2711,-4.2575,-4.2494,-4.2269,-4.1938,0.0,0.0,0.0,0.0,0.0,0.0,0.0,0.0,0.0,0.0,0.0,0.0,0.0,0.0,0.0,0.0,0.0,0.0,0.0,0.0,0.0,-0.6716,-0.6774,-0.6913,-0.7193,-0.7945,-0.842,-0.8606,-0.8728,-0.8804,-0.8781,-0.8857,-0.8891,-0.888,-0.8891,-0.8897,-0.8897,-0.8897,-0.8897,-0.8897,-0.8897,0.0,0.0,0.0,0.0,0.0,0.0,0.0,0.0,-0.8919,-0.8919,-0.8919,-0.8925,0.0,0.0,0.0,0.0,0.0,-1.3346,-1.3642,-1.3877,-1.4685,-1.4929,-1.5198,-1.5989,0.0,0.0,0.0,0.0,0.0,0.0,0.0,0.0,0.0,0.0,0.0,0.0,0.0,0.0,0.0,0.0,0.0,0.0,0.0,0.0,0.0,0.0,0.0,0.0,0.0,0.0,-4.3515,-4.3515,-4.3515,-4.3515,-4.3515,-4.3515,-4.3515,-4.3515,-4.3515,-4.3515,-4.3515,-4.3515,0.0,0.0,-4.334,-4.3214,-4.3013,-4.2768,-4.2496,-4.2358,-4.2195,-4.2008,-4.1881,-4.1705,-4.1458,0.0,0.0,0.0,0.0,0.0,0.0,0.0,0.0,0.0,0.0,0.0,0.0,0.0,0.0,0.0,0.0,0.0,0.0,0.0,0.0,-0.6028,-0.7106,-0.7537,-0.7768,-0.779,-0.8287,-0.8593,-0.8661,-0.8747,-0.88,-0.88,-0.8874,-0.8903,-0.8897,-0.8897,-0.8897,-0.8897,-0.8897,-0.8897,-0.8897,0.0,0.0,0.0,0.0,0.0,0.0,0.0,0.0,0.0,0.0,-0.8897,-0.8965,-0.9377,0.0,0.0,0.0,0.0,0.0,-1.3276,-1.3769,-1.4289,-1.5166,-1.5209,-1.53,-1.6221,0.0,0.0,0.0,0.0,0.0,0.0,0.0,0.0,0.0,0.0,0.0,0.0,0.0,0.0,0.0,0.0,0.0,0.0,0.0,0.0,0.0,0.0,0.0,0.0,0.0,0.0,0.0,-4.3515,-4.3515,-4.3515,-4.3463,-4.3446,-4.3446,-4.3446,-4.3394,-4.3287,-4.3287,-4.3251,-4.3178,0.0,-4.2881,-4.2731,-4.2398,-4.2151,-4.1959,-4.1731,-4.1556,-4.1378,-4.1214,-4.1047,-4.086,0.0,0.0,0.0,0.0,0.0,0.0,0.0,0.0,0.0,0.0,0.0,0.0,0.0,0.0,0.0,0.0,0.0,0.0,0.0,-0.591,-0.6636,-0.7448,-0.803,-0.8354,-0.8345,-0.8533,-0.8661,-0.8717,-0.8794,-0.8818,-0.8829,-0.888,-0.8891,-0.8897,-0.8897,-0.8897,-0.8897,-0.8897,-0.8897,-0.8897,0.0,0.0,0.0,0.0,0.0,0.0,0.0,0.0,0.0,0.0,0.0,0.0,0.0,0.0,0.0,-1.1908,-1.2415,-1.2677,-1.3244,-1.3938,-1.4691,-1.5505,0.0,-1.5765,-1.687,0.0,0.0,0.0,0.0,0.0,0.0,0.0,0.0,0.0,0.0,0.0,0.0,0.0,0.0,0.0,0.0,0.0,0.0,0.0,0.0,0.0,0.0,0.0,0.0,0.0,0.0,0.0,-4.3515,-4.3515,-4.3515,-4.3429,-4.3376,-4.334,-4.3305,-4.3196,-4.3012,-4.2993,-4.2936,-4.2824,-4.2611,-4.2434,-4.2295,-4.1817,-4.1552,-4.1431,-4.1163,-4.1001,-4.0877,-4.068,-4.0534,-4.0436,0.0,0.0,0.0,0.0,0.0,0.0,0.0,0.0,0.0,0.0,0.0,0.0,0.0,0.0,0.0,0.0,0.0,0.0,0.0,-0.675,-0.747,-0.8278,-0.8431,-0.8486,-0.8485,-0.8622,-0.8734,-0.8804,-0.8863,-0.8897,-0.8891,-0.8891,-0.8897,-0.8897,-0.8897,-0.8897,-0.8897,-0.8897,-0.8897,-0.8897,-0.8897,0.0,0.0,0.0,0.0,0.0,0.0,0.0,0.0,0.0,0.0,0.0,0.0,0.0,-1.118,-1.2043,-1.2778,-1.3328,-1.3396,-1.3938,-1.4691,-1.5505,-1.6284,0.0,-1.892,0.0,0.0,0.0,0.0,0.0,0.0,0.0,0.0,0.0,0.0,0.0,0.0,0.0,0.0,0.0,0.0,0.0,0.0,0.0,0.0,0.0,0.0,0.0,0.0,0.0,0.0,0.0,0.0,-4.3515,-4.3515,-4.3429,-4.334,-4.3214,-4.3031,-4.2863,-4.2731,-4.267,-4.2629,-4.2609,-4.2356,-4.2192,-4.2082,-4.1613,-4.126,-4.1024,-4.0823,-4.0655,-4.0534,-4.0362,-4.033,-4.0305,0.0,0.0,0.0,0.0,0.0,0.0,0.0,0.0,0.0,0.0,0.0,-0.462,-0.462,0.0,0.0,0.0,0.0,0.0,0.0,-0.7164,-0.7688,-0.8482,-0.8542,-0.8598,-0.8687,-0.8745,-0.8793,-0.8863,-0.8891,-0.8903,-0.8897,-0.8897,-0.8897,-0.8897,-0.8897,-0.8897,-0.8897,-0.8897,-0.8897,-0.8897,-0.8897,-0.8897,0.0,0.0,0.0,0.0,0.0,0.0,0.0,0.0,-0.8897,-0.9117,-1.0301,-1.0876,-1.1357,-1.2609,-1.3168,-1.3396,-1.3396,-1.4268,-1.5266,-1.5566,0.0,0.0,0.0,0.0,0.0,0.0,0.0,0.0,0.0,0.0,0.0,0.0,0.0,0.0,0.0,0.0,0.0,0.0,0.0,0.0,0.0,0.0,0.0,0.0,0.0,0.0,0.0,0.0,0.0,0.0,0.0,-4.3214,-4.3142,-4.2975,-4.2805,-4.2577,-4.2671,-4.2476,-4.2092,-4.2002,-4.1892,-4.1727,-4.1534,-4.1401,-4.1265,-4.0977,-4.0734,-4.0541,-4.0387,-4.0313,-4.0263,-4.0188,-4.0188,-4.0163,0.0,0.0,0.0,0.0,0.0,0.0,0.0,0.0,-0.4583,0.0,0.0,0.0,0.0,-0.5758,0.0,0.0,0.0,0.0,-0.7331,-0.76,-0.8002,-0.8614,-0.8638,-0.8699,-0.8822,-0.8828,-0.8857,-0.8903,-0.8903,-0.8897,-0.8897,-0.8897,-0.8897,-0.8897,-0.8897,-0.8897,-0.8897,-0.8897,-0.8897,-0.8897,-0.8897,-0.8897,0.0,0.0,0.0,0.0,0.0,0.0,0.0,0.0,-0.8897,-0.9168,-1.0629,-1.1103,-1.1408,-1.2956,-1.3396,-1.3396,-1.3396,-1.4471,-1.5595,0.0,0.0,0.0,0.0,0.0,0.0,0.0,0.0,0.0,0.0,0.0,0.0,0.0,0.0,0.0,0.0,0.0,0.0,0.0,0.0,0.0,0.0,0.0,0.0,0.0,0.0,0.0,0.0,0.0,0.0,0.0,0.0,0.0,-4.2805,-4.2573,-4.2335,-4.2113,-4.213,-4.1941,-4.1534,-4.1431,-4.1272,-4.1111,-4.0971,-4.0836,-4.0765,-4.0517,-4.0362,-4.0213,-4.0138,-4.0096,-4.0096,-4.0096,-4.0096,-4.0096,0.0,0.0,0.0,0.0,0.0,0.0,0.0,0.0,-0.6074,-0.6002,-0.6059,0.0,0.0,0.0,0.0,0.0,0.0,0.0,-0.7497,-0.8139,-0.8565,-0.8693,-0.8699,-0.8759,-0.8903,-0.8903,-0.8903,-0.8897,-0.8897,-0.8897,-0.8897,-0.8897,-0.8897,-0.8897,-0.8897,-0.8897,-0.8897,-0.8897,-0.8897,-0.8914,-0.8914,-0.8914,-0.8914,0.0,0.0,0.0,0.0,0.0,0.0,0.0,-0.8914,-0.9185,-1.0646,-1.1113,-1.1408,-1.2956,-1.3396,-1.3396,-1.3396,-1.4488,0.0,0.0,0.0,0.0,0.0,0.0,0.0,0.0,0.0,0.0,0.0,0.0,0.0,0.0,0.0,0.0,0.0,0.0,0.0,0.0,0.0,0.0,0.0,0.0,0.0,0.0,0.0,0.0,0.0,0.0,0.0,0.0,0.0,0.0,-4.2589,-4.2335,-4.2074,-4.1864,-4.1401,-4.1192,-4.1186,-4.0989,-4.0894,-4.0871,-4.0745,-4.0697,-4.0673,-4.0404,-4.0213,-4.0096,-4.0096,-4.0096,-4.0096,-4.0096,-4.0096,-4.0096,0.0,0.0,0.0,0.0,0.0,0.0,0.0,0.0,-0.6166,-0.6146,-0.6572,0.0,0.0,0.0,0.0,0.0,0.0,0.0,-0.8259,-0.8501,-0.8687,-0.876,-0.8765,-0.8817,-0.8903,-0.8908,-0.8903,-0.8897,-0.8897,-0.8897,-0.8897,-0.8897,-0.8897,-0.8897,-0.8897,-0.8897,-0.8897,-0.8897,-0.919,-0.9675,-0.9675,-0.9675,-0.9675,0.0,0.0,0.0,0.0,0.0,0.0,0.0,0.0,0.0,-1.162,-1.1942,-1.2135,-1.31,-1.3396,-1.3396,-1.3396,-1.5605,0.0,0.0,0.0,0.0,0.0,0.0,0.0,0.0,0.0,0.0,0.0,0.0,0.0,0.0,0.0,0.0,0.0,0.0,0.0,0.0,0.0,0.0,0.0,0.0,0.0,0.0,0.0,0.0,0.0,0.0,0.0,0.0,0.0,0.0,-4.1618,-4.1423,-4.1026,-4.0351,-4.0066,-4.0259,-4.0847,-4.0583,-4.0436,-4.0337,-4.0313,-4.0288,-4.0288,-4.0188,-4.0138,-4.0096,-4.0096,-4.0096,-4.0096,-4.0096,-4.0096,-4.0096,0.0,0.0,0.0,0.0,0.0,0.0,-0.7023,-0.7029,-0.7074,-0.7074,-0.7427,-0.7667,0.0,0.0,0.0,-0.8415,-0.846,0.0,-0.8675,-0.8711,-0.8764,-0.884,-0.8846,-0.8863,-0.8903,-0.8903,-0.8897,-0.8897,-0.8897,-0.8897,-0.8897,-0.8897,-0.8897,-0.8897,-0.8897,-0.8897,-0.8914,-0.9213,-0.9591,-1.0035,-1.0328,-1.043,-1.043,0.0,0.0,0.0,0.0,0.0,0.0,0.0,0.0,0.0,-1.2043,-1.2906,-1.376,-1.4488,-1.4717,-1.4768,-1.5063,0.0,0.0,0.0,0.0,0.0,0.0,0.0,0.0,0.0,0.0,0.0,0.0,0.0,0.0,0.0,0.0,0.0,0.0,0.0,0.0,0.0,0.0,0.0,0.0,0.0,0.0,0.0,0.0,0.0,0.0,0.0,0.0,0.0,0.0,0.0,-4.062,-4.0481,-4.0008,-3.9181,-3.8984,-3.9146,-3.9679,-3.9751,-3.9739,-3.969,-3.9977,-3.9943,-3.9673,-3.9673,-3.9673,-3.9673,-3.9673,-3.9842,-4.0096,-4.0096,-4.0096,-4.0096,0.0,0.0,-0.7947,-0.8009,0.0,0.0,-0.8323,-0.837,-0.8422,-0.8428,-0.8422,-0.8422,0.0,0.0,0.0,-0.8606,-0.862,-0.8681,-0.8793,-0.8815,-0.8834,-0.8903,-0.8908,-0.8903,-0.8897,-0.8897,-0.8897,-0.8897,-0.8897,-0.8897,-0.8897,-0.8897,-0.8931,-0.8993,-0.8993,-0.9032,-0.9151,-0.9827,-1.0136,-1.0278,-1.0944,-1.1214,-1.1214,-1.1214,0.0,0.0,0.0,0.0,0.0,0.0,0.0,0.0,-1.2162,-1.3921,-1.5842,-1.6502,-1.6699,-1.6857,0.0,0.0,0.0,0.0,0.0,0.0,0.0,0.0,0.0,0.0,0.0,0.0,0.0,0.0,0.0,0.0,0.0,0.0,0.0,0.0,0.0,0.0,0.0,0.0,0.0,0.0,0.0,0.0,0.0,0.0,0.0,0.0,0.0,0.0,0.0,0.0,-3.9543,-3.949,-3.9043,0.0,-3.8076,-3.7925,-3.7891,-3.8604,-3.8903,-3.8937,-3.9622,-3.9537,-3.8903,-3.8903,-3.8903,-3.8903,-3.8971,-3.9419,-4.0011,-4.0011,-4.0011,-3.9994,0.0,0.0,-0.8149,-0.8214,0.0,0.0,-0.8518,-0.8549,-0.8558,-0.8561,-0.8565,-0.8562,-0.8562,-0.8554,0.0,-0.8672,-0.8729,-0.8793,-0.8874,-0.888,-0.888,-0.8903,-0.8903,-0.8908,-0.8897,-0.8897,-0.8897,-0.8897,-0.8897,-0.8897,-0.8897,-0.8897,-0.9207,-0.977,-0.977,-1.0081,-1.0646,-1.0791,-1.1231,-1.1823,-1.1975,-1.2043,-1.2043,-1.2043,-1.1654,0.0,0.0,0.0,0.0,0.0,0.0,0.0,-1.3108,-1.4674,-1.6485,-1.6648,-1.6699,-1.6857,0.0,0.0,0.0,0.0,0.0,0.0,0.0,0.0,0.0,0.0,0.0,0.0,0.0,0.0,0.0,0.0,0.0,0.0,0.0,0.0,0.0,0.0,0.0,0.0,0.0,0.0,0.0,0.0,0.0,0.0,0.0,0.0,0.0,0.0,0.0,-3.8564,-3.8292,-3.8269,-3.7895,0.0,-3.7102,-3.6751,-3.6169,-3.7516,-3.8142,-3.8159,-3.8311,-3.8278,-3.8142,-3.8142,-3.8142,-3.8193,-3.8768,-3.9089,-3.9225,-3.9225,-3.9225,-3.914,0.0,0.0,0.0,0.0,0.0,0.0,0.0,0.0,-0.8703,-0.87,-0.8693,-0.8697,-0.8693,-0.8699,0.0,0.0,-0.8823,-0.8868,-0.8903,-0.8908,-0.8897,-0.8897,-0.8897,-0.8897,-0.8897,-0.8897,-0.8897,-0.8897,-0.8897,-0.8897,-0.8914,-0.9258,-0.9641,-1.0018,-1.0362,-1.0741,-1.1137,-1.1502,-1.1925,-1.2331,-1.2677,-1.2829,-1.2829,-1.2829,-1.2575,-1.2203,-1.2203,0.0,0.0,0.0,0.0,0.0,0.0,0.0,-1.6699,-1.6699,-1.6699,-1.7179,0.0,0.0,0.0,0.0,0.0,0.0,0.0,0.0,0.0,0.0,0.0,0.0,0.0,0.0,0.0,0.0,0.0,0.0,0.0,0.0,0.0,0.0,0.0,0.0,0.0,0.0,0.0,0.0,0.0,0.0,0.0,0.0,0.0,0.0,-3.8007,-3.779,-3.7381,-3.7364,-3.6992,-3.6231,-3.6231,-3.6011,-3.5633,-3.684,-3.7567,-3.7905,-3.7905,-3.7702,-3.7364,-3.7364,-3.7364,-3.7398,-3.7787,-3.8142,-3.8464,-3.8464,-3.8464,-3.8413,0.0,0.0,0.0,0.0,0.0,0.0,0.0,0.0,0.0,-0.8806,-0.88,-0.881,-0.8812,-0.8822,-0.884,0.0,0.0,0.0,-0.8897,-0.8897,-0.8897,-0.8897,-0.8897,-0.8897,-0.8897,-0.8897,-0.8897,-0.8897,-0.9304,-0.9552,-0.9676,-0.9895,-1.0136,-1.0423,-1.1028,-1.1391,-1.1543,-1.222,-1.2483,-1.2534,-1.3151,-1.3396,-1.3396,-1.3396,-1.3396,-1.3396,-1.3396,-1.3396,-1.3396,-1.3396,0.0,0.0,0.0,0.0,-1.6699,-1.6699,-1.6699,-1.7484,0.0,0.0,0.0,0.0,0.0,0.0,0.0,0.0,0.0,0.0,0.0,0.0,0.0,0.0,0.0,0.0,0.0,0.0,0.0,0.0,0.0,0.0,0.0,0.0,0.0,0.0,0.0,0.0,0.0,0.0,0.0,0.0,-3.7753,-3.7516,-3.7493,-3.7212,-3.6609,-3.6586,-3.6265,-3.56,-3.56,-3.56,-3.5616,-3.6282,-3.6924,-3.7493,-3.7493,-3.7161,-3.6586,-3.6586,-3.6586,-3.6609,-3.6745,-3.7161,-3.7719,-3.7679,-3.7696,-3.7638,0.0,0.0,0.0,0.0,0.0,0.0,0.0,0.0,0.0,0.0,-0.884,-0.8829,-0.8874,-0.8891,-0.8886,-0.8903,-0.8908,-0.8891,-0.8897,0.0,0.0,-0.8897,-0.8897,-0.8897,-0.8897,-0.8897,-0.8897,-0.8897,-1.0883,-1.2169,-1.2753,-1.0876,-1.0717,-1.1992,-1.2094,-1.2491,-1.3108,-1.321,-1.3261,-1.3261,-1.3362,-1.3396,-1.3396,-1.3396,-1.3396,-1.3396,-1.3396,-1.3396,-1.3396,-1.3396,-1.3396,0.0,0.0,0.0,0.0,-1.6699,-1.6699,0.0,0.0,0.0,0.0,0.0,0.0,0.0,0.0,0.0,0.0,0.0,0.0,0.0,0.0,0.0,0.0,0.0,0.0,0.0,0.0,0.0,0.0,0.0,0.0,0.0,0.0,0.0,0.0,0.0,0.0,0.0,0.0,-3.6971,-3.6643,-3.5921,-3.5904,-3.5853,-3.5752,-3.5752,-3.5701,-3.56,-3.56,-3.56,-3.56,-3.5701,-3.5802,-3.5904,-3.5904,-3.5853,-3.5752,-3.5752,-3.5752,-3.5842,-3.6541,-3.6863,-3.6924,-3.6831,-3.6767,-3.666,0.0,0.0,0.0,0.0,0.0,0.0,0.0,0.0,0.0,0.0,0.0,-0.8875,-0.8891,-0.8897,-0.8897,-0.8897,-0.8897,-0.8897,-0.8897,-0.8897,-0.8897,-0.8897,-0.8897,-0.8897,-0.8897,-0.8897,-0.8897,-0.8897,-1.1188,-1.2889,-1.3988,-1.2982,-1.31,-1.4107,-1.3286,-1.3108,-1.3396,-1.3396,-1.3396,-1.3396,-1.3396,-1.3396,-1.3396,-1.3396,-1.3396,-1.3396,-1.3396,-1.3396,-1.3396,-1.3396,-1.3396,-1.3396,-1.3396,0.0,0.0,0.0,0.0,0.0,0.0,0.0,0.0,0.0,0.0,0.0,0.0,0.0,0.0,0.0,0.0,0.0,0.0,0.0,0.0,0.0,0.0,0.0,0.0,0.0,0.0,0.0,0.0,0.0,0.0,0.0,0.0,0.0,0.0,0.0,-3.618,-3.6129,-3.5977,-3.5616,-3.56,-3.5397,-3.4996,-3.4979,-3.4776,-3.4366,-3.4366,-3.4366,-3.4366,-3.4366,-3.4822,-3.56,-3.56,-3.56,-3.56,-3.56,-3.56,-3.5633,-3.5994,-3.6129,-3.6107,-3.6009,-3.594,-3.5796,0.0,0.0,0.0,0.0,0.0,0.0,0.0,0.0,0.0,0.0,0.0,-0.8897,-0.8897,0.0,0.0,0.0,-0.8897,-0.8897,-0.8897,-0.8897,-0.8897,-0.8897,-0.8897,-0.8897,-0.8897,-0.8897,-0.8897,-0.8897,-1.1188,-1.305,-1.4504,-1.4504,-1.4994,-1.5808,-1.4133,-1.3396,-1.3396,-1.3396,-1.3396,-1.3396,-1.3396,-1.3506,-1.3676,-1.3676,-1.4149,-1.4793,-1.4793,-1.4793,-1.4793,-1.4793,-1.442,-1.3929,-1.3743,-1.3676,0.0,0.0,0.0,0.0,0.0,0.0,0.0,0.0,0.0,0.0,0.0,0.0,0.0,0.0,0.0,0.0,0.0,0.0,0.0,0.0,0.0,0.0,0.0,0.0,0.0,0.0,0.0,0.0,0.0,0.0,0.0,0.0,0.0,0.0,-3.5633,-3.56,-3.5515,-3.5329,-3.5312,-3.4979,-3.4218,-3.4218,-3.3947,-3.3406,-3.3406,-3.3406,-3.3406,-3.3406,-3.4015,-3.5042,-3.5042,-3.5042,-3.5042,-3.5042,-3.5143,-3.5312,-3.5312,-3.5408,-3.5571,-3.5429,-3.5268,-3.5041,0.0,0.0,0.0,0.0,0.0,0.0,0.0,0.0,0.0,0.0,0.0,-0.8897,-0.8897,-0.8897,-0.8897,-0.8897,-0.8897,-0.8897,-0.8897,-0.8897,-0.8897,-0.8897,-0.8897,0.0,-0.8897,-0.8897,-0.8897,-0.8897,-1.1188,-1.305,-1.4504,-1.4504,-1.5274,-1.6546,-1.4378,-1.3396,-1.3396,-1.3396,-1.3396,-1.3396,-1.3396,-1.3828,-1.4436,-1.4436,-1.6187,0.0,0.0,0.0,-1.8618,-1.8618,-1.7219,-1.5358,-1.4656,-1.4436,-1.4301,0.0,0.0,0.0,0.0,0.0,0.0,0.0,0.0,0.0,0.0,0.0,0.0,0.0,0.0,0.0,0.0,0.0,0.0,0.0,0.0,0.0,0.0,0.0,0.0,0.0,0.0,0.0,0.0,0.0,0.0,0.0,0.0,0.0,-3.56,-3.56,-3.5278,-3.4573,-3.4556,-3.4201,-3.3474,-3.3457,-3.344,-3.3406,-3.3406,-3.3406,-3.3406,-3.3406,-3.344,-3.3525,-3.3525,-3.3525,-3.3525,-3.3525,-3.3931,-3.4556,-3.4556,-3.4947,-3.5469,-3.5222,-3.4875,-3.4472,0.0,0.0,0.0,0.0,0.0,0.0,0.0,0.0,0.0,0.0,0.0,0.0,0.0,-0.8897,-0.8897,-0.8897,-0.8897,-0.8897,-0.8897,-0.8897,-0.8897,-0.8897,-0.8897,-0.8897,-0.8897,-0.8897,-0.8897,-0.8897,-1.1669,-1.3515,-1.452,-1.4977,-1.5731,-1.6631,-1.4885,-1.4107,-1.4141,-1.4597,-1.481,-1.481,-1.481,-1.4969,-1.5358,0.0,0.0,0.0,0.0,0.0,0.0,-1.8894,-1.7433,-1.5544,-1.5291,-1.4875,-1.4351,-1.3625,0.0,0.0,0.0,0.0,0.0,0.0,0.0,0.0,0.0,0.0,0.0,0.0,0.0,0.0,0.0,0.0,0.0,0.0,0.0,0.0,0.0,0.0,0.0,0.0,0.0,0.0,0.0,0.0,0.0,0.0,0.0,0.0,-3.56,-3.5165,-3.4776,-3.4506,-3.4032,-3.344,-3.2696,-3.2222,-3.1985,-3.1985,-3.1985,-3.1985,-3.1985,-3.1985,-3.1985,-3.1985,-3.1985,-3.2502,-3.3334,-3.3334,-3.3383,-3.3527,-3.3991,-3.4275,-3.4439,-3.4646,-3.4521,-3.4176,0.0,0.0,0.0,-0.8897,0.0,-0.8897,-0.8897,-0.8897,-0.8999,-0.9241,0.0,0.0,0.0,0.0,-0.9636,-0.9636,-0.9636,-0.9636,-0.9636,-0.9636,-0.9636,-0.9636,-0.9636,-0.9636,-0.9636,-0.9636,-0.9636,-0.9636,-1.1652,-1.3015,-1.3777,-1.4259,-1.4894,-1.5581,-1.5088,-1.4723,-1.4554,0.0,0.0,-1.5595,-1.5595,-1.59,-1.6509,0.0,0.0,0.0,0.0,0.0,0.0,0.0,0.0,0.0,0.0,-1.546,-1.4774,-1.4285,0.0,0.0,0.0,0.0,0.0,0.0,0.0,0.0,0.0,0.0,0.0,0.0,0.0,0.0,0.0,0.0,0.0,0.0,0.0,0.0,0.0,0.0,0.0,0.0,0.0,0.0,0.0,0.0,0.0,0.0,0.0,0.0,-3.56,-3.4895,-3.4269,-3.3783,-3.3051,-3.2425,-3.1938,-3.1427,-3.119,-3.119,-3.119,-3.119,-3.119,-3.1151,-3.1131,-3.1131,-3.1072,-3.1604,-3.253,-3.2509,-3.2479,-3.253,-3.3233,-3.3512,-3.3599,-3.4097,-3.4034,-3.3585,-0.8897,-0.8897,-0.8897,-0.8897,-0.8914,-0.8931,-0.8931,-0.8948,-0.923,-0.9939,0.0,0.0,0.0,0.0,0.0,-1.1103,-1.1103,-1.1103,-1.1103,-1.1103,-1.1103,-1.1103,-1.1103,-1.1103,-1.1103,-1.1103,-1.1103,-1.1103,-1.1113,-1.1536,-1.2297,-1.2314,-1.2711,-1.3464,-1.4945,-1.5206,-1.4588,0.0,-1.5663,-1.5663,0.0,-1.6559,-1.7834,0.0,0.0,0.0,-2.5947,-2.5693,0.0,0.0,0.0,0.0,0.0,-1.6214,-1.5629,-1.5595,0.0,0.0,0.0,0.0,0.0,0.0,0.0,0.0,0.0,0.0,0.0,0.0,0.0,0.0,0.0,0.0,0.0,0.0,0.0,0.0,0.0,0.0,0.0,0.0,0.0,0.0,0.0,0.0,0.0,0.0,0.0,-3.5583,-3.5566,-3.4844,-3.3783,-3.231,-3.1582,-3.119,-3.119,-3.119,-3.119,-3.119,-3.119,-3.119,-3.119,-3.1055,-3.0995,-3.0995,-3.0773,-3.0794,-3.0975,-3.0895,-3.1129,-3.1598,-3.2226,-3.2658,-3.3008,-3.3634,-3.3403,-3.2749,-0.8897,-0.8897,-0.8897,-0.8897,-0.9343,-0.9686,-0.9686,-1.0149,-1.0561,0.0,0.0,0.0,-1.1086,-1.1103,-1.1103,-1.1103,-1.1103,-1.1103,-1.1103,-1.1103,-1.1103,-1.1103,-1.1103,-1.1103,-1.1103,-1.1103,-1.1103,-1.1103,-1.1671,-1.2077,-1.2314,-1.2846,-1.3202,-1.3464,-1.4945,-1.5494,-1.5375,-1.665,0.0,0.0,-1.7777,-1.8234,0.0,0.0,0.0,0.0,0.0,-2.7807,0.0,0.0,-2.4763,-2.0538,0.0,0.0,0.0,0.0,0.0,0.0,-1.5125,0.0,0.0,0.0,0.0,0.0,0.0,0.0,0.0,0.0,0.0,0.0,0.0,0.0,0.0,0.0,0.0,0.0,0.0,0.0,0.0,0.0,0.0,0.0,0.0,0.0,0.0,0.0,-3.56,-3.5363,-3.4827,-3.3613,-3.2479,-3.1532,-3.1309,-3.119,-3.119,-3.119,-3.119,-3.119,-3.119,-3.119,-3.119,-3.1055,-3.0975,-3.0912,-3.0671,-3.0447,-3.0284,-3.0262,-3.012,-3.0052,-3.1094,-3.1467,-3.1527,-3.2594,-3.2765,-3.2465,-0.8897,-0.9145,-0.936,-0.936,-0.9963,-1.0463,-1.0463,-1.0825,-1.1214,0.0,0.0,0.0,-1.2034,-1.2051,-1.2051,-1.2051,-1.2051,-1.2051,-1.2051,-1.2051,-1.2051,-1.2051,-1.2051,-1.2051,-1.2051,-1.2051,-1.2051,-1.2051,-1.2525,-1.2762,-1.2778,-1.321,-1.3557,-1.3904,-1.5071,-1.5774,-1.6147,0.0,0.0,0.0,-1.8724,0.0,0.0,-2.1817,-2.3241,0.0,0.0,0.0,-2.7402,-2.8941,-2.6471,0.0,0.0,0.0,0.0,0.0,0.0,0.0,0.0,0.0,0.0,0.0,0.0,0.0,-1.621,-1.8099,0.0,0.0,0.0,0.0,0.0,0.0,0.0,0.0,0.0,0.0,0.0,0.0,0.0,0.0,0.0,0.0,0.0,0.0,0.0,0.0,-3.467,-3.437,-3.363,-3.2767,-3.1972,-3.1207,-3.119,-3.119,-3.119,-3.119,-3.119,-3.119,-3.1151,-3.1112,-3.1112,-3.0838,-3.0675,-3.0589,-3.0172,-2.9832,-2.9528,-2.9387,-2.925,-2.9271,-3.0476,-3.0801,-3.0706,-3.1987,-3.2315,-3.2122,0.0,-0.9607,-1.0119,-1.0119,-1.0741,-1.1231,-1.1231,-1.1367,-1.1722,0.0,-1.2618,-1.2931,-1.3583,-1.365,-1.365,-1.365,-1.365,-1.365,-1.365,-1.365,-1.365,-1.365,-1.3566,-1.3523,-1.3523,-1.3447,-1.3396,-1.3396,-1.3396,-1.3396,-1.3396,-1.3481,-1.387,-1.4537,-1.5358,-1.6096,-1.6749,0.0,0.0,-1.9401,-1.9401,-2.0429,0.0,0.0,-2.3695,0.0,-2.7739,-2.8297,-2.85,-2.9803,-2.7351,0.0,0.0,0.0,0.0,0.0,-1.7626,0.0,0.0,0.0,0.0,0.0,0.0,0.0,-1.6243,-1.7875,-1.9621,0.0,0.0,0.0,0.0,0.0,0.0,0.0,0.0,0.0,0.0,0.0,0.0,0.0,0.0,0.0,0.0,0.0,-3.3406,-3.3406,-3.3322,-3.2983,-3.2344,-3.2226,-3.1887,-3.1207,-3.119,-3.1171,-3.1171,-3.1151,-3.1151,-3.1151,-3.0995,-3.0935,-3.0915,-3.0456,-3.022,-3.0103,-2.9515,-2.9106,-2.8834,-2.8501,-2.8534,-2.8928,-3.0117,-3.0397,-3.0289,-3.1555,-3.1892,-3.1756,-0.9787,-1.0386,-1.0893,-1.0893,-1.1536,-1.206,-1.206,-1.3067,-1.3895,-1.4047,-1.4597,-1.5003,-1.5165,-1.5182,-1.5182,-1.5182,-1.5182,-1.5182,-1.5182,-1.5182,-1.5182,-1.5182,-1.4597,-1.4284,-1.4284,-1.3709,-1.3396,-1.3396,-1.3396,-1.3396,-1.3413,-1.4005,-1.4368,-1.4554,-1.5893,-1.658,-1.68,0.0,0.0,-2.2513,-2.2513,0.0,-2.6573,-2.7233,-2.7842,-2.862,-3.0685,-3.143,-3.1396,0.0,-2.8789,-2.5642,0.0,0.0,0.0,0.0,0.0,0.0,0.0,0.0,0.0,0.0,0.0,0.0,-1.6505,-1.7969,-1.9535,0.0,0.0,0.0,0.0,0.0,0.0,0.0,0.0,0.0,0.0,0.0,0.0,0.0,0.0,0.0,0.0,0.0,-3.3406,-3.3406,-3.2848,-3.2462,-3.231,-3.1752,-3.1343,-3.119,-3.1092,-3.1035,-3.1035,-3.0875,-3.0794,-3.081,-3.0671,-3.0551,-3.0435,-3.0182,-2.9924,-2.97,-2.9182,-2.8834,-2.8574,-2.8317,-2.821,-2.8238,-2.8905,-2.9418,-2.9805,-3.0556,-3.1146,-3.1568,-1.0548,-1.1164,-1.1705,-1.1705,-1.2635,-1.3405,-1.3405,-1.4334,-1.5054,-1.5054,-1.5375,-1.5595,-1.5595,-1.5595,-1.5595,-1.5595,-1.5595,-1.5595,-1.5595,-1.5595,-1.5595,-1.5595,-1.5257,-1.5054,-1.5054,-1.4691,-1.4319,-1.3954,-1.3954,-1.3954,-1.3954,-1.4334,-1.4892,-1.5629,-1.6367,-1.7122,0.0,0.0,-2.0852,-2.3949,-2.3949,0.0,-2.8433,-2.8857,-2.8993,-2.9297,-3.1515,-3.3021,-3.3711,-3.2259,-3.0753,0.0,0.0,-2.2919,-2.1431,0.0,-1.8768,-1.869,0.0,0.0,0.0,-1.7883,0.0,0.0,0.0,-1.8233,0.0,0.0,0.0,0.0,0.0,0.0,0.0,0.0,0.0,0.0,0.0,0.0,0.0,0.0,0.0,0.0,0.0,0.0,-3.2307,-3.2307,-3.1952,-3.1752,-3.1752,-3.1393,-3.119,-3.119,-3.1072,-3.0975,-3.0952,-3.0712,-3.0572,-3.0493,-3.0262,-3.0135,-3.0032,-2.9639,-2.9348,-2.9111,-2.8295,-2.7842,-2.7612,-2.7109,-2.7064,-2.7399,-2.8419,-2.8918,-2.9175,-2.9804,-3.0447,-3.0987,-1.1357,-1.1966,-1.2551,-1.2703,-1.3709,-1.4554,-1.4689,-1.5341,-1.59,-1.6204,-1.661,-1.6948,-1.7084,-1.7473,-1.7726,-1.7726,-1.7726,-1.7507,-1.6931,-1.6898,-1.683,-1.6678,-1.613,-1.6001,-1.6441,-1.5883,-1.5308,-1.4706,-1.4706,-1.4706,-1.4706,-1.4858,-1.5561,-1.6716,-1.7004,-1.7788,0.0,0.0,0.0,-2.4541,0.0,-2.6826,-2.8993,-2.8993,-2.9264,-2.9924,-3.2141,-3.3812,-3.4692,-3.2903,0.0,-3.0937,-2.6707,-2.4829,0.0,0.0,0.0,0.0,0.0,0.0,0.0,0.0,0.0,-1.7302,0.0,0.0,0.0,0.0,0.0,0.0,0.0,0.0,0.0,0.0,0.0,0.0,0.0,0.0,0.0,0.0,0.0,0.0,0.0,0.0,-3.0509,-3.049,-3.047,-3.047,-3.0451,-3.0836,-3.1072,-3.1072,-3.0915,-3.0814,-3.0733,-3.0426,-3.0199,-3.0059,-2.9733,-2.9572,-2.9528,-2.902,-2.8678,-2.8365,-2.7376,-2.684,-2.657,-2.5886,-2.5929,-2.6551,-2.7876,-2.8456,-2.8667,-2.9205,-2.9789,-3.0328,-1.228,-1.2762,-1.3472,-1.4132,-1.4385,-1.4723,-1.5375,-1.6096,-1.7044,-1.8347,-2.0281,-2.1786,0.0,0.0,0.0,0.0,0.0,0.0,-2.1718,0.0,-2.1245,-2.0581,-1.7991,-1.749,-1.9461,-1.6948,-1.5561,-1.5477,-1.5477,-1.5477,-1.5494,-1.6147,-1.6546,-1.6766,-1.8076,0.0,0.0,0.0,-2.4101,0.0,-2.7402,-2.8688,0.0,-2.8993,-3.0211,-3.2209,-3.4438,-3.4134,-3.2649,0.0,-3.1007,-2.9327,0.0,-2.7053,0.0,0.0,0.0,0.0,0.0,0.0,0.0,0.0,-1.8173,0.0,0.0,0.0,0.0,0.0,0.0,0.0,0.0,0.0,0.0,0.0,0.0,0.0,0.0,0.0,0.0,0.0,0.0,0.0,0.0,0.0,0.0,-2.7905,-2.7868,-2.7814,-2.7761,-2.9566,-3.0589,-3.0589,-3.0401,-3.0215,-3.0097,-2.9671,-2.9364,-2.9234,-2.8943,-2.8756,-2.8654,-2.8525,-2.8057,-2.7355,-2.697,-2.6473,-2.59,-2.5691,-2.5636,-2.5794,-2.6551,-2.757,-2.8607,-2.8682,-2.9131,-2.9711,-1.3168,-1.3532,-1.4141,-1.4453,-1.5206,-1.5876,-1.6197,-1.723,-1.8211,-1.8821,-2.0099,0.0,0.0,0.0,0.0,0.0,0.0,-2.681,0.0,0.0,-2.2801,-2.2494,-1.9993,-1.8848,-1.9338,-1.8149,-1.7111,-1.6231,-1.6231,-1.6231,-1.6248,-1.6982,-1.7568,-1.8025,-1.908,0.0,-2.2257,0.0,0.0,0.0,0.0,0.0,0.0,-2.8993,-3.0364,-3.2598,-3.4827,-3.4163,-3.2452,0.0,-3.2622,0.0,0.0,0.0,0.0,0.0,0.0,0.0,0.0,0.0,0.0,0.0,0.0,0.0,0.0,0.0,-1.5927,0.0,0.0,0.0,0.0,0.0,0.0,0.0,0.0,0.0,0.0,0.0,0.0,0.0,0.0,0.0,0.0,0.0,0.0,0.0,0.0,-2.7158,-2.7139,-2.9156,-3.0338,-3.0338,-3.0087,-2.9897,-2.9788,-2.9296,-2.9013,-2.8858,-2.8566,-2.8374,-2.8326,-2.7725,-2.7285,-2.6894,-2.5935,-2.5355,-2.507,-2.462,-2.4687,-2.5053,-2.5322,-2.6258,-2.7485,-2.7884,-2.8427,-2.9011,-1.4217,-1.4428,-1.4858,-1.5071,-1.5994,-1.6851,-1.723,-1.8741,-2.0044,0.0,0.0,0.0,-2.7232,-2.8096,0.0,0.0,0.0,-3.0511,0.0,0.0,-2.5744,0.0,0.0,0.0,-2.1038,-1.9824,-1.8674,-1.7591,-1.7591,-1.7591,-1.7619,-1.8155,-1.8679,-1.9232,0.0,-2.1549,-2.3644,0.0,0.0,-2.813,-2.8756,-2.8993,-2.9077,-2.967,-3.0905,-3.2598,-3.4827,-3.4119,-3.2399,-3.3967,-3.3364,0.0,-3.1764,0.0,0.0,0.0,0.0,0.0,-2.1922,0.0,0.0,0.0,0.0,0.0,0.0,0.0,0.0,0.0,0.0,0.0,0.0,0.0,0.0,0.0,0.0,0.0,0.0,0.0,0.0,0.0,0.0,0.0,0.0,0.0,0.0,0.0,0.0,0.0,-2.4741,-2.7924,-2.9529,-2.9005,-2.9283,-2.9393,-2.9273,-2.8873,-2.859,-2.8446,-2.8171,-2.8039,-2.8008,-2.7342,-2.6823,-2.6408,-2.5338,-2.4664,-2.4291,-2.3804,-2.3894,-2.4335,-2.453,-2.5307,-2.6408,-2.7091,-2.7764,-2.8323,-1.5544,-1.5544,-1.5791,-1.6502,-1.6665,-1.7179,-1.8618,-2.0737,0.0,0.0,0.0,0.0,0.0,0.0,0.0,0.0,0.0,-3.7398,-3.4472,0.0,-3.1701,0.0,0.0,-2.4272,0.0,-2.2195,-1.9934,-1.9883,-1.9883,-1.9883,-1.9883,-1.9917,-1.9934,-2.0002,0.0,-2.1207,-2.1495,-2.4357,-2.5625,-2.5913,-2.8113,-2.8993,-2.923,0.0,-3.2242,-3.2598,-3.4827,0.0,0.0,-3.2043,-3.1883,0.0,0.0,0.0,0.0,0.0,0.0,0.0,0.0,0.0,0.0,-2.364,0.0,0.0,0.0,0.0,-1.7654,0.0,0.0,0.0,0.0,0.0,0.0,0.0,0.0,0.0,0.0,0.0,0.0,0.0,0.0,0.0,0.0,0.0,0.0,0.0,0.0,0.0,-1.9011,-2.5138,-2.7887,-2.6015,-2.7626,-2.8518,-2.8444,-2.8168,-2.7955,-2.784,-2.7675,-2.7625,-2.7625,-2.7595,-2.6866,-2.5644,-2.56,-2.4837,-2.3625,-2.361,-2.361,-2.3699,-2.435,-2.5023,-2.5719,-2.6378,-2.7061,-2.763,-1.7777,-1.8172,-1.8132,0.0,0.0,0.0,0.0,-2.2733,0.0,0.0,0.0,0.0,0.0,0.0,-4.0087,0.0,0.0,-4.0527,-3.9039,-3.6146,0.0,0.0,0.0,-2.6218,0.0,0.0,0.0,-2.0002,-2.0002,-2.0002,-2.0002,-2.0551,-2.0788,-2.0822,0.0,-2.2733,0.0,0.0,0.0,0.0,0.0,-3.2649,-3.2615,0.0,0.0,-3.2598,-3.4827,-3.4054,0.0,-3.3473,-3.2722,-3.1465,-3.2732,-3.1862,-3.0394,-3.0239,-2.8441,0.0,0.0,0.0,-2.3999,-2.4201,0.0,0.0,0.0,0.0,0.0,0.0,0.0,0.0,0.0,0.0,0.0,0.0,0.0,0.0,0.0,0.0,0.0,0.0,0.0,0.0,0.0,0.0,0.0,0.0,0.0,0.0,0.0,-2.3847,-2.6373,-2.7496,-2.8035,-2.8293,-2.8259,-2.7989,-2.784,-2.779,-2.765,-2.76,-2.7585,-2.7151,-2.6701,-2.6243,-2.5794,-2.5345,-2.4926,-2.4926,-2.4926,-2.4956,-2.5158,-2.5674,-2.6288,-2.6512,-2.7031,-2.76,-2.0513,-2.0234,-1.9545,0.0,0.0,0.0,0.0,0.0,0.0,0.0,-3.3491,0.0,-4.0984,0.0,-4.2455,0.0,-4.3978,-4.2912,-4.2439,-3.9394,0.0,-3.6502,-3.2696,0.0,0.0,0.0,0.0,0.0,0.0,-2.0826,-2.0842,-2.1346,-2.1583,-2.1613,0.0,0.0,0.0,0.0,-2.7435,0.0,0.0,-3.5216,0.0,0.0,-3.38,-3.3393,0.0,-3.52,-3.3734,-3.4918,-3.3855,-3.2278,-3.3237,-3.2406,-3.0999,-3.0726,-2.9654,-2.8677,-2.9217,-2.7921,0.0,-2.6951,-2.4956,0.0,-2.2248,0.0,0.0,0.0,0.0,0.0,0.0,0.0,0.0,0.0,0.0,0.0,0.0,-1.5799,0.0,0.0,0.0,0.0,0.0,0.0,0.0,0.0,0.0,0.0,0.0,0.0,-2.3662,-2.4909,-2.5552,-2.6221,-2.6912,-2.676,-2.7009,-2.774,-2.765,-2.76,-2.7585,-2.7151,-2.6836,-2.6572,-2.6138,-2.5824,-2.5615,-2.5615,-2.5615,-2.5615,-2.5615,-2.6019,-2.6587,-2.6587,-2.7031,-2.76,-2.3291,-2.1603,0.0,0.0,-2.0221,0.0,0.0,0.0,-3.1495,0.0,-3.9242,-4.3267,-4.5568,-4.5821,-4.6109,-4.6836,-4.5585,0.0,-4.4716,-4.2608,0.0,0.0,-3.7347,-3.5385,-3.4624,0.0,0.0,0.0,0.0,0.0,-2.2448,-2.2347,-2.2296,-2.2296,-2.2296,0.0,-2.2347,-2.2347,-2.5322,-3.0497,-3.5622,-3.6383,-3.4692,-3.6975,-3.6479,-3.4873,-3.7087,-3.7266,-3.6389,-3.6073,-3.5153,-3.4023,-3.3466,-3.3049,-3.2695,-3.2333,-3.2566,-3.3075,-3.3593,-3.2601,-3.1466,-3.154,0.0,0.0,0.0,0.0,-2.6437,0.0,0.0,0.0,0.0,0.0,0.0,0.0,0.0,0.0,0.0,0.0,0.0,0.0,0.0,0.0,0.0,0.0,0.0,0.0,0.0,0.0,0.0,0.0,-2.0015,-1.8882,-2.0707,-2.2637,-2.459,-2.4605,-2.5615,-2.76,-2.76,-2.76,-2.76,-2.76,-2.7255,-2.6632,-2.6632,-2.6288,-2.5704,-2.5704,-2.5704,-2.5704,-2.5704,-2.6093,-2.6632,-2.6632,-2.7061,-2.76,-2.1766,-2.2175,-2.253,0.0,-2.3429,-2.5052,0.0,0.0,0.0,0.0,-4.2117,-4.4857,-4.7107,-4.7331,-4.7648,-4.8376,-4.7597,0.0,0.0,0.0,0.0,-4.2591,-3.9208,-3.6958,-3.6237,-3.2699,0.0,-2.9228,0.0,0.0,-2.4729,-2.3057,-2.2296,-2.2296,0.0,0.0,-2.3122,-2.3122,-2.549,-2.9602,-3.3136,-3.4201,0.0,0.0,-3.6421,-3.6021,-3.7275,-3.735,-3.6696,-3.5859,-3.5024,-3.4218,-3.311,-3.2574,-3.2422,-3.2717,-3.2484,-3.246,-3.4014,-3.2631,-3.1016,-3.1974,-3.0417,-2.8382,0.0,0.0,0.0,0.0,0.0,0.0,0.0,0.0,0.0,0.0,0.0,0.0,0.0,0.0,0.0,0.0,0.0,0.0,0.0,0.0,0.0,0.0,0.0,0.0,0.0,0.0,0.0,-2.0887,-2.1425,-2.2637,-2.459,-2.4605,-2.5615,-2.76,-2.76,-2.76,-2.76,-2.76,-2.751,-2.7345,-2.7345,-2.7255,-2.7091,-2.7091,-2.7091,-2.7091,-2.7091,-2.7195,-2.7345,-2.7345,-2.745,-2.76,-2.3611,0.0,0.0,-2.4306,0.0,0.0,-2.9987,0.0,0.0,-4.1204,-4.3944,0.0,-4.8629,-4.8578,-4.868,-4.9424,-4.8528,0.0,0.0,0.0,0.0,-4.3978,-4.161,-3.9817,-3.8734,-3.5453,0.0,-3.2019,0.0,0.0,-2.5542,-2.3344,-2.2296,-2.2296,0.0,-2.2716,0.0,-2.5151,-2.708,-2.9348,-3.3309,0.0,0.0,-3.711,-3.7711,-3.7535,-3.7941,-3.7746,-3.7192,-3.6365,-3.5546,-3.4668,-3.3693,-3.3205,-3.3009,-3.3154,-3.29,-3.2871,-3.4237,-3.3456,-3.2497,-3.3559,-3.2721,-3.136,-3.0415,-2.9906,-2.9654,0.0,0.0,0.0,0.0,0.0,0.0,0.0,0.0,0.0,0.0,0.0,0.0,0.0,0.0,0.0,0.0,0.0,0.0,0.0,0.0,0.0,0.0,0.0,0.0,-2.0303,-2.0393,-2.1335,-2.3304,-2.3319,-2.3909,-2.5039,-2.5869,-2.6288,-2.6318,-2.721,-2.76,-2.76,-2.76,-2.76,-2.76,-2.76,-2.76,-2.76,-2.76,-2.76,-2.76,-2.76,-2.7549,-2.7514,0.0,0.0,0.0,0.0,0.0,0.0,0.0,-3.4332,0.0,-4.2472,0.0,-4.775,-4.9864,-4.9441,-4.9306,-5.0033,0.0,-4.8024,-4.8024,-4.7361,-4.6329,-4.4953,-4.4028,-4.2878,-4.139,-3.8034,0.0,0.0,0.0,-2.6911,-2.6116,-2.3513,-2.2296,0.0,0.0,0.0,0.0,-2.7588,-2.9127,0.0,-3.4687,-3.6639,-3.6669,-3.8798,-3.9319,-3.8887,-3.8539,-3.8105,-3.7606,-3.7053,-3.6174,-3.5187,-3.4546,-3.4163,-3.391,-3.3696,-3.3559,-3.3664,-3.4444,-3.4578,-3.4668,-3.5325,-3.5504,-3.5175,-3.3918,-3.3559,-3.314,-3.1884,-3.0001,-2.8607,0.0,0.0,0.0,0.0,0.0,0.0,0.0,0.0,0.0,0.0,0.0,0.0,0.0,0.0,0.0,0.0,0.0,0.0,0.0,0.0,0.0,-1.8627,-1.8702,0.0,-2.168,0.0,-2.1695,-2.1724,-2.3663,-2.4605,-2.4664,-2.6677,-2.76,-2.76,-2.76,-2.76,-2.76,-2.76,-2.76,-2.76,-2.7575,-2.7575,-2.7575,-2.7524,-2.7437,-2.7284,0.0,0.0,0.0,0.0,0.0,-3.4117,-3.6214,-4.0223,-4.3944,-4.6599,-4.7365,-4.8325,-4.9915,-4.9441,-4.9306,-5.0033,-4.9306,0.0,0.0,0.0,0.0,-4.6447,-4.5094,-4.3656,-4.2134,-4.0865,-3.9563,0.0,-3.2966,-3.0023,-2.921,-2.4494,0.0,0.0,0.0,0.0,-2.5423,-2.8569,0.0,-3.014,-3.4718,-3.641,-3.6396,-3.8384,-3.8816,-3.8355,-3.7828,-3.7616,-3.7482,-3.6561,-3.5886,-3.5227,-3.4286,-3.3879,-3.3834,-3.4205,-3.3918,-3.3769,-3.4996,-3.4906,-3.4668,-3.5325,-3.5504,-3.5295,-3.4487,-3.3888,-3.3275,-3.2497,-3.0342,-2.8607,-2.8607,0.0,0.0,0.0,0.0,0.0,0.0,0.0,0.0,0.0,0.0,0.0,0.0,0.0,0.0,0.0,0.0,0.0,0.0,0.0,0.0,0.0,0.0,0.0,0.0,0.0,-2.1695,-2.1724,-2.3663,-2.4605,-2.4664,-2.6677,-2.76,-2.76,-2.76,-2.76,-2.76,-2.76,-2.76,-2.76,-2.7488,-2.7452,-2.7427,-2.7196,-2.6922,-2.6709,0.0,0.0,0.0,0.0,0.0,0.0,0.0,-4.3673,0.0,-4.7753,-4.7889,-4.8477,-4.9932,-4.9441,-4.9306,-5.0033,-4.9424,-4.9001,-4.9001,-4.868,-4.797,-4.6836,-4.5737,0.0,-4.2337,-4.1576,-4.0476,-3.8988,-3.5301,-3.2324,-3.0057,-2.7519,0.0,0.0,0.0,-2.5543,0.0,0.0,0.0,-3.3295,-3.5368,-3.6663,-3.7469,-3.8259,-3.8201,-3.7682,-3.7208,-3.6906,-3.6707,-3.629,-3.5999,-3.5707,-3.5047,-3.4785,-3.4767,-3.497,-3.4786,-3.4681,-3.5325,-3.5265,-3.51,-3.5429,-3.5504,-3.5325,-3.4668,-3.4264,-3.3814,-3.3155,-3.1749,-3.0537,-3.0165,-2.8502,0.0,0.0,0.0,0.0,0.0,0.0,0.0,0.0,0.0,0.0,0.0,0.0,0.0,0.0,0.0,0.0,0.0,0.0,0.0,0.0,0.0,0.0,0.0,0.0,0.0,-2.1724,-2.3663,-2.4605,-2.4664,-2.6677,-2.76,-2.76,-2.76,-2.76,-2.76,-2.76,-2.76,-2.76,-2.7437,-2.7376,-2.7258,-2.6948,-2.6618,-2.6312,0.0,-3.1481,0.0,0.0,-3.6197,0.0,-4.2405,-4.5838,-4.8125,-4.8125,-4.8125,-4.8646,-4.9949,-4.9441,-4.9306,-5.0033,-4.9424,-4.9001,-4.9001,-4.8849,-4.8189,-4.6853,-4.6092,-4.4637,-4.2337,-4.1728,-4.0713,0.0,-3.6783,-3.3858,0.0,-3.0412,0.0,0.0,0.0,0.0,0.0,0.0,-3.3006,-3.5935,-3.6272,-3.7186,-3.8315,-3.803,-3.7565,-3.7013,-3.6677,-3.6289,-3.5941,-3.6037,-3.6053,-3.6005,-3.5735,-3.5671,-3.5653,-3.5522,-3.5504,-3.5504,-3.5504,-3.5504,-3.5504,-3.5504,-3.5504,-3.537,-3.4816,-3.4608,-3.4354,-3.3814,-3.3066,-3.2288,-3.163,-3.024,0.0,0.0,0.0,0.0,0.0,0.0,0.0,0.0,0.0,0.0,0.0,0.0,0.0,0.0,0.0,-1.5799,-1.5799,-1.5799,0.0,0.0,0.0,-1.9675,-2.168,0.0,-2.1695,0.0,-2.3663,-2.4605,-2.4664,-2.6677,-2.76,-2.76,-2.76,-2.7575,-2.7549,-2.7549,-2.7524,-2.7448,-2.7284,-2.7104,-2.6907,-2.6525,-2.615,-2.5825,0.0,0.0,0.0,0.0,0.0,0.0,0.0,-4.6955,-4.89,-4.89,-4.89,-4.9204,-4.9999,-4.9441,-4.9306,-5.0033,-4.9424,-4.9001,-4.9001,-4.8392,-4.7648,-4.6836,-4.6092,-4.4637,-4.2337,-4.2219,-4.1457,0.0,0.0,-3.4404,0.0,0.0,0.0,0.0,0.0,0.0,0.0,-3.4572,-3.5325,-3.5454,-3.7324,-3.7837,-3.7506,-3.7328,-3.6983,-3.6523,-3.6195,-3.5926,-3.5703,-3.5604,-3.5569,-3.5554,-3.5537,-3.5537,-3.5537,-3.5504,-3.5504,-3.5504,-3.5504,-3.5504,-3.5504,-3.5504,-3.5504,-3.5489,-3.5429,-3.4921,-3.4488,-3.4429,-3.338,-3.2288,-3.163,-3.1346,-3.1167,0.0,0.0,0.0,0.0,0.0,0.0,0.0,0.0,0.0,0.0,0.0,0.0,0.0,0.0,-1.5799,-1.5799,-1.5799,-1.6683,-1.8642,0.0,-1.9675,-2.168,-2.1695,0.0,-2.1724,-2.3663,-2.4605,-2.4664,-2.6677,-2.76,-2.76,-2.76,-2.7524,-2.7427,-2.7427,-2.7273,-2.7015,-2.6709,-2.6418,-2.6138,-2.555,-2.5174,-2.4944,0.0,0.0,0.0,0.0,0.0,0.0,0.0,-4.797,-4.9001,-4.9001,-4.9001,-4.912,-4.9407,-4.9187,-4.912,-4.9407,-4.9171,-4.9001,-4.9001,-4.8325,-4.7581,-4.6819,-4.6092,-4.4637,-4.2337,-4.2286,-4.1585,0.0,0.0,0.0,0.0,0.0,0.0,0.0,0.0,-3.3495,-3.4781,-3.5375,-3.6013,-3.6714,-3.7361,-3.7328,-3.6831,-3.6662,-3.6367,-3.599,-3.5863,-3.5718,-3.5572,-3.5537,-3.5504,-3.5504,-3.5504,-3.5504,-3.5504,-3.5504,-3.5504,-3.5504,-3.5504,-3.5504,-3.5504,-3.5504,-3.5504,-3.5504,-3.5504,-3.5295,-3.51,-3.51,-3.4023,-3.2901,-3.2213,-3.1765,-3.1122,0.0,0.0,0.0,0.0,0.0,0.0,0.0,0.0,0.0,0.0,0.0,0.0,0.0,0.0,0.0,-1.5799,-1.5799,-1.6158,-1.6937,0.0,-1.8495,-2.1665,-2.1695,-2.2877,-2.5249,-2.6019,-2.6393,-2.6422,-2.724,-2.76,-2.76,-2.76,-2.7524,-2.7401,-2.731,-2.7298,-2.7316,-2.6909,-2.682,-2.6818,-2.6167,-2.5767,-2.5491,-4.2388,0.0,-4.3944,0.0,-4.5026,-4.6413,-4.7986,-4.868,-4.9001,-4.9001,-4.9001,-4.9001,-4.9001,-4.9001,-4.9001,-4.9001,-4.9001,-4.8917,-4.8697,-4.8003,-4.7259,-4.6498,-4.5771,0.0,-4.2658,-4.2405,-4.1677,-4.0409,-4.0214,0.0,0.0,0.0,0.0,0.0,-3.4801,-3.5575,-3.6657,-3.6182,-3.6494,-3.7328,-3.7028,-3.6646,-3.6258,-3.6116,-3.5894,-3.5638,-3.5638,-3.5572,-3.5504,-3.5504,-3.5504,-3.5504,-3.5504,-3.5504,-3.5504,-3.5504,-3.5504,-3.5504,-3.5504,-3.5504,-3.5504,-3.5504,-3.5504,-3.5504,-3.5504,-3.5504,-3.5444,-3.525,-3.4292,-3.3305,-3.2632,-3.1944,-3.1047,-2.9699,0.0,0.0,0.0,0.0,0.0,0.0,0.0,-2.1814,0.0,0.0,0.0,0.0,0.0,0.0,-1.5799,-1.5799,0.0,0.0,0.0,0.0,0.0,-2.1695,-2.3796,-2.7315,-2.7899,-2.8184,-2.8184,-2.8132,-2.8106,-2.8092,-2.7988,-2.7858,-2.7677,-2.7503,-2.74,-2.7357,-2.6917,-2.6805,-2.6846,-2.6285,-2.591,-2.568,-4.6718,-4.7327,-4.7821,-4.7821,-4.846,-4.8968,-4.8984,-4.9001,-4.9001,-4.9001,-4.9001,-4.9001,-4.9001,-4.9001,-4.9001,-4.9001,-4.9001,-4.8697,-4.7939,-4.7225,-4.6481,0.0,0.0,-4.4215,-4.3392,-4.2675,-4.1931,-4.1187,0.0,0.0,-3.6745,0.0,-3.7672,-3.9774,-3.9183,-3.8794,-3.8507,-3.7722,-3.7133,-3.6693,-3.6367,-3.6006,-3.572,-3.572,-3.5621,-3.5504,-3.5504,-3.5504,-3.5504,-3.5504,-3.5504,-3.5504,-3.5504,-3.5504,-3.5504,-3.5504,-3.5504,-3.5504,-3.5504,-3.5504,-3.5504,-3.5504,-3.5504,-3.5504,-3.5504,-3.5504,-3.531,-3.4653,-3.3963,-3.3305,-3.2632,-3.1944,-3.1496,-3.1466,0.0,0.0,0.0,0.0,0.0,0.0,-2.5749,-2.3969,-1.7353,0.0,0.0,0.0,0.0,0.0,0.0,0.0,0.0,-1.5799,-1.5799,0.0,-1.9708,-2.1699,-2.4021,-2.6632,-2.8633,-2.9592,-2.9564,-2.9372,-2.929,-2.9248,-2.893,-2.8623,-2.8354,-2.8039,-2.7501,-2.6889,-2.6546,-2.6131,-2.5691,-2.5421,-2.518,-2.5076,-4.7564,-4.8156,-4.8663,-4.8663,-4.8849,-4.9001,-4.9001,-4.9001,-4.9001,-4.9001,-4.9001,-4.9001,-4.9001,-4.9001,-4.9001,0.0,-4.9001,-4.8697,0.0,-4.7208,-4.6464,-4.5737,-4.4976,-4.4215,-4.3409,-4.2675,-4.1931,-4.1204,0.0,0.0,0.0,-3.626,-3.6529,-3.7085,-3.823,-3.8511,-3.8087,-3.7356,-3.6799,-3.6336,-3.5975,-3.5735,-3.5572,-3.5572,-3.5522,-3.5504,-3.5504,-3.5504,-3.5504,-3.5504,-3.5504,-3.5504,-3.5504,-3.5504,-3.5504,-3.5504,-3.5504,-3.5504,-3.5504,-3.5504,-3.5504,-3.5504,-3.5504,-3.5504,-3.5504,-3.5504,-3.5444,-3.522,-3.4637,-3.3994,-3.3305,-3.2647,-3.2034,-3.157,-3.1511,0.0,0.0,0.0,0.0,0.0,-2.456,-2.3206,0.0,-2.0827,0.0,0.0,0.0,0.0,0.0,0.0,0.0,0.0,-1.6413,0.0,-2.0363,-2.2323,-2.4403,-2.6617,-2.8648,-2.9606,-2.9579,-2.9401,-2.925,-2.9125,-2.8807,-2.8425,-2.8024,-2.7691,-2.7407,-2.7131,-2.6849,-2.675,-2.6745,-2.6381,-2.6214,-2.6152,-4.8294,-4.8697,-4.9001,-4.9001,-4.9001,-4.9001,-4.9001,-4.9001,-4.9001,-4.9001,-4.9001,-4.9001,-4.9001,-4.9001,0.0,-4.9001,-4.9001,-4.8578,-4.7564,-4.7056,-4.6346,-4.5331,-4.4869,-4.435,-4.3859,0.0,0.0,-4.1548,-4.0268,-3.8803,-3.7176,-3.7006,-3.6826,-3.6734,-3.766,-3.787,-3.749,-3.683,-3.6337,-3.5975,-3.5735,-3.5572,-3.5504,-3.5504,-3.5504,-3.5504,-3.5504,-3.5504,-3.5504,-3.5504,-3.5504,-3.5504,-3.5504,-3.5504,-3.5504,-3.5504,-3.5504,-3.5504,-3.5504,-3.5504,-3.5504,-3.5504,-3.5504,-3.5504,-3.5504,-3.5504,-3.5504,-3.5504,-3.4966,-3.4384,-3.3933,-3.3125,-3.2348,-3.1929,-3.166,-3.1511,-3.1511,0.0,0.0,0.0,0.0,0.0,0.0,-2.2488,0.0,0.0,0.0,0.0,0.0,0.0,0.0,-1.9253,-1.9298,0.0,-2.2153,-2.4118,-2.5854,-2.7365,-2.9301,-3.0173,-3.0033,-2.9778,-2.9564,-2.9334,-2.8897,-2.8438,-2.8016,-2.7588,-2.7337,-2.717,-2.6922,-2.6912,-2.6964,-2.6726,-2.6624,-2.6624,-4.9001,-4.9001,0.0,0.0,-4.9001,0.0,-4.9001,-4.9001,-4.9001,-4.9001,-4.9001,-4.9001,-4.9001,-4.9001,-4.9001,-4.9001,0.0,0.0,0.0,-4.6786,-4.6126,-4.4666,-4.4615,-4.4615,-4.4615,-4.3659,-4.2774,-4.194,-4.0113,-3.9094,-3.8887,-3.8439,-3.8214,-3.8157,-3.7476,-3.7042,-3.6799,-3.6227,-3.5863,-3.5688,-3.5539,-3.5504,-3.5504,-3.5504,-3.5504,-3.5504,-3.5504,-3.5504,-3.5504,-3.5504,-3.5504,-3.5504,-3.5504,-3.5504,-3.5504,-3.5504,-3.5504,-3.5504,-3.5504,-3.5504,-3.5504,-3.5504,-3.5504,-3.5504,-3.5504,-3.5504,-3.5504,-3.5504,-3.4996,-3.4563,-3.4518,-3.344,-3.2557,-3.2497,-3.1929,-3.1511,-3.1511,0.0,0.0,0.0,0.0,0.0,0.0,-2.3887,-2.4731,0.0,0.0,0.0,0.0,0.0,-2.1252,-2.3595,-2.367,-2.3999,-2.4664,-2.6662,-2.8064,-2.8805,-3.0473,-3.1117,-3.0762,-3.0417,-3.0068,-2.9716,-2.9044,-2.8578,-2.8222,-2.7689,-2.7289,-2.6973,-2.6782,-2.6624,-2.6499,-2.6499,-2.6499,-2.6499,0.0,0.0,-4.9001,-4.9001,-4.9001,-4.9001,-4.9001,-4.9001,-4.9001,-4.9001,-4.9001,-4.9001,-4.9001,-4.9001,-4.9001,-4.9001,-4.9001,-4.8376,-4.6887,-4.6786,-4.6126,-4.4666,-4.4615,-4.4615,-4.4615,-4.3659,-4.23,-4.043,-3.9811,-3.893,-3.7783,-3.7682,-3.7417,-3.7058,-3.6785,-3.6554,-3.6352,-3.5943,-3.5752,-3.5688,-3.5539,-3.5504,-3.5504,-3.5504,-3.5504,-3.5504,-3.5504,-3.5504,-3.5504,-3.5504,-3.5504,-3.5504,-3.5504,-3.5504,-3.5504,-3.5504,-3.5504,-3.5504,-3.5504,-3.5504,-3.5504,-3.5504,-3.5504,-3.5504,-3.5504,-3.5504,-3.5504,-3.5504,-3.537,-3.51,-3.4593,-3.3814,-3.3095,-3.2572,-3.1929,-3.1511,-3.1511,-2.9821,0.0,0.0,-2.7889,-2.7649,-2.7036,-2.8174,-2.8884,0.0,0.0,0.0,0.0,-2.6192,-2.4793,-2.4373,-2.4365,-2.4679,-2.5352,-2.7365,-2.9137,-3.0666,-3.0939,-3.0911,-3.0642,-3.0129,-2.9747,-2.9373,-2.8707,-2.8222,-2.7875,-2.749,-2.7134,-2.6782,-2.6714,-2.6624,-2.6499,-2.6499,-2.6499,-2.6499,-4.9001,-4.9001,-4.9001,-4.9001,-4.9001,-4.9001,-4.9001,-4.9001,-4.9001,-4.9001,-4.9001,-4.9001,-4.9001,-4.9001,-4.9001,-4.9001,-4.9001,-4.8376,-4.6887,-4.6786,-4.6126,-4.4666,-4.4615,-4.4615,-4.4615,-4.394,-4.2475,-4.0189,-3.9454,-3.8439,-3.7163,-3.6952,-3.6723,-3.6461,-3.6242,-3.6085,-3.5943,-3.5718,-3.5621,-3.5589,-3.5522,-3.5504,-3.5504,-3.5504,-3.5504,-3.5504,-3.5504,-3.5504,-3.5504,-3.5504,-3.5504,-3.5504,-3.5504,-3.5504,-3.5504,-3.5504,-3.5504,-3.5504,-3.5504,-3.5504,-3.5504,-3.5504,-3.5504,-3.5504,-3.5504,-3.5504,-3.5504,-3.5504,-3.5504,-3.5385,-3.5011,-3.4397,-3.3724,-3.3066,-3.2378,-3.1854,-3.154,-2.9821,0.0,-2.8457,-2.874,-2.8907,-2.8827,-3.0464,-3.1412,-3.1087,0.0,0.0,-3.0105,-2.8958,-2.7998,-2.7362,-2.7332,-2.7509,-2.7889,-2.8978,-2.9926,-3.0732,-3.0553,-3.0206,-2.9747,-2.9341,-2.8885,-2.8449,-2.7927,-2.753,-2.7289,-2.7032,-2.6794,-2.6624,-2.6624,-2.6555,-2.6499,-2.6499,-2.6499,-2.6499,-4.9001,-4.9001,-4.9001,-4.9001,-4.9001,-4.9001,-4.9001,-4.9001,-4.9001,-4.9001,-4.9001,-4.9001,-4.9001,-4.9001,-4.9001,-4.9001,-4.9001,-4.8376,-4.6887,-4.6786,-4.6126,-4.4666,-4.4615,-4.4587,-4.4542,-4.4155,-4.2778,-4.0388,-3.9178,-3.7948,-3.6753,-3.6321,-3.6101,-3.6085,-3.5799,-3.5671,-3.5671,-3.5554,-3.5504,-3.5504,-3.5504,-3.5504,-3.5504,-3.5504,-3.5504,-3.5504,-3.5504,-3.5504,-3.5504,-3.5504,-3.5504,-3.5504,-3.5504,-3.5504,-3.5504,-3.5504,-3.5504,-3.5504,-3.5504,-3.5504,-3.5504,-3.5504,-3.5504,-3.5504,-3.5504,-3.5504,-3.5504,-3.5504,-3.5504,-3.5504,-3.5504,-3.4936,-3.4294,-3.3604,-3.2662,-3.1914,-3.1526,0.0,-2.8699,-2.8806,-2.94,-2.973,-2.9575,-3.1526,-3.2581,-3.1977,-3.1764,-3.1331,0.0,-3.0416,-3.0385,-3.0553,-3.0619,-3.0667,-3.0667,-3.0667,-3.0443,-3.0038,-2.9808,-2.9373,-2.8707,-2.8384,-2.7941,-2.7469,-2.7108,-2.685,-2.6679,-2.6555,-2.6499,-2.6499,-2.6499,-2.6499,-2.6499,-2.6499,-2.6499,-2.6499,-4.9001,-4.9001,-4.9001,-4.9001,-4.9001,-4.9001,-4.9001,-4.9001,-4.9001,-4.9001,-4.9001,-4.9001,-4.9001,-4.9001,-4.9001,-4.9001,-4.9001,-4.8376,-4.6887,-4.6786,-4.6126,-4.4666,-4.4615,-4.4514,-4.4338,-4.3625,-4.215,-3.9906,-3.9314,-3.8011,-3.6148,-3.5879,-3.5718,-3.5587,-3.5554,-3.5522,-3.5522,-3.5504,-3.5504,-3.5504,-3.5504,-3.5504,-3.5504,-3.5504,-3.5504,-3.5504,-3.5504,-3.5504,-3.5504,-3.5504,-3.5504,-3.5504,-3.5504,-3.5504,-3.5504,-3.5504,-3.5504,-3.5504,-3.5504,-3.5504,-3.5504,-3.5504,-3.5504,-3.5504,-3.5504,-3.5504,-3.5504,-3.5504,-3.5504,-3.5504,-3.5504,-3.4936,-3.4294,-3.3604,-3.1453,-3.0233,-3.1202,0.0,-2.9569,-3.1012,-3.1773,-3.2045,-3.1685,-3.1886,-3.1972,-3.1663,-3.1222,-3.0915,-3.0785,-3.0471,-3.0316,-3.035,-3.0739,-3.0928,-3.0928,-3.0928,-3.0517,-2.9685,-2.9467,-2.9012,-2.8384,-2.8039,-2.7689,-2.7302,-2.6918,-2.6714,-2.6679,-2.6555,-2.6499,-2.6499,-2.6499,-2.6499,-2.6499,-2.6499,-2.6499,-2.6499,-4.9001,-4.9001,-4.9001,-4.9001,-4.9001,-4.9001,-4.9001,-4.9001,-4.9001,-4.9001,-4.9001,-4.9001,-4.9001,-4.9001,-4.9001,-4.9001,-4.9001,-4.8545,-4.7462,-4.7394,-4.6688,-4.5081,-4.5014,-4.4656,-4.3818,-4.305,-4.1865,-4.023,-3.9166,-3.7935,-3.6537,-3.5899,-3.5554,-3.5504,-3.5504,-3.5504,-3.5504,-3.5504,-3.5504,-3.5504,-3.5504,-3.5504,-3.5504,-3.5504,-3.5504,-3.5504,-3.5504,-3.5504,-3.5504,-3.5504,-3.5504,-3.5504,-3.5504,-3.5504,-3.5504,-3.5504,-3.5504,-3.5504,-3.5504,-3.5504,-3.5504,-3.5504,-3.5504,-3.5504,-3.5504,-3.5504,-3.5504,-3.5504,-3.5504,-3.5472,-3.5359,-3.5106,-3.4641,-3.3877,-3.2595,0.0,0.0,-3.1288,-3.1002,-3.1726,-3.2213,-3.2388,-3.2074,-3.2216,-3.2184,-3.1862,-3.1426,-3.1035,-3.0719,-3.033,-3.0123,-3.0019,-3.0296,-3.0447,-3.0447,-3.0366,-3.0049,-2.9496,-2.9329,-2.8958,-2.8446,-2.7919,-2.7563,-2.7261,-2.6797,-2.6589,-2.6589,-2.6521,-2.6499,-2.6499,-2.6499,-2.6499,-2.6499,-2.6499,-2.6499,-2.6499,-4.9001,-4.9001,-4.9001,-4.9001,-4.9001,-4.9001,-4.9001,-4.9001,-4.9001,-4.9001,-4.9001,-4.9001,-4.9001,-4.9001,-4.9001,-4.9001,-4.9001,-4.8765,-4.8176,-4.8112,-4.7292,-4.5425,-4.5014,-4.4291,-4.316,-4.2459,-4.1501,-4.0417,-3.91,-3.8004,-3.7122,-3.6192,-3.5729,-3.5729,-3.5579,-3.5504,-3.5504,-3.5504,-3.5504,-3.5504,-3.5504,-3.5504,-3.5504,-3.5504,-3.5504,-3.5504,-3.5504,-3.5504,-3.5504,-3.5504,-3.5609,-3.5729,-3.5729,-3.5729,-3.5729,-3.5729,-3.5624,-3.5504,-3.5504,-3.5504,-3.5504,-3.5504,-3.5504,-3.5504,-3.5504,-3.5504,-3.5504,-3.5504,-3.5504,-3.5439,-3.5261,-3.5148,-3.486,-3.408,0.0,0.0,0.0,-3.1857,-3.1507,-3.1778,-3.212,-3.2208,-3.1929,-3.2214,-3.2261,-3.1795,-3.1485,-3.1105,-3.0659,-3.0294,-3.0046,-2.994,-3.002,-3.0094,-3.0094,-2.9892,-2.9601,-2.9271,-2.9164,-2.8915,-2.8543,-2.8005,-2.7672,-2.7444,-2.7065,-2.6876,-2.6876,-2.6876,-2.6876,-2.6876,-2.6876,-2.6876,-2.6876,-2.6876,-2.6876,-2.6876,-4.9001,-4.9001,-4.9001,-4.9001,-4.9001,-4.9001,-4.9001,-4.9001,-4.9001,-4.9001,-4.9001,-4.9001,-4.9001,-4.9001,-4.9001,-4.9001,-4.9001,-4.8984,-4.8934,-4.881,-4.7679,-4.5328,-4.3798,-4.279,-4.238,-4.1721,-4.0878,-3.9843,-3.9259,-3.852,-3.7617,-3.6817,-3.6417,-3.6387,-3.5774,-3.5504,-3.5504,-3.5504,-3.5504,-3.5504,-3.5504,-3.5504,-3.5504,-3.5504,-3.5504,-3.5504,-3.5504,-3.5504,-3.5504,-3.5504,-3.5908,-3.6417,-3.6417,-3.6417,-3.6417,-3.6417,-3.5983,-3.5504,-3.5504,-3.5504,-3.5504,-3.5504,-3.5504,-3.5504,-3.5504,-3.5504,-3.5504,-3.5504,-3.5504,-3.5439,-3.5261,-3.5034,-3.4648,-3.3856,0.0,0.0,-3.1541,-3.0367,-2.9942,-3.1357,-3.205,-3.2205,-3.1673,-3.1676,-3.1505,-3.1108,-3.0884,-3.072,-3.0681,-3.048,-3.0354,-3.0354,-3.037,-3.0385,-3.0385,-3.0168,-2.9689,-2.8928,-2.8928,-2.8762,-2.8413,-2.8375,-2.8241,-2.8047,-2.7996,-2.7984,-2.7984,-2.7984,-2.7984,-2.7984,-2.7984,-2.7984,-2.7984,-2.7984,-2.7984,-2.7984,-4.9001,-4.9001,-4.9001,-4.9001,-4.9001,-4.9001,-4.9001,-4.9001,-4.9001,-4.9001,-4.9001,-4.9001,-4.9001,-4.9001,-4.9001,-4.9001,-4.9001,-4.897,-4.8894,-4.8595,-4.7476,-4.5355,-4.3734,-4.2509,-4.1704,-4.1091,-4.0576,-4.0055,-3.923,-3.8635,-3.831,-3.7462,-3.706,-3.703,-3.6402,-3.6118,-3.6088,-3.5684,-3.5504,-3.5504,-3.5504,-3.5504,-3.5549,-3.5953,-3.6118,-3.6163,-3.6552,-3.6686,-3.6686,-3.6686,-3.6851,-3.706,-3.706,-3.706,-3.706,-3.706,-3.6881,-3.6611,-3.6222,-3.5818,-3.5504,-3.5504,-3.5504,-3.5504,-3.5504,-3.5504,-3.5472,-3.5326,-3.5326,-3.5195,-3.4783,-3.4534,-3.4211,-3.3545,0.0,-3.1782,-3.2069,-3.1266,-3.0902,-3.1505,-3.1422,-3.1272,-3.1061,-3.0936,-3.0861,-3.0811,-3.0647,-3.0571,-3.0698,-3.0495,-3.0406,-3.0406,-3.0277,-3.0211,-3.0211,-2.9998,-2.9783,-2.9453,-2.9453,-2.9378,-2.9265,-2.8862,-2.8661,-2.8562,-2.8247,-2.8109,-2.8109,-2.8109,-2.8109,-2.8109,-2.8109,-2.8109,-2.8109,-2.8109,-2.8109,-2.8109,-4.9001,-4.9001,-4.9001,-4.9001,-4.9001,-4.9001,-4.9001,-4.9001,-4.9001,-4.9001,-4.9001,-4.9001,-4.9001,-4.9001,-4.9001,-4.9001,-4.9001,-4.894,-4.8818,-4.8146,-4.6914,-4.4984,-4.3177,-4.1844,-4.0987,-4.0493,-4.0181,-4.0041,-3.93,-3.8913,-3.8898,-3.8102,-3.7719,-3.7689,-3.706,-3.6671,-3.6462,-3.6013,-3.5684,-3.5519,-3.5729,-3.5804,-3.5878,-3.6537,-3.6776,-3.6836,-3.7255,-3.7404,-3.7404,-3.7404,-3.7539,-3.7719,-3.7719,-3.7719,-3.7674,-3.7464,-3.7404,-3.7315,-3.6896,-3.6447,-3.6013,-3.5609,-3.5504,-3.5564,-3.5774,-3.5804,-3.5798,-3.5792,-3.5755,-3.5554,-3.5009,-3.4476,-3.3951,-3.348,-3.2828,-3.2273,-3.2092,-3.1629,-3.131,-3.1222,-3.0861,-3.0584,-3.0508,-3.0381,-3.0343,-3.0394,-3.0267,-3.0267,-3.0394,-3.0267,-3.0228,-3.0228,-3.0075,-3.0011,-3.0011,-2.9869,-2.9792,-2.9792,-2.9792,-2.9792,-2.9779,-2.9377,-2.9202,-2.9176,-2.88,-2.8637,-2.8637,-2.8637,-2.8637,-2.8637,-2.8637,-2.8637,-2.8637,-2.8637,-2.8637,-2.8637,-4.9001,-4.9001,-4.9001,-4.9001,-4.9001,-4.9001,-4.9001,-4.9001,-4.9001,-4.9001,-4.9001,-4.9001,-4.9001,-4.9001,-4.9001,-4.9001,-4.9001,-4.8956,-4.8818,-4.7539,-4.5941,-4.4084,-4.1959,-4.0627,-4.0216,-3.9879,-3.9681,-3.9681,-3.9481,-3.9388,-3.9373,-3.8721,-3.8407,-3.8362,-3.7719,-3.7075,-3.6492,-3.6492,-3.6118,-3.5579,-3.6237,-3.6492,-3.6552,-3.718,-3.7419,-3.7419,-3.7419,-3.7419,-3.7419,-3.7419,-3.7853,-3.8407,-3.8407,-3.8407,-3.8272,-3.7614,-3.7419,-3.7419,-3.7419,-3.7419,-3.7105,-3.5833,-3.5519,-3.5684,-3.6342,-3.6492,-3.6604,-3.7025,-3.6936,-3.6641,-3.6072,-3.5017,-3.4038,-3.3652,-3.2485,-3.1532,-3.1323,-3.0962,-3.0622,-3.0419,-3.0406,-3.0343,-3.0126,-3.0088,-3.0011,-2.983,-2.9792,-2.9792,-2.9792,-2.9792,-2.9792,-2.9792,-2.9792,-2.9792,-2.9792,-2.9792,-2.9792,-2.9792,-2.9792,-2.9792,-2.9792,-2.9792,-2.9792,-2.9792,-2.9792,-2.9792,-2.9792,-2.9792,-2.9792,-2.9792,-2.9792,-2.9792,-2.9792,-2.9792,-2.9792,-2.9792,-4.9001,-4.9001,-4.9001,-4.9001,-4.9001,-4.9001,-4.9001,-4.9001,-4.9001,-4.9001,-4.9001,-4.9001,-4.9001,-4.9001,-4.894,-4.8863,-4.8863,-4.8483,-4.7671,-4.6033,-4.4504,-4.3074,-4.2263,-4.1209,-3.9874,-3.961,-3.9481,-3.9481,-3.9424,-3.9388,-3.9388,-3.9215,-3.911,-3.908,-3.8392,-3.7988,-3.7793,-3.733,-3.703,-3.6866,-3.706,-3.7135,-3.721,-3.7853,-3.8093,-3.8153,-3.8646,-3.8811,-3.8811,-3.8811,-3.8945,-3.911,-3.911,-3.911,-3.9065,-3.8871,-3.8811,-3.8706,-3.8227,-3.8003,-3.7739,-3.7011,-3.6836,-3.6862,-3.6901,-3.6911,-3.6818,-3.6399,-3.6114,-3.5704,-3.4836,-3.4122,-3.352,-3.3008,-3.2449,-3.2033,-3.1823,-3.156,-3.1361,-3.1322,-3.086,-3.0514,-3.0448,-3.0096,-2.9869,-2.9792,-2.9792,-2.9792,-2.9792,-2.9792,-2.9792,-2.9792,-2.9792,-2.9792,-2.9792,-2.9792,-2.9792,-2.9792,-2.9792,-2.9792,-2.9792,-2.9792,-2.9792,-2.9792,-2.9792,-2.9792,-2.9792,-2.9792,-2.9792,-2.9792,-2.9792,-2.9792,-2.9792,-2.9792,-2.9792,-2.9792,-4.9001,-4.9001,-4.9001,-4.9001,-4.9001,-4.9001,-4.9001,-4.9001,-4.9001,-4.9001,-4.9001,-4.9001,-4.9001,-4.894,-4.8863,-4.8707,-4.8324,-4.7737,-4.6844,-4.5481,-4.4133,-4.2913,-4.2365,-4.1273,-3.9619,-3.9445,-3.9388,-3.9388,-3.9388,-3.9388,-3.9388,-3.9388,-3.9388,-3.9394,-3.899,-3.8646,-3.8362,-3.7958,-3.7644,-3.7434,-3.7689,-3.7808,-3.7868,-3.8542,-3.8796,-3.8856,-3.9275,-3.9388,-3.9388,-3.9388,-3.9388,-3.9388,-3.9388,-3.9388,-3.9388,-3.9388,-3.9388,-3.9334,-3.8916,-3.8653,-3.8421,-3.8147,-3.762,-3.7203,-3.7331,-3.732,-3.713,-3.6728,-3.6365,-3.5826,-3.4806,-3.4108,-3.3476,-3.2932,-3.2389,-3.2007,-3.1886,-3.1696,-3.1574,-3.1574,-3.1203,-3.0834,-3.0633,-3.0319,-3.003,-2.9817,-2.9792,-2.9792,-2.9792,-2.9792,-2.9792,-2.9792,-2.9792,-2.9792,-2.9792,-2.9792,-2.9792,-2.9792,-2.9792,-2.9792,-2.9792,-2.9792,-2.9792,-2.9792,-2.9792,-2.9792,-2.9792,-2.9792,-2.9792,-2.9792,-2.9792,-2.9792,-2.9792,-2.9792,-2.9792,-2.9792,-4.9001,-4.9001,-4.9001,-4.9001,-4.9001,-4.9001,-4.9001,-4.9001,-4.9001,-4.9001,-4.9001,-4.897,-4.897,-4.8832,-4.8675,-4.8452,-4.7555,-4.6759,-4.6214,-4.5442,-4.4496,-4.3303,-4.2304,-4.1099,-3.9619,-3.9448,-3.9388,-3.9388,-3.9388,-3.9388,-3.9388,-3.9388,-3.9388,-3.9388,-3.9388,-3.9065,-3.8482,-3.8482,-3.8138,-3.7644,-3.8242,-3.8482,-3.8556,-3.9185,-3.9388,-3.9388,-3.9388,-3.9388,-3.9388,-3.9388,-3.9388,-3.9388,-3.9388,-3.9388,-3.9388,-3.9388,-3.9388,-3.9388,-3.9388,-3.9228,-3.9068,-3.9068,-3.7948,-3.7049,-3.7657,-3.7645,-3.7476,-3.7453,-3.712,-3.6508,-3.5426,-3.4498,-3.3695,-3.3271,-3.2424,-3.1807,-3.1807,-3.1672,-3.1537,-3.1537,-3.1499,-3.1273,-3.0809,-3.0721,-3.0482,-2.998,-2.993,-2.993,-2.993,-2.9892,-2.9867,-2.9867,-2.9817,-2.9792,-2.9792,-2.9792,-2.9792,-2.9792,-2.9792,-2.9792,-2.9792,-2.9792,-2.9792,-2.9792,-2.9792,-2.9792,-2.9792,-2.9792,-2.9792,-2.9792,-2.9792,-2.9792,-2.9792,-2.9792,-2.9792,-2.9792,-4.9001,-4.9001,-4.9001,-4.9001,-4.9001,-4.9001,-4.9001,-4.9001,-4.9001,-4.9001,-4.8925,-4.8832,-4.8832,-4.8532,-4.8195,-4.7902,-4.6724,-4.5841,-4.5405,-4.4655,-4.3823,-4.2879,-4.2468,-4.185,-4.098,-3.9948,-3.9388,-3.9388,-3.9388,-3.9388,-3.9388,-3.9388,-3.9388,-3.9388,-3.9388,-3.9298,-3.9185,-3.9185,-3.911,-3.899,-3.914,-3.9185,-3.9215,-3.9328,-3.9388,-3.9388,-3.9388,-3.9388,-3.9388,-3.9388,-3.9388,-3.9388,-3.9388,-3.9388,-3.9388,-3.9388,-3.9388,-3.9388,-3.9388,-3.9141,-3.8833,-3.8664,-3.7999,-3.7503,-3.7806,-3.7609,-3.7119,-3.6269,-3.5736,-3.5155,-3.4259,-3.3749,-3.342,-3.3148,-3.292,-3.2802,-3.2802,-3.2759,-3.2717,-3.2717,-3.2303,-3.1989,-3.1876,-3.1474,-3.1173,-3.1047,-3.1047,-3.1047,-3.1047,-3.0658,-3.0432,-3.0432,-3.0018,-2.9792,-2.9792,-2.9792,-2.9792,-2.9792,-2.9792,-2.9792,-2.9792,-2.9792,-2.9792,-2.9792,-2.9792,-2.9792,-2.9792,-2.9792,-2.9792,-2.9792,-2.9792,-2.9792,-2.9792,-2.9792,-2.9792,-2.9792,-4.9001,-4.9001,-4.9001,-4.9001,-4.9001,-4.9001,-4.9001,-4.9001,-4.9001,-4.9001,-4.8894,-4.8769,-4.8675,-4.8163,-4.7505,-4.6655,-4.5821,-4.5142,-4.473,-4.4166,-4.3642,-4.3193,-4.2692,-4.2246,-4.1886,-4.0876,-4.0202,-3.9888,-3.9574,-3.9388,-3.9388,-3.9388,-3.9388,-3.9388,-3.9388,-3.9388,-3.9388,-3.9388,-3.9388,-3.9388,-3.9388,-3.9388,-3.9388,-3.9388,-3.9388,-3.9388,-3.9388,-3.9388,-3.9388,-3.9388,-3.9388,-3.9388,-3.9388,-3.9388,-3.9388,-3.9388,-3.9337,-3.9265,-3.9265,-3.9106,-3.8879,-3.8667,-3.8321,-3.7921,-3.7585,-3.712,-3.6573,-3.5575,-3.5087,-3.4592,-3.3725,-3.3471,-3.3313,-3.3111,-3.3124,-3.3124,-3.3124,-3.3124,-3.3124,-3.3124,-3.2805,-3.2516,-3.224,-3.1712,-3.1386,-3.1386,-3.1386,-3.1386,-3.1386,-3.1135,-3.0984,-3.0984,-3.047,-3.0181,-3.0181,-2.993,-2.9792,-2.9792,-2.9792,-2.9792,-2.9792,-2.9792,-2.9792,-2.9792,-2.9792,-2.9792,-2.9792,-2.9792,-2.9792,-2.9792,-2.9792,-2.9792,-2.9792,-2.9792,-2.9702,-2.9611,-4.9001,-4.9001,-4.9001,-4.9001,-4.9001,-4.9001,-4.9001,-4.9001,-4.9001,-4.9001,-4.8815,-4.8627,-4.842,-4.7638,-4.662,-4.5369,-4.4933,-4.4572,-4.4205,-4.3832,-4.3636,-4.3636,-4.2938,-4.256,-4.256,-4.1931,-4.122,-4.0561,-4.0023,-3.9753,-3.9753,-3.9753,-3.9753,-3.9753,-3.9753,-3.9753,-3.9753,-3.9634,-3.9553,-3.9574,-3.9433,-3.9388,-3.9388,-3.9388,-3.9388,-3.9388,-3.9388,-3.9388,-3.9439,-3.9508,-3.9553,-3.9604,-3.9723,-3.9679,-3.9553,-3.9553,-3.9429,-3.9268,-3.9194,-3.9205,-3.9165,-3.8853,-3.8575,-3.813,-3.7129,-3.6517,-3.5939,-3.5096,-3.4778,-3.436,-3.3623,-3.3495,-3.3422,-3.325,-3.3174,-3.3124,-3.3124,-3.3124,-3.3124,-3.3124,-3.3124,-3.288,-3.2403,-3.1951,-3.1675,-3.1675,-3.1675,-3.1675,-3.1675,-3.1587,-3.1537,-3.1537,-3.1022,-3.0746,-3.0746,-3.0294,-3.0068,-3.0068,-3.0068,-2.9967,-2.9792,-2.9792,-2.9792,-2.9792,-2.9792,-2.9792,-2.9792,-2.9792,-2.9792,-2.9792,-2.9792,-2.9792,-2.9792,-2.9792,-2.965,-2.9419,-4.9001,-4.9001,-4.9001,-4.9001,-4.9001,-4.9001,-4.9001,-4.9001,-4.9001,-4.9001,-4.8595,-4.8195,-4.8,-4.6742,-4.5588,-4.4783,-4.4358,-4.4026,-4.3808,-4.3503,-4.3344,-4.3344,-4.3254,-4.317,-4.317,-4.2566,-4.1946,-4.125,-4.116,-4.1115,-4.1115,-4.1115,-4.1115,-4.1115,-4.1115,-4.1115,-4.107,-4.0502,-4.0262,-4.0217,-3.9649,-3.9388,-3.9388,-3.9388,-3.9388,-3.9388,-3.9388,-3.9388,-3.9514,-4.0083,-4.0262,-4.0367,-4.0935,-4.0726,-4.0262,-4.0262,-4.0129,-3.9906,-3.966,-3.9649,-3.9553,-3.8867,-3.8324,-3.7644,-3.6706,-3.608,-3.5495,-3.4813,-3.4469,-3.4165,-3.3872,-3.3828,-3.3828,-3.3784,-3.3382,-3.3124,-3.3124,-3.3124,-3.3124,-3.3124,-3.3124,-3.3086,-3.3011,-3.2893,-3.2855,-3.2855,-3.2855,-3.2855,-3.2855,-3.2378,-3.2102,-3.2102,-3.1574,-3.1286,-3.1286,-3.121,-3.1173,-3.1173,-3.1173,-3.0696,-2.9792,-2.9792,-2.9792,-2.9792,-2.9792,-2.9792,-2.9792,-2.9792,-2.9792,-2.9792,-2.9792,-2.9792,-2.9792,-2.9792,-2.965,-2.938,-4.9001,-4.9001,-4.9001,-4.9001,-4.9001,-4.9001,-4.9001,-4.9001,-4.897,-4.8894,-4.85,-4.8016,-4.7522,-4.6127,-4.4933,-4.4166,-4.3949,-4.3714,-4.3503,-4.3384,-4.329,-4.329,-4.329,-4.329,-4.329,-4.3045,-4.2761,-4.2476,-4.1743,-4.1422,-4.1422,-4.1422,-4.1422,-4.1422,-4.1422,-4.1422,-4.1392,-4.107,-4.095,-4.092,-4.0636,-4.0516,-4.0516,-4.0516,-4.0292,-3.9918,-3.9508,-3.9649,-4.0008,-4.0307,-4.0651,-4.0995,-4.1181,-4.1039,-4.0725,-4.0482,-4.0176,-3.9829,-3.9487,-3.9294,-3.902,-3.8403,-3.802,-3.763,-3.6929,-3.6276,-3.5607,-3.5002,-3.4775,-3.4629,-3.4406,-3.4361,-3.4361,-3.4361,-3.3897,-3.3533,-3.3533,-3.3269,-3.3124,-3.3124,-3.3124,-3.3124,-3.3124,-3.3124,-3.3124,-3.3124,-3.3124,-3.3124,-3.3124,-3.283,-3.2692,-3.2692,-3.2152,-3.1851,-3.1851,-3.1549,-3.1386,-3.1386,-3.1386,-3.1148,-3.0683,-3.0683,-3.0532,-3.0256,-3.0256,-3.008,-2.9792,-2.9792,-2.9792,-2.9792,-2.9792,-2.9792,-2.9792,-2.9792,-2.9495,-2.904]},{"header":{"parameterUnit":"m.s-1","parameterCategory":1,"la1":30.6,"la2":28.766,"lo1":-90.7593,"lo2":-88.6598,"dy":0.0162,"dx":0.0183,"nx":116,"ny":114,"refTime":"2024-04-11T12:00:00:Z","depth":0,"parameterNumber":3,"parameterNumberName":"V-component_of_WINDS"},"data":[0.0,0.0,0.0,0.0,0.0,0.0,0.0,0.0,0.0,0.0,0.0,0.0,0.0,0.0,0.0,0.0,0.0,0.0,0.0,0.0,0.0,0.0,0.0,0.0,0.0,0.0,0.0,0.0,0.0,0.0,0.0,0.0,0.0,0.0,0.0,0.0,0.0,0.0,0.0,0.0,0.0,0.0,0.0,0.0,0.0,0.0,0.0,0.0,0.0,0.0,0.0,0.0,0.0,0.0,0.0,0.0,0.0,0.0,0.0,0.0,0.0,0.0,0.0,0.0,0.0,0.0,0.0,0.0,0.0,0.0,0.0,0.0,0.0,0.0,0.0,0.0,0.0,0.0,0.0,0.0,0.0,0.0,0.0,0.0,0.0,0.0,0.0,0.0,0.0,0.0,0.0,0.0,0.0,0.0,0.0,0.0,0.0,0.0,0.0,0.0,0.0,0.0,0.0,0.0,0.0,0.0,0.0,0.0,0.0,0.0,0.0,0.0,0.0,0.0,0.0,0.0,0.0,0.0,0.0,0.0,0.0,0.0,0.0,0.0,0.0,0.0,0.0,0.0,0.0,0.0,0.0,0.0,0.0,0.0,0.0,0.0,0.0,0.0,0.0,0.0,0.0,0.0,0.0,0.0,0.0,0.0,0.0,0.0,0.0,0.0,0.0,0.0,0.0,0.0,0.0,0.0,0.0,0.0,0.0,0.0,0.0,0.0,0.0,0.0,0.0,0.0,0.0,0.0,0.0,0.0,0.0,0.0,0.0,0.0,0.0,0.0,0.0,0.0,0.0,0.0,0.0,0.0,0.0,0.0,0.0,0.0,0.0,0.0,0.0,0.0,0.0,0.0,0.0,0.0,0.0,0.0,0.0,0.0,0.0,0.0,0.0,0.0,0.0,0.0,0.0,0.0,0.0,0.0,0.0,0.0,0.0,0.0,0.0,0.0,0.0,0.0,0.0,0.0,0.0,0.0,0.0,0.0,0.0,0.0,0.0,0.0,0.0,0.0,0.0,0.0,0.0,0.0,0.0,0.0,0.0,0.0,0.0,0.0,0.0,0.0,0.0,0.0,0.0,0.0,0.0,0.0,0.0,0.0,0.0,0.0,0.0,0.0,0.0,0.0,0.0,0.0,0.0,0.0,0.0,0.0,0.0,0.0,0.0,0.0,0.0,0.0,0.0,0.0,0.0,0.0,0.0,0.0,0.0,0.0,0.0,0.0,0.0,0.0,0.0,0.0,0.0,0.0,0.0,0.0,0.0,0.0,0.0,0.0,0.0,0.0,0.0,0.0,0.0,0.0,0.0,0.0,0.0,0.0,0.0,0.0,0.0,0.0,0.0,0.0,0.0,0.0,0.0,0.0,0.0,0.0,0.0,0.0,0.0,0.0,0.0,0.0,0.0,0.0,0.0,0.0,0.0,0.0,0.0,0.0,0.0,0.0,0.0,0.0,0.0,0.0,0.0,0.0,0.0,0.0,0.0,0.0,0.0,0.0,0.0,0.0,0.0,0.0,0.0,0.0,0.0,0.0,0.0,0.0,0.0,0.0,0.0,0.0,0.0,0.0,0.0,0.0,0.0,0.0,0.0,0.0,0.0,0.0,0.0,0.0,0.0,0.0,0.0,0.0,0.0,0.0,0.0,0.0,0.0,0.0,0.0,0.0,0.0,0.0,0.0,0.0,0.0,0.0,0.0,0.0,0.0,0.0,0.0,0.0,0.0,0.0,0.0,0.0,0.0,0.0,0.0,0.0,0.0,0.0,0.0,0.0,0.0,0.0,0.0,0.0,0.0,0.0,0.0,0.0,0.0,0.0,0.0,0.0,0.0,0.0,0.0,0.0,0.0,0.0,0.0,0.0,0.0,0.0,0.0,0.0,0.0,0.0,0.0,0.0,0.0,0.0,0.0,0.0,0.0,0.0,0.0,0.0,0.0,0.0,0.0,0.0,0.0,0.0,0.0,0.0,0.0,0.0,0.0,0.0,0.0,0.0,0.0,0.0,0.0,0.0,0.0,0.0,0.0,0.0,0.0,0.0,0.0,0.0,0.0,0.0,0.0,0.0,0.0,0.0,0.0,0.0,0.0,0.0,0.0,0.0,0.0,0.0,0.0,0.0,0.0,0.0,0.0,0.0,0.0,0.0,0.0,0.0,0.0,0.0,0.0,0.0,0.0,0.0,0.0,0.0,0.0,0.0,0.0,0.0,0.0,0.0,0.0,0.0,0.0,0.0,0.0,0.0,0.0,0.0,0.0,0.0,0.0,0.0,0.0,0.0,0.0,0.0,0.0,0.0,0.0,0.0,0.0,0.0,0.0,0.0,0.0,0.0,0.0,0.0,0.0,0.0,0.0,0.0,0.0,0.0,0.0,0.0,0.0,0.0,0.0,0.0,0.0,0.0,0.0,0.0,0.0,0.0,0.0,0.0,0.0,0.0,0.0,0.0,0.0,0.0,0.0,0.0,0.0,0.0,0.0,0.0,0.0,0.0,0.0,0.0,0.0,0.0,0.0,0.0,0.0,0.0,0.0,0.0,0.0,0.0,0.0,0.0,0.0,0.0,0.0,0.0,0.0,0.0,0.0,0.0,0.0,0.0,0.0,0.0,0.0,0.0,0.0,0.0,0.0,0.0,0.0,0.0,0.0,0.0,0.0,0.0,0.0,0.0,0.0,0.0,0.0,0.0,0.0,0.0,0.0,0.0,0.0,0.0,0.0,0.0,0.0,0.0,0.0,0.0,0.0,0.0,0.0,0.0,0.0,0.0,0.0,0.0,0.0,0.0,0.0,0.0,0.0,0.0,0.0,0.0,0.0,0.0,0.0,0.0,0.0,0.0,0.0,0.0,0.0,0.0,0.0,0.0,0.0,0.0,0.0,0.0,0.0,0.0,0.0,0.0,0.0,0.0,0.0,0.0,0.0,0.0,0.0,0.0,0.0,0.0,0.0,0.0,0.0,0.0,0.0,0.0,0.0,0.0,0.0,0.0,0.0,0.0,0.0,0.0,0.0,0.0,0.0,0.0,0.0,0.0,0.0,0.0,0.0,0.0,0.0,0.0,0.0,0.0,0.0,0.0,0.0,0.0,0.0,0.0,0.0,0.0,0.0,0.0,0.0,0.0,0.0,0.0,0.0,0.0,0.0,0.0,0.0,0.0,0.0,0.0,0.0,0.0,0.0,0.0,0.0,0.0,0.0,0.0,0.0,0.0,0.0,0.0,0.0,0.0,0.0,0.0,0.0,0.0,0.0,0.0,0.0,0.0,0.0,0.0,0.0,0.0,0.0,0.0,0.0,0.0,0.0,0.0,0.0,0.0,0.0,0.0,0.0,0.0,0.0,0.0,0.0,0.0,0.0,0.0,0.0,0.0,0.0,0.0,0.0,0.0,0.0,0.0,0.0,0.0,0.0,0.0,0.0,0.0,0.0,0.0,0.0,0.0,0.0,0.0,0.0,0.0,0.0,0.0,0.0,0.0,0.0,0.0,0.0,0.0,0.0,0.0,0.0,0.0,0.0,0.0,0.0,0.0,0.0,0.0,0.0,0.0,0.0,0.0,0.0,0.0,0.0,0.0,0.0,0.0,0.0,0.0,0.0,0.0,0.0,0.0,0.0,0.0,0.0,0.0,0.0,0.0,0.0,0.0,0.0,0.0,0.0,0.0,0.0,0.0,0.0,0.0,0.0,0.0,0.0,0.0,0.0,0.0,0.0,0.0,0.0,0.0,0.0,0.0,0.0,0.0,0.0,0.0,0.0,0.0,0.0,0.0,0.0,0.0,0.0,0.0,0.0,0.0,0.0,0.0,0.0,0.0,0.0,0.0,0.0,0.0,0.0,0.0,0.0,0.0,0.0,0.0,0.0,0.0,0.0,0.0,0.0,0.0,0.0,0.0,0.0,0.0,0.0,0.0,0.0,0.0,0.0,0.0,0.0,0.0,0.0,0.0,0.0,0.0,0.0,0.0,0.0,0.0,0.0,0.0,0.0,0.0,0.0,0.0,0.0,0.0,0.0,0.0,0.0,0.0,0.0,0.0,0.0,0.0,0.0,0.0,0.0,0.0,0.0,0.0,0.0,0.0,0.0,0.0,0.0,0.0,0.0,0.0,0.0,0.0,0.0,0.0,0.0,0.0,0.0,0.0,0.0,0.0,0.0,0.0,0.0,0.0,0.0,0.0,0.0,0.0,0.0,0.0,0.0,0.0,0.0,0.0,0.0,0.0,0.0,0.0,0.0,0.0,0.0,0.0,0.0,0.0,0.0,0.0,0.0,0.0,0.0,0.0,0.0,0.0,0.0,0.0,0.0,0.0,0.0,0.0,0.0,0.0,0.0,0.0,0.0,0.0,0.0,0.0,0.0,0.0,0.0,0.0,0.0,0.0,0.0,0.0,0.0,0.0,0.0,0.0,0.0,0.0,0.0,0.0,0.0,0.0,0.0,0.0,0.0,0.0,0.0,0.0,0.0,0.0,0.0,0.0,0.0,0.0,0.0,0.0,0.0,0.0,0.0,0.0,0.0,0.0,0.0,0.0,0.0,0.0,0.0,0.0,0.0,0.0,0.0,0.0,0.0,0.0,0.0,0.0,0.0,0.0,0.0,0.0,0.0,0.0,0.0,0.0,0.0,0.0,0.0,0.0,0.0,0.0,0.0,0.0,0.0,0.0,0.0,0.0,0.0,0.0,0.0,0.0,0.0,0.0,0.0,0.0,0.0,0.0,0.0,0.0,0.0,0.0,0.0,0.0,0.0,0.0,0.0,0.0,0.0,0.0,0.0,0.0,0.0,0.0,0.0,0.0,0.0,0.0,0.0,0.0,0.0,0.0,0.0,0.0,0.0,0.0,0.0,0.0,0.0,0.0,0.0,0.0,0.0,0.0,0.0,0.0,0.0,0.0,0.0,0.0,0.0,0.0,0.0,0.0,0.0,0.0,0.0,0.0,0.0,0.0,0.0,0.0,0.0,0.0,0.0,0.0,0.0,0.0,0.0,0.0,0.0,0.0,0.0,0.0,0.0,0.0,0.0,0.0,0.0,0.0,0.0,0.0,0.0,0.0,0.0,0.0,0.0,0.0,0.0,0.0,0.0,0.0,0.0,0.0,0.0,0.0,0.0,0.0,0.0,0.0,0.0,0.0,0.0,0.0,0.0,0.0,0.0,0.0,0.0,0.0,0.0,0.0,0.0,0.0,0.0,0.0,0.0,0.0,0.0,0.0,0.0,0.0,0.0,0.0,0.0,0.0,0.0,0.0,0.0,0.0,0.0,0.0,0.0,0.0,0.0,0.0,0.0,0.0,0.0,0.0,0.0,0.0,0.0,0.0,0.0,0.0,0.0,0.0,0.0,0.0,0.0,0.0,0.0,0.0,0.0,0.0,0.0,0.0,0.0,0.0,0.0,0.0,0.0,0.0,0.0,0.0,0.0,0.0,0.0,0.0,0.0,0.0,0.0,0.0,0.0,0.0,0.0,0.0,0.0,0.0,0.0,0.0,0.0,0.0,0.0,0.0,0.0,0.0,0.0,0.0,0.0,0.0,0.0,0.0,0.0,0.0,0.0,0.0,0.0,0.0,0.0,0.0,0.0,0.0,0.0,0.0,0.0,0.0,0.0,0.0,0.0,0.0,0.0,0.0,0.0,0.0,0.0,0.0,0.0,0.0,0.0,0.0,0.0,0.0,0.0,0.0,0.0,0.0,0.0,0.0,0.0,0.0,0.0,0.0,0.0,0.0,0.0,0.0,0.0,0.0,0.0,0.0,0.0,0.0,0.0,0.0,0.0,0.0,0.0,0.0,0.0,0.0,0.0,0.0,0.0,0.0,0.0,0.0,0.0,0.0,0.0,0.0,0.0,0.0,0.0,0.0,0.0,0.0,0.0,0.0,0.0,0.0,0.0,0.0,0.0,0.0,0.0,0.0,0.0,0.0,0.0,0.0,0.0,0.0,0.0,0.0,0.0,0.0,0.0,0.0,0.0,0.0,0.0,0.0,0.0,0.0,0.0,0.0,0.0,0.0,0.0,0.0,0.0,0.0,0.0,0.0,0.0,0.0,0.0,0.0,0.0,0.0,0.0,0.0,0.0,0.0,0.0,0.0,0.0,0.0,0.0,0.0,0.0,0.0,0.2533,0.0,0.0,0.0,0.0,0.0,0.0,0.0,0.0,0.0,0.0,0.0,0.0,0.0,0.0,0.0,0.0,0.0,0.0,0.0,0.0,0.0,0.0,0.0,0.0,0.2554,0.2554,0.2554,0.2554,0.2554,0.2554,0.0,0.0,0.0,0.0,0.0,0.2554,0.2519,0.2579,0.2738,0.3533,0.4784,0.6435,0.6175,0.5714,0.5148,0.0,0.0,0.0,0.0,0.0,0.0,0.0,0.0,0.0,0.0,0.0,0.0,0.0,0.0,0.0,0.0,0.0,0.0,0.0,0.0,0.0,0.0,0.0,0.0,0.0,0.0,0.0,0.0,0.0,0.0,0.0,0.0,0.0,0.0,0.0,0.0,0.0,0.0,0.0,0.0,0.0,0.0,0.0,0.0,0.0,0.0,0.0,0.0,0.0,0.0,0.0,0.0,0.0,0.0,0.0,0.0,0.0,0.0,0.0,0.0,0.0,0.0,0.0,0.0,0.0,0.0,0.0,0.0,0.0,0.0,0.0,0.2412,0.0,0.0,0.0,0.0,0.0,0.0,0.0,0.0,0.0,0.0,0.0,0.0,0.0,0.0,0.0,0.0,0.0,0.0,0.0,0.0,0.0,0.2578,0.25,0.2505,0.2528,0.2579,0.2589,0.2606,0.2671,0.2616,0.0,0.0,0.0,0.2568,0.2568,0.2571,0.2856,0.3415,0.4952,0.671,0.8645,0.9138,0.8757,0.7583,0.6243,0.0,0.0,0.0,0.0,0.0,0.0,0.0,0.0,0.0,0.0,0.0,0.0,0.0,0.0,0.0,0.0,0.0,0.0,0.0,0.0,0.0,0.0,0.0,0.0,0.0,0.0,0.0,0.0,0.0,0.0,0.0,0.0,0.0,0.0,0.0,0.0,0.0,0.0,0.0,0.0,0.0,0.0,0.0,0.0,0.0,0.0,0.0,0.0,0.0,0.0,0.0,0.0,0.0,0.0,0.0,0.0,0.0,0.0,0.0,0.0,0.0,0.0,0.0,0.0,0.3007,0.3007,0.3007,0.3255,0.363,0.3024,0.2959,0.3225,0.0,0.0,0.0,0.0,0.0,0.0,0.0,0.0,0.0,0.0,0.0,0.0,0.0,0.0,0.0,0.0,0.0,0.0,0.0,0.0,0.2573,0.251,0.2505,0.2616,0.291,0.2931,0.3052,0.3348,0.31,0.2904,0.2847,0.2847,0.2844,0.2846,0.3127,0.387,0.5087,0.8159,1.0046,1.0798,1.1107,1.1309,1.1338,0.9984,0.0,0.0,0.0,0.0,0.0,0.0,0.0,0.0,0.0,0.0,0.0,0.0,0.0,0.0,0.0,0.0,0.0,0.0,0.0,0.0,0.0,0.0,0.0,0.0,0.0,0.0,0.0,0.0,0.0,0.0,0.0,0.0,0.0,0.0,0.0,0.0,0.0,0.0,0.0,0.0,0.0,0.0,0.0,0.3589,0.2903,0.0,0.0,0.0,0.0,0.0,0.0,0.0,0.0,0.0,0.0,0.0,0.0,0.0,0.0,0.3778,0.3802,0.3816,0.3816,0.3832,0.3843,0.3843,0.3843,0.3877,0.3952,0.3849,0.0,0.3281,0.3151,0.0,0.0,0.0,0.0,0.0,0.0,0.0,0.0,0.0,0.0,0.0,0.0,0.0,0.0,0.0,0.0,0.0,0.0,0.0,0.0,0.0,0.3291,0.3835,0.4359,0.4752,0.4857,0.4585,0.4222,0.3742,0.3145,0.3013,0.2957,0.2958,0.3697,0.535,0.793,1.0079,1.1678,1.2798,1.3348,1.3615,1.3607,1.3476,1.2075,0.9782,0.9086,0.0,0.0,0.0,0.0,0.0,0.0,0.0,0.0,0.0,0.0,0.0,0.0,0.0,0.0,0.0,0.0,0.0,0.0,0.0,0.0,0.0,0.0,0.0,0.0,0.0,0.0,0.0,0.0,0.0,0.0,0.0,0.0,0.0,0.0,0.0,0.0,0.0,0.0,0.0,0.3096,0.3255,0.2735,0.2997,0.2853,0.0,0.0,0.0,0.0,0.0,0.0,0.0,0.0,0.0,0.3331,0.3457,0.3716,0.4119,0.4287,0.4399,0.4399,0.4484,0.4496,0.4496,0.4496,0.4496,0.4493,0.4433,0.4225,0.3941,0.3531,0.3058,0.2553,0.0,0.0,0.0,0.0,0.0,0.271,0.0,0.0,0.0,0.0,0.0,0.0,0.0,0.0,0.0,0.0,0.0,0.0,0.3483,0.4548,0.5506,0.6133,0.6562,0.6482,0.5733,0.5191,0.4435,0.3369,0.3177,0.3088,0.3079,0.4752,0.7056,1.0003,1.1579,1.2946,1.4088,1.485,1.5134,1.4981,1.5527,1.408,1.1217,1.0575,0.9621,0.0,0.0,0.0,0.0,0.0,0.0,0.0,0.0,0.0,0.0,0.0,0.0,0.0,0.0,0.0,0.0,0.0,0.0,0.0,0.0,0.0,0.0,0.0,0.0,0.0,0.0,0.0,0.0,0.0,0.0,0.0,0.0,0.0,0.0,0.0,0.0,0.0,0.0,0.2904,0.3111,0.2833,0.3151,0.3059,0.0,0.0,0.0,0.0,0.0,0.0,0.3351,0.3185,0.3266,0.3691,0.3863,0.4083,0.4388,0.464,0.4748,0.4752,0.4863,0.4887,0.4887,0.4887,0.4887,0.4881,0.4799,0.4684,0.4556,0.388,0.3512,0.3307,0.2656,0.2348,0.2297,0.27,0.3042,0.3378,0.0,0.0,0.0,0.0,0.0,0.0,0.0,0.0,0.0,0.0,0.0,0.4672,0.4873,0.6304,0.7472,0.8027,0.781,0.7301,0.6501,0.565,0.4648,0.345,0.3381,0.3353,0.3286,0.6651,0.9004,1.0279,1.2897,1.4195,1.4289,1.4914,1.5287,1.5445,1.5223,1.4842,1.4273,1.3046,1.2064,1.1063,0.0,0.0,0.0,0.0,0.0,0.0,0.0,0.0,0.0,0.0,0.0,0.0,0.0,0.0,0.0,0.0,0.0,0.0,0.0,0.0,0.0,0.0,0.0,0.0,0.0,0.0,0.0,0.0,0.0,0.0,0.0,0.0,0.0,0.0,0.0,0.0,0.0,0.0,0.0,0.3645,0.3611,0.0,0.0,0.0,0.0,0.3693,0.3455,0.3677,0.4555,0.4301,0.4348,0.4796,0.4817,0.4833,0.4854,0.487,0.4877,0.4877,0.4884,0.4887,0.4887,0.4887,0.4887,0.4887,0.4881,0.4874,0.483,0.4368,0.3819,0.3303,0.3259,0.3007,0.2723,0.3131,0.3286,0.337,0.0,0.0,0.0,0.0,0.0,0.2708,0.265,0.2583,0.2619,0.2856,0.4061,0.513,0.5762,0.7745,0.9234,0.976,0.997,0.9609,0.8509,0.7177,0.5852,0.4547,0.3872,0.4304,0.597,0.8473,1.0613,1.2359,1.386,1.4796,1.5228,1.5613,1.5718,1.563,1.5826,1.5817,1.549,1.4317,1.3173,1.1999,1.037,0.8612,0.0,0.0,0.0,0.0,0.0,0.0,0.0,0.0,0.0,0.0,0.0,0.0,0.0,0.0,0.0,0.0,0.0,0.0,0.0,0.0,0.0,0.0,0.0,0.0,0.0,0.0,0.0,0.0,0.0,0.0,0.0,0.0,0.0,0.0,0.0,0.0,0.0,0.3531,0.3795,0.0,0.0,0.3748,0.3865,0.4048,0.423,0.4473,0.4819,0.4709,0.4722,0.4884,0.4975,0.5022,0.5022,0.5155,0.5235,0.5235,0.5235,0.5235,0.5235,0.5235,0.5235,0.5231,0.5098,0.5022,0.5005,0.4753,0.4527,0.4331,0.4331,0.4233,0.4141,0.4274,0.4271,0.4236,0.0,0.0,0.0,0.0,0.0,0.268,0.2612,0.2544,0.2764,0.3479,0.4879,0.6252,0.7383,0.9577,1.1123,1.1492,1.1611,1.0932,0.9169,0.7807,0.632,0.4636,0.4392,0.5547,0.8181,0.9876,1.1641,1.3533,1.4467,1.5171,1.5582,1.5862,1.591,1.5724,1.5945,1.6121,1.6154,1.5334,1.4348,1.3228,1.1901,1.0167,0.8288,0.0,0.0,0.0,0.0,0.0,0.0,0.0,0.0,0.0,0.0,0.0,0.0,0.0,0.0,0.0,0.0,0.0,0.0,0.0,0.0,0.0,0.0,0.0,0.0,0.0,0.0,0.0,0.0,0.0,0.0,0.0,0.0,0.0,0.0,0.0,0.3962,0.3791,0.4256,0.4507,0.4235,0.445,0.4597,0.4597,0.4948,0.5145,0.5145,0.5189,0.5216,0.5216,0.5275,0.5322,0.5322,0.5457,0.5542,0.5542,0.5542,0.5542,0.5542,0.5542,0.5542,0.5535,0.5352,0.5255,0.5274,0.5128,0.5067,0.506,0.4958,0.4887,0.4887,0.4887,0.4853,0.4762,0.0,0.0,0.0,0.0,0.0,0.268,0.2612,0.2544,0.2986,0.4353,0.6206,0.8043,0.9758,1.182,1.309,1.3084,1.2541,1.107,0.8394,0.745,0.5974,0.3672,0.5022,0.7054,0.9666,1.0889,1.2175,1.364,1.4836,1.5398,1.5418,1.5698,1.5784,1.5771,1.5538,1.5773,1.6373,1.6177,1.5685,1.4874,1.2838,1.1614,1.0747,0.0,0.0,0.0,0.0,0.0,0.0,0.0,0.0,0.0,0.0,0.0,0.0,0.0,0.0,0.0,0.0,0.0,0.0,0.0,0.0,0.0,0.0,0.0,0.0,0.0,0.0,0.0,0.0,0.0,0.0,0.0,0.0,0.0,0.3574,0.399,0.4378,0.4508,0.5047,0.5409,0.5409,0.5409,0.5409,0.5409,0.5545,0.5596,0.5596,0.5728,0.58,0.58,0.58,0.58,0.58,0.58,0.58,0.58,0.58,0.58,0.58,0.58,0.58,0.5793,0.5657,0.5596,0.5586,0.547,0.5409,0.5378,0.5047,0.4904,0.4904,0.4904,0.4897,0.4874,0.0,0.0,0.0,0.2816,0.2697,0.2622,0.2607,0.2544,0.3176,0.506,0.653,0.8284,1.0595,1.2071,1.2831,1.2739,1.2254,1.1027,0.8782,0.7618,0.6434,0.5148,0.7348,0.0,1.0601,1.2175,1.3547,1.4603,1.5137,1.5504,1.5712,1.5792,1.5784,1.5778,1.5698,1.59,1.6254,1.6309,1.6155,1.5854,1.4793,1.3324,1.1676,0.0,0.0,0.0,0.0,0.0,0.0,0.0,0.0,0.0,0.0,0.0,0.0,0.0,0.0,0.0,0.0,0.0,0.0,0.0,0.0,0.0,0.0,0.0,0.0,0.0,0.0,0.0,0.0,0.0,0.0,0.0,0.0,0.4198,0.409,0.4666,0.5139,0.5296,0.5518,0.5681,0.5681,0.5681,0.5681,0.5681,0.5718,0.5742,0.5742,0.5779,0.58,0.58,0.58,0.58,0.58,0.58,0.58,0.58,0.58,0.58,0.58,0.58,0.58,0.58,0.5762,0.5742,0.5739,0.5698,0.5681,0.565,0.5388,0.5272,0.5272,0.5272,0.5169,0.5019,0.0,0.0,0.0,0.2769,0.2664,0.2602,0.2603,0.2549,0.3341,0.5667,0.6765,0.8379,1.1142,1.2113,1.2535,1.2475,1.1545,1.0211,0.8363,0.7134,0.672,0.7348,0.0,1.0815,1.2078,1.348,1.4509,1.5189,1.5438,1.5665,1.5784,1.5784,1.5784,1.5784,1.5784,1.5927,1.6211,1.6399,1.6415,1.632,1.5932,1.4744,1.3101,1.2235,1.1038,0.9755,0.9346,0.8824,0.8098,0.6679,0.0,0.0,0.0,0.0,0.0,0.0,0.0,0.0,0.0,0.0,0.0,0.0,0.0,0.0,0.0,0.0,0.0,0.0,0.0,0.0,0.0,0.0,0.0,0.0,0.4552,0.504,0.5137,0.5443,0.5698,0.589,0.6051,0.6179,0.6179,0.6179,0.6179,0.6179,0.6179,0.6179,0.6179,0.6179,0.6179,0.6179,0.6115,0.6081,0.6081,0.6023,0.6023,0.6081,0.6081,0.6081,0.6081,0.6081,0.6051,0.0,0.5925,0.5895,0.5891,0.5827,0.58,0.0,0.0,0.0,0.0,0.0,0.5264,0.5086,0.0,0.0,0.0,0.2737,0.265,0.2602,0.2603,0.2534,0.3468,0.6199,0.6881,0.8309,1.1413,1.1921,1.2043,1.2084,1.0561,0.9012,0.7584,0.6647,0.7255,0.9726,1.0768,1.2078,1.3713,1.4589,1.5202,1.5444,1.5705,1.5784,1.5784,1.5784,1.5784,1.5784,1.5784,1.5927,1.617,1.6447,1.6474,1.6412,1.6458,1.5828,1.466,1.3339,1.2278,1.138,1.0382,0.944,0.8623,0.8128,0.0,0.0,0.0,0.0,0.0,0.0,0.0,0.0,0.0,0.0,0.0,0.0,0.0,0.0,0.0,0.0,0.0,0.0,0.0,0.0,0.0,0.0,0.0,0.0,0.5552,0.6124,0.6286,0.6196,0.6176,0.6334,0.6539,0.6702,0.6702,0.6702,0.6702,0.6702,0.6702,0.6702,0.6702,0.0,0.0,0.0,0.0,0.6538,0.6538,0.6412,0.6412,0.6538,0.6538,0.6538,0.6538,0.6538,0.646,0.6317,0.6139,0.6033,0.601,0.5908,0.5854,0.585,0.5817,0.5725,0.5596,0.5477,0.5301,0.5147,0.0,0.0,0.0,0.2793,0.2678,0.2602,0.2603,0.249,0.3503,0.6515,0.6697,0.7845,1.1198,1.1159,1.09,1.0921,0.9719,0.8544,0.7551,0.8402,0.9459,1.0688,1.2278,1.3627,1.4727,1.5104,1.5451,1.5698,1.5751,1.5784,1.5784,1.5784,1.5784,1.5784,1.5784,1.5832,1.5879,1.617,1.6278,1.6277,1.6497,1.61,1.5331,1.4973,1.4259,1.342,1.3214,1.2514,1.1539,1.0051,0.916,0.838,0.6848,0.0,0.0,0.0,0.0,0.0,0.0,0.0,0.0,0.0,0.0,0.0,0.0,0.0,0.0,0.0,0.0,0.0,0.0,0.0,0.0,0.5105,0.5847,0.6402,0.6463,0.6617,0.668,0.6627,0.6664,0.6702,0.6702,0.6702,0.6702,0.6702,0.6702,0.6702,0.6702,0.6702,0.0,0.6702,0.6671,0.6658,0.6658,0.6627,0.6627,0.6658,0.0,0.0,0.6658,0.6658,0.6573,0.647,0.6439,0.6361,0.6252,0.6224,0.6211,0.6187,0.5898,0.5783,0.5742,0.5599,0.5525,0.5484,0.0,0.0,0.0,0.2816,0.2717,0.2641,0.2607,0.2515,0.3245,0.5457,0.552,0.6306,0.8827,0.8675,0.8528,0.8823,0.8257,0.7782,0.7527,0.8998,1.0561,1.2037,1.3333,1.4429,1.5164,1.5464,1.5685,1.5784,1.5784,1.5784,1.5784,1.5784,1.5784,1.5791,1.5985,1.6052,1.6059,1.6358,1.6386,1.6251,1.6388,1.6121,1.5656,1.5714,1.5126,1.4204,1.4319,1.3617,1.2472,1.1579,1.083,1.0059,0.8958,0.7893,0.6787,0.0,0.0,0.0,0.0,0.0,0.0,0.0,0.0,0.0,0.0,0.0,0.0,0.0,0.0,0.4759,0.0,0.0,0.5559,0.588,0.6521,0.6965,0.6965,0.7119,0.7153,0.6851,0.6878,0.6919,0.6919,0.6919,0.6919,0.6919,0.6919,0.6919,0.6919,0.6919,0.6919,0.6919,0.6851,0.6814,0.6814,0.6739,0.6739,0.6814,0.6814,0.6814,0.6814,0.6814,0.6732,0.6586,0.6586,0.6546,0.6474,0.6436,0.6364,0.6282,0.6129,0.5983,0.5898,0.5749,0.5694,0.5684,0.0,0.0,0.0,0.2826,0.2751,0.268,0.2612,0.2549,0.298,0.4324,0.4338,0.4822,0.638,0.6247,0.6187,0.6545,0.6955,0.7321,0.0,0.9512,1.1476,1.338,1.4249,1.4937,1.5471,1.5712,1.5784,1.5784,1.5784,1.5784,1.5784,1.5784,1.5811,1.5925,1.6166,1.6355,1.6373,1.6607,1.654,1.6321,1.6321,1.6092,1.5792,1.5915,1.5363,1.4547,1.4648,1.3794,1.2651,1.2651,1.2107,1.1356,1.0975,1.0007,0.8738,0.7095,0.6311,0.0,0.0,0.0,0.0,0.0,0.0,0.0,0.0,0.0,0.6163,0.6074,0.5899,0.5905,0.629,0.6275,0.6349,0.6746,0.716,0.746,0.746,0.7495,0.7421,0.7058,0.7071,0.7129,0.7098,0.7095,0.7109,0.7139,0.7139,0.7152,0.7183,0.7186,0.7186,0.7186,0.7045,0.7017,0.7017,0.6861,0.6848,0.6927,0.6927,0.6927,0.6927,0.6927,0.6888,0.6742,0.6712,0.6702,0.6692,0.6566,0.6491,0.6381,0.6354,0.6224,0.6095,0.5911,0.5844,0.584,0.0,0.0,0.0,0.0,0.0,0.268,0.2612,0.2549,0.2977,0.4327,0.4171,0.4464,0.5837,0.5693,0.5277,0.475,0.6666,0.8014,0.8275,1.0928,1.3065,1.4315,1.497,1.5451,1.5724,1.5764,1.5784,1.5784,1.5784,1.5784,1.5784,1.5784,1.5972,1.6274,1.6259,1.642,1.666,1.6693,1.654,1.6321,1.6321,1.6092,1.5798,1.5551,1.5261,1.4919,1.4606,1.379,1.2775,1.2775,1.2167,1.1422,1.1698,1.0915,0.9726,0.8516,0.0,0.6827,0.6693,0.7126,0.7672,0.7986,0.7495,0.6915,0.0,0.0,0.7789,0.7386,0.7617,0.7825,0.7724,0.745,0.7239,0.731,0.7451,0.7573,0.7573,0.7472,0.7422,0.7371,0.7336,0.7292,0.7109,0.7095,0.7152,0.7336,0.7346,0.7404,0.7543,0.755,0.755,0.755,0.74,0.7322,0.7322,0.717,0.7055,0.7071,0.7071,0.7071,0.7071,0.7071,0.6994,0.6852,0.6759,0.6702,0.6698,0.6681,0.6664,0.6637,0.6542,0.6477,0.639,0.6108,0.5966,0.5946,0.0,0.0,0.0,0.0,0.0,0.268,0.2612,0.2549,0.2703,0.3267,0.3129,0.3186,0.3747,0.3755,0.3582,0.3259,0.5626,0.7339,0.7849,1.0703,1.2968,1.4208,1.483,1.5357,1.5771,1.5784,1.5784,1.5784,1.5784,1.5784,1.5784,1.5784,1.5985,1.6328,1.6446,1.6687,1.6974,1.7148,1.6947,1.6526,1.6526,1.6146,1.5545,1.5257,1.475,1.4108,1.346,1.2472,0.0,0.0,1.1035,1.0555,1.1363,1.0808,0.9699,0.8871,0.8237,0.0,0.81,0.8469,0.0,0.0,0.9216,0.9124,0.9321,0.9458,0.9466,0.9118,0.8781,0.843,0.8218,0.7873,0.7646,0.0,0.7756,0.7855,0.7855,0.7723,0.7597,0.7512,0.7424,0.7312,0.7109,0.7221,0.7302,0.7412,0.7455,0.7533,0.7597,0.76,0.76,0.76,0.7539,0.7506,0.7506,0.7353,0.7275,0.7275,0.7139,0.7095,0.7095,0.7095,0.7065,0.7004,0.694,0.6909,0.6834,0.6834,0.678,0.6695,0.663,0.6607,0.6569,0.6271,0.6166,0.6156,0.0,0.0,0.0,0.0,0.0,0.2699,0.2617,0.2544,0.2505,0.2505,0.2412,0.2337,0.2302,0.2385,0.2435,0.2427,0.4639,0.6481,0.7543,1.0253,1.2508,1.4054,1.4696,1.5291,1.5879,1.5893,1.5886,1.5927,1.5927,1.5879,1.5784,1.5784,1.5985,1.6328,1.6592,1.6951,1.7315,1.7547,1.735,1.6893,1.6774,1.6177,1.5308,1.4902,1.3978,1.2787,1.2171,1.1276,0.0,0.0,0.9521,0.9266,1.0137,0.982,0.9052,0.8764,0.8651,0.8665,0.8815,0.0,0.0,1.0319,1.0723,1.1052,1.1366,1.122,1.0914,1.0479,0.9719,0.8995,0.8582,0.8139,0.0,0.7804,0.7902,0.7941,0.7985,0.7875,0.7716,0.7611,0.7428,0.7261,0.7105,0.7282,0.7436,0.7431,0.7573,0.7678,0.7719,0.7723,0.7723,0.7723,0.7682,0.7658,0.7658,0.7509,0.746,0.7415,0.7258,0.7136,0.7098,0.7139,0.7204,0.7204,0.7204,0.7146,0.7048,0.696,0.6879,0.6817,0.678,0.6763,0.6732,0.6478,0.6422,0.6422,0.0,0.0,0.0,0.0,0.0,0.2755,0.2621,0.2544,0.2505,0.2505,0.25,0.2441,0.2312,0.2309,0.2355,0.2485,0.3946,0.5722,0.7743,0.9855,1.1977,1.4107,1.4789,1.5408,1.6074,1.6088,1.6102,1.6177,1.6177,1.6028,1.5784,1.5784,1.5985,1.6321,1.6585,1.7018,1.7609,1.7717,1.7669,1.7449,1.7046,1.6232,1.5212,1.4372,1.2811,1.1069,1.1042,0.0,0.0,0.0,0.7796,0.7618,0.7905,0.7802,0.0,0.8241,0.8778,0.0,0.0,0.0,1.0794,1.1392,1.1864,1.2218,1.2512,1.2447,1.2081,1.1169,1.0542,0.9896,0.8943,0.8279,0.7881,0.7787,0.7814,0.7868,0.7968,0.779,0.7604,0.76,0.7333,0.7102,0.0,0.7282,0.7434,0.7584,0.7726,0.7868,0.7968,0.7975,0.7975,0.7975,0.7882,0.7804,0.7804,0.7662,0.7519,0.7415,0.7412,0.7285,0.7102,0.7295,0.7409,0.7409,0.7409,0.7409,0.7392,0.7197,0.7088,0.7068,0.6933,0.6879,0.6859,0.6746,0.6685,0.6726,0.0,0.0,0.0,0.0,0.0,0.0,0.2674,0.2612,0.2568,0.2568,0.2524,0.0,0.0,0.0,0.0,0.0,0.3609,0.4912,0.6092,0.8668,1.0882,1.2543,1.4014,1.5068,1.5705,1.572,1.5691,1.5756,1.5883,1.5901,1.5812,1.6024,1.6285,1.6575,1.6675,1.6996,1.752,1.7603,1.7312,1.6798,1.6557,1.5575,1.4164,1.2735,1.1349,0.9893,0.0,0.0,0.0,0.6573,0.6259,0.6184,0.7033,0.6833,0.0,0.7248,0.8176,0.0,0.0,0.0,1.143,1.1951,1.2442,1.2812,1.2925,1.2666,1.2224,1.1533,1.0312,0.917,0.859,0.7854,0.7325,0.7229,0.7504,0.7754,0.7726,0.7577,0.7448,0.7448,0.7265,0.0,0.0,0.0,0.0,0.7597,0.7824,0.7934,0.7985,0.7988,0.7988,0.7988,0.7941,0.7914,0.7914,0.7814,0.7716,0.7662,0.7567,0.7495,0.7448,0.7499,0.7522,0.7516,0.746,0.7415,0.7405,0.7204,0.7095,0.7092,0.7045,0.7024,0.7018,0.6967,0.7083,0.7228,0.0,0.0,0.0,0.0,0.0,0.0,0.0,0.0,0.0,0.0,0.0,0.0,0.0,0.0,0.0,0.0,0.0,0.0,0.5032,0.0,0.9147,1.0594,1.2186,1.3312,1.3933,1.4096,1.4179,1.4184,1.4715,1.4907,1.4801,1.5548,1.6015,1.617,1.6514,1.6869,1.7281,1.7351,1.6852,1.5993,1.5443,1.4154,1.2366,1.0901,0.9494,0.0,0.0,0.0,0.0,0.4915,0.5002,0.5271,0.6126,0.6593,0.6827,0.696,0.839,0.0,0.0,1.1559,1.2462,1.2903,1.3336,1.3625,1.3543,1.3258,1.2785,1.19,1.0459,0.9048,0.8312,0.7575,0.7006,0.679,0.7264,0.7654,0.7685,0.7546,0.7472,0.7522,0.7397,0.0,0.0,0.0,0.0,0.7604,0.7872,0.7988,0.7988,0.7988,0.7988,0.7988,0.7988,0.7988,0.7988,0.7891,0.7865,0.7811,0.7665,0.76,0.76,0.7749,0.7821,0.7814,0.7841,0.7862,0.7844,0.7715,0.7625,0.7625,0.7625,0.7625,0.7625,0.7625,0.7848,0.8129,0.0,0.0,0.0,0.0,0.0,0.0,0.0,0.0,0.0,0.0,0.0,0.0,0.0,0.0,0.0,0.0,0.0,0.0,0.0,0.0,0.0,0.8404,0.9531,1.0433,1.1117,1.1516,1.1725,1.1714,1.2816,1.3191,1.291,1.4335,1.4963,1.5018,1.5885,1.6399,1.6619,1.6775,1.6112,1.4868,1.3786,1.2045,0.9987,0.8902,0.0,0.0,0.0,0.0,0.0,0.0,0.0,0.0,0.0,0.0,0.8597,0.7493,0.9419,1.1884,1.1742,1.2713,1.3827,1.4199,1.4493,1.4598,1.4279,1.4155,1.3713,1.2319,1.0897,0.9542,0.0,0.0,0.6849,0.6475,0.7012,0.7561,0.7729,0.7702,0.7688,0.0,0.0,0.0,0.0,0.0,0.0,0.7621,0.0,0.7988,0.7988,0.7988,0.7988,0.7988,0.7988,0.7988,0.7988,0.7988,0.7917,0.7821,0.7685,0.7621,0.7628,0.801,0.8222,0.826,0.8611,0.8722,0.8742,0.8666,0.8648,0.8648,0.864,0.8636,0.8636,0.8636,0.8947,0.9257,0.0,0.0,0.0,0.0,0.0,0.0,0.0,0.0,0.0,0.0,0.0,0.0,0.0,0.0,0.0,0.0,0.0,0.0,0.0,0.0,0.0,0.0,0.0,0.0,0.0,0.0,0.0,0.0,1.1003,1.1164,1.1072,1.1687,1.2012,1.202,1.2598,1.2797,1.2751,1.3063,1.2682,1.1816,0.0,1.03,0.8868,0.0,0.0,0.0,0.0,0.0,0.0,0.0,0.0,0.0,0.0,0.0,0.8918,0.9521,0.0,1.2075,1.2936,1.3763,1.4416,1.4545,1.46,1.4564,1.4279,1.3756,1.3108,1.232,1.0411,0.8649,0.0,0.0,0.0,0.5678,0.656,0.0,0.7355,0.7705,0.0,0.0,0.0,0.7879,0.7879,0.7822,0.0,0.0,0.8034,0.7988,0.7988,0.7988,0.7988,0.7988,0.7988,0.7988,0.7988,0.7988,0.7971,0.7931,0.7894,0.7877,0.7929,0.821,0.8474,0.8659,0.9076,0.9331,0.9492,0.9399,0.933,0.9317,0.9121,0.9061,0.9061,0.9061,0.9331,0.9772,0.0,0.0,0.0,0.0,0.0,0.0,0.0,0.0,0.0,0.0,0.0,0.0,0.0,0.0,0.0,0.0,0.0,0.0,0.0,0.0,0.0,0.0,0.0,0.0,0.0,0.0,0.0,0.0,0.0,0.0,0.9185,1.0061,1.046,1.0477,1.0974,1.1148,1.1044,1.128,0.0,0.0,0.0,0.0,0.0,0.0,0.0,0.0,0.0,0.0,0.0,0.0,0.0,0.7108,0.8435,0.9735,1.0842,1.1404,0.0,1.3627,1.4408,1.4995,1.5384,1.5401,1.5163,1.4727,1.3925,1.3217,1.2354,1.1211,0.9402,0.0,0.0,0.0,0.0,0.0,0.0,0.0,0.8277,0.8616,0.889,0.0,0.8848,0.0,0.8704,0.8639,0.8646,0.0,0.8439,0.8233,0.8333,0.8333,0.8333,0.8333,0.8333,0.8386,0.8538,0.8634,0.8684,0.8684,0.8684,0.8684,0.8733,0.9126,0.9422,0.9706,0.0,1.0682,1.0944,1.1023,1.0965,1.0865,1.073,1.0576,1.0448,1.0448,1.0669,1.1068,0.0,0.0,0.0,0.0,0.0,0.0,0.0,0.0,0.0,0.0,0.2612,0.2603,0.0,0.0,0.0,0.0,0.0,0.0,0.0,0.0,0.0,0.0,0.0,0.0,0.0,0.0,0.0,0.0,0.0,0.0,0.0,0.0,0.0,0.0,0.0,0.0,0.0,0.0,0.0,0.0,0.0,0.0,0.0,0.0,0.0,0.0,0.0,0.0,0.0,0.0,0.798,0.8791,1.0385,1.2017,1.3347,1.3192,1.4258,1.5524,1.5804,1.6106,1.6308,1.6226,1.5745,1.4897,1.3427,1.2592,1.1608,0.9711,0.0,0.0,0.6371,0.0,0.6235,0.6565,0.0,0.8749,0.9615,0.9784,0.9932,1.0181,0.9969,0.9772,0.9776,0.9727,0.9727,0.9826,0.9175,0.8829,0.8973,0.8973,0.8973,0.8973,0.8973,0.9076,0.9331,0.9579,0.9723,0.9723,0.9723,0.9723,0.9727,1.0265,1.0659,1.0939,0.0,0.0,1.2561,1.2917,1.2915,1.2667,1.2597,1.2391,1.2146,1.2112,1.2272,1.2534,0.0,0.0,0.0,0.0,0.0,0.0,0.0,0.0,0.0,0.0,0.2664,0.2597,0.0,0.0,0.0,0.0,0.0,0.0,0.0,0.0,0.0,0.0,0.0,0.0,0.0,0.0,0.0,0.0,0.0,0.0,0.0,0.0,0.0,0.0,0.0,0.0,0.0,0.0,0.0,0.0,0.0,0.0,0.0,0.0,0.0,0.0,0.0,0.0,0.0,0.0,0.8422,0.9444,1.1712,1.3253,1.4376,1.481,1.5324,1.5872,1.6406,1.6413,1.6213,1.5965,1.5284,1.4282,1.2799,1.1817,0.0,0.0,0.0,0.6951,0.6531,0.0,0.0,0.6203,0.0,0.0,0.0,0.0,0.0,0.0,0.0,0.0,0.0,0.0,0.0,0.0,0.0,0.0,0.9821,0.9768,0.9768,0.9768,0.9768,0.992,1.0167,1.0216,1.0265,1.0265,1.0265,1.0265,1.0265,1.0806,1.1194,1.1536,0.0,0.0,1.3329,1.3608,1.3716,1.3626,1.3183,1.2979,1.2963,1.2697,1.2747,1.2966,0.0,0.0,0.0,0.0,0.0,0.0,0.0,0.299,0.2932,0.286,0.2765,0.2684,0.2612,0.2598,0.2598,0.0,0.0,0.0,0.0,0.0,0.0,0.0,0.0,0.0,0.0,0.0,0.0,0.0,0.0,0.0,0.0,0.0,0.0,0.0,0.0,0.0,0.0,0.0,0.0,0.0,0.0,0.0,0.0,0.0,0.0,0.0,0.0,0.0,0.0,0.0,0.7725,0.8864,1.1665,1.3547,1.4776,1.4903,1.5578,1.638,1.682,1.672,1.6426,1.6132,1.5284,1.3968,1.1877,0.0,0.0,0.0,0.0,0.6107,0.6035,0.0,0.0,0.0,0.0,0.0,0.0,0.0,0.0,0.0,0.0,0.0,0.0,0.0,0.0,0.0,0.0,0.0,1.1096,1.1047,1.1047,1.1047,1.1282,1.1473,1.1619,1.1863,1.2009,1.2009,1.2009,1.2009,1.2014,1.2403,1.2748,1.3039,1.3811,0.0,1.4567,1.4776,1.4831,1.4671,1.4391,1.4244,1.4103,1.3969,1.3872,1.383,0.0,0.0,0.0,0.0,0.0,0.0,0.3131,0.3072,0.2999,0.295,0.2868,0.2773,0.2659,0.2617,0.2598,0.0,0.0,0.0,0.0,0.0,0.0,0.0,0.0,0.0,0.0,0.0,0.0,0.0,0.0,0.0,0.0,0.0,0.0,0.0,0.0,0.0,0.0,0.0,0.0,0.0,0.0,0.0,0.0,0.0,0.0,0.0,0.0,0.0,0.0,0.0,0.689,0.7918,1.049,1.2656,1.4235,1.4382,1.5331,1.6453,1.7052,1.6985,1.662,1.6266,1.5297,1.3714,1.1022,0.974,0.0,0.0,0.0,0.5428,0.5599,0.0,0.0,0.0,0.0,0.0,0.0,0.0,0.0,0.0,0.0,0.0,0.0,0.0,0.0,0.0,0.0,0.0,1.2462,1.2414,1.2414,1.2414,1.2737,1.2974,1.3022,1.3463,1.3661,1.3661,1.3661,1.3661,1.3661,1.3956,1.4202,1.4442,1.4933,0.0,0.0,1.5737,1.5698,1.5484,1.5424,1.5257,1.5095,1.5028,1.4816,1.4603,0.0,0.0,0.0,0.0,0.0,0.0,0.3206,0.3136,0.3087,0.3078,0.2967,0.2866,0.2793,0.2669,0.2597,0.0,0.0,0.0,0.0,0.0,0.0,0.0,0.0,0.0,0.0,0.0,0.0,0.0,0.0,0.0,0.0,0.0,0.0,0.0,0.0,0.0,0.0,0.0,0.0,0.0,0.0,0.0,0.0,0.0,0.0,0.0,0.0,0.0,0.0,0.0,0.0,0.7181,0.7816,0.9744,1.2064,1.3661,0.0,0.0,1.6831,1.6985,1.6573,1.6005,1.499,1.336,1.0459,0.0,0.0,0.0,0.5504,0.5661,0.5688,0.6866,0.7676,0.0,0.0,0.0,0.0,0.0,0.0,0.0,0.0,0.0,0.0,0.0,0.0,0.0,0.0,0.0,0.0,1.3715,1.3715,1.3715,1.3757,1.3908,1.4148,1.4196,1.425,1.425,1.425,1.425,1.425,1.4496,1.464,1.4688,0.0,0.0,0.0,1.5737,1.5764,1.5718,1.5504,1.5378,1.5324,1.5109,1.4988,1.4928,0.0,0.0,0.0,0.0,0.0,0.0,0.3262,0.3198,0.3158,0.3164,0.3073,0.3001,0.2923,0.2802,0.2688,0.2612,0.2602,0.0,0.0,0.0,0.0,0.0,0.0,0.0,0.0,0.0,0.0,0.0,0.0,0.0,0.0,0.0,0.0,0.0,0.0,0.0,0.0,0.0,0.0,0.0,0.0,0.0,0.0,0.0,0.0,0.0,0.0,0.0,0.0,0.0,0.0,0.0,0.597,0.6881,0.0,0.0,1.328,1.4529,1.6221,1.6583,1.6306,1.5718,1.4823,1.3313,1.0354,0.0,0.0,0.5992,0.5631,0.5808,0.6179,0.7146,0.7706,0.0,0.0,0.0,0.0,0.0,0.0,0.0,0.0,0.0,0.0,0.0,0.0,0.0,0.0,0.0,0.0,1.4777,1.464,1.464,1.4777,1.4914,1.5016,1.5159,1.5207,1.5207,1.5207,1.5207,1.5207,1.5302,1.5356,1.535,0.0,0.0,0.0,1.5784,1.5784,1.5771,1.5705,1.5658,1.5645,1.5524,1.5378,1.5211,0.0,0.0,0.0,0.0,0.0,0.3298,0.3301,0.3262,0.3232,0.3234,0.317,0.31,0.304,0.2942,0.2834,0.2697,0.265,0.0,0.0,0.0,0.0,0.0,0.0,0.0,0.0,0.0,0.3899,0.3899,0.0,0.0,0.0,0.0,0.0,0.0,0.0,0.0,0.0,0.0,0.0,0.0,0.0,0.0,0.0,0.0,0.0,0.0,0.0,0.0,0.0,0.0,0.0,0.0,0.0,0.0,0.0,0.0,1.1668,1.3173,1.5204,1.5818,1.5765,1.5264,1.4275,1.2752,0.0,0.0,0.7766,0.6047,0.5785,0.5999,0.65,0.7174,0.7499,0.7066,0.0,0.0,0.0,0.0,0.0,0.0,0.0,0.0,0.0,0.0,0.0,0.0,0.0,0.0,0.0,1.563,1.5406,1.5322,1.5499,1.5588,1.5588,1.573,1.5784,1.5784,1.5784,1.5784,1.5784,1.5784,1.5784,1.5784,0.0,0.0,0.0,1.5784,1.5784,1.5784,1.5784,1.5784,1.5784,1.5784,1.5698,1.5511,0.0,0.0,0.0,0.0,0.0,0.3306,0.3306,0.3301,0.3292,0.3305,0.3245,0.3168,0.3105,0.3096,0.3046,0.2906,0.2774,0.0,0.0,0.0,0.0,0.0,0.0,0.0,0.0,0.0,0.3899,0.3899,0.4708,0.5098,0.0,0.0,0.0,0.0,0.0,0.0,0.0,0.0,0.0,0.0,0.0,0.0,0.0,0.0,0.0,0.0,0.0,0.0,0.0,0.0,0.0,0.0,0.0,0.0,0.0,0.0,0.9893,1.1203,1.3821,1.475,1.4948,1.4603,1.32,1.1464,0.0,0.0,0.6767,0.5874,0.5963,0.6283,0.6553,0.6834,0.7006,0.7,0.7789,0.0,0.0,0.0,0.0,0.0,0.0,0.0,0.0,0.0,0.0,0.0,0.0,0.0,0.0,1.6266,1.6132,1.5791,1.5784,1.5784,1.5784,1.5784,1.5784,1.5784,1.5784,1.5784,1.5784,1.5784,1.5784,0.0,0.0,0.0,0.0,1.5784,1.5784,1.5784,1.5784,1.5784,1.5784,1.5784,1.5778,1.5785,0.0,0.0,0.0,0.0,0.0,0.0,0.3306,0.3298,0.3302,0.3302,0.3284,0.3245,0.318,0.3166,0.3137,0.3046,0.2912,0.0,0.0,0.0,0.0,0.0,0.0,0.0,0.0,0.3715,0.4104,0.4383,0.4863,0.5098,0.5098,0.5098,0.0,0.0,0.0,0.0,0.0,0.0,0.0,0.0,0.0,0.0,0.0,0.0,0.0,0.0,0.0,0.0,0.0,0.0,0.0,0.0,0.0,0.0,0.0,0.6279,0.7642,0.0,1.1276,1.2067,1.2225,1.2131,1.1383,1.0261,0.8671,0.0,0.7102,0.6218,0.6265,0.6559,0.6834,0.694,0.7206,0.7842,0.8214,0.0,0.0,0.0,0.0,0.0,0.0,0.0,0.0,0.0,0.0,0.0,0.0,0.0,0.0,0.0,1.5925,1.5784,1.5784,1.5784,1.5784,1.5784,1.5784,1.5784,1.5784,1.5784,1.5784,1.5784,0.0,0.0,0.0,0.0,0.0,1.5784,1.5784,1.5784,1.5784,1.5784,1.5784,1.5784,1.5927,1.6062,0.0,0.0,0.0,0.0,0.0,0.0,0.3306,0.3306,0.3306,0.3306,0.3302,0.3284,0.3249,0.324,0.3209,0.3145,0.3062,0.0,0.0,0.0,0.0,0.0,0.0,0.0,0.3489,0.3834,0.4202,0.4641,0.4969,0.5156,0.5166,0.5146,0.5137,0.5137,0.5108,0.0,0.0,0.0,0.0,0.0,0.0,0.0,0.5098,0.0,0.0,0.0,0.0,0.0,0.0,0.0,0.0,0.0,0.0,0.0,0.0,0.0,0.6074,0.7119,0.0,1.0117,1.0389,1.0327,0.9719,0.0,0.0,0.0,0.0,0.6283,0.6673,0.7081,0.7006,0.7301,0.7609,0.7829,0.8524,0.0,0.0,0.0,0.0,0.0,0.0,0.0,0.0,0.0,0.0,0.0,0.0,0.0,0.0,0.0,1.5945,1.5784,1.5784,1.5784,1.5784,1.5784,1.5784,1.5784,1.5784,1.5784,1.5784,1.5784,0.0,0.0,0.0,0.0,0.0,1.5784,1.5784,1.5784,1.5784,1.5784,1.5832,1.5927,1.6116,1.6359,0.0,0.0,0.0,0.0,0.0,0.0,0.0,0.3306,0.3306,0.3306,0.3306,0.3306,0.3301,0.3297,0.3271,0.3207,0.3203,0.0,0.0,0.0,0.0,0.0,0.0,0.0,0.356,0.3895,0.4299,0.4766,0.5064,0.5234,0.5301,0.5234,0.5205,0.5205,0.5127,0.5098,0.5098,0.5098,0.5098,0.5098,0.5098,0.5098,0.0,0.0,0.0,0.0,0.0,0.0,0.0,0.0,0.0,0.0,0.0,0.0,0.0,0.0,0.0,0.0,0.0,0.8735,0.9146,0.9038,0.8201,0.7311,0.0,0.0,0.0,0.0,0.7101,0.7719,0.7113,0.7762,0.8127,0.7259,0.8791,0.0,0.0,0.0,0.0,0.0,0.0,0.0,0.0,0.0,0.0,0.0,0.0,0.0,0.0,0.0,1.6112,1.5791,1.5784,1.5784,1.5784,1.5784,1.5784,1.5784,1.5784,1.5784,1.5784,1.5784,0.0,0.0,0.0,0.0,0.0,1.5784,1.5832,1.5832,1.5832,1.5832,1.5879,1.617,1.6454,1.6723,0.0,0.0,0.0,0.0,0.0,0.0,0.0,0.0,0.0,0.0,0.3306,0.3302,0.3294,0.3306,0.3289,0.0,0.0,0.0,0.0,0.0,0.0,0.0,0.0,0.0,0.4264,0.459,0.4943,0.5318,0.5289,0.5282,0.5301,0.5234,0.5205,0.5205,0.5127,0.5098,0.5098,0.5098,0.5098,0.5098,0.5098,0.5098,0.0,0.0,0.0,0.0,0.5098,0.5108,0.0,0.0,0.0,0.0,0.0,0.0,0.0,0.0,0.5423,0.5694,0.6332,0.0,0.6987,0.7113,0.6779,0.6375,0.0,0.0,0.0,0.0,0.0,0.0,0.0,0.0,0.8402,0.8383,0.0,0.0,0.0,0.0,0.0,0.0,0.0,0.0,0.0,0.0,0.0,0.0,0.0,0.0,0.0,0.0,1.5905,1.5784,1.5784,1.5784,1.5784,1.5784,1.5784,1.5784,1.5784,1.5784,1.5784,1.5784,0.0,0.0,0.0,0.0,1.5784,1.5784,1.5927,1.6123,1.6123,1.6211,1.644,1.6697,1.7059,1.7505,0.0,0.0,0.0,0.0,0.0,0.0,0.0,0.0,0.0,0.0,0.3306,0.3306,0.3306,0.3306,0.3306,0.0,0.0,0.0,0.0,0.0,0.0,0.0,0.0,0.4274,0.4849,0.4959,0.5181,0.5539,0.5416,0.5359,0.5387,0.5292,0.5243,0.5243,0.5146,0.5098,0.5098,0.5098,0.5098,0.5098,0.5098,0.0,0.0,0.0,0.0,0.0,0.5098,0.5098,0.0,0.5107,0.5078,0.5039,0.0,0.0,0.0,0.0,0.5748,0.5933,0.6335,0.6352,0.6244,0.6231,0.6084,0.5913,0.5716,0.0,0.0,0.0,0.0,0.0,0.0,0.0,0.0,0.0,0.0,0.0,0.0,0.0,0.0,0.0,0.0,0.0,0.0,0.0,0.0,0.0,0.0,0.0,0.0,0.0,1.5784,1.5784,1.5784,1.5784,1.5784,1.5784,1.5784,1.5784,1.5784,1.5784,1.5784,1.5784,0.0,0.0,0.0,0.0,1.5981,1.6258,1.6454,1.6602,1.6683,1.6864,1.7138,1.7387,1.7893,1.8481,0.0,0.0,0.0,0.0,0.0,0.0,0.0,0.0,0.0,0.0,0.0,0.0,0.0,0.0,0.0,0.0,0.0,0.0,0.0,0.0,0.0,0.0,0.4267,0.458,0.5301,0.5191,0.528,0.5614,0.5474,0.5427,0.5483,0.5349,0.5282,0.5262,0.5146,0.5098,0.5098,0.5098,0.5098,0.5098,0.5098,0.0,0.0,0.0,0.0,0.0,0.0,0.0,0.0,0.5098,0.5098,0.5098,0.5029,0.0,0.0,0.0,0.0,0.0,0.697,0.6809,0.6415,0.6184,0.6066,0.5971,0.5777,0.0,0.0,0.0,0.0,0.0,0.0,0.0,0.0,0.0,0.0,0.0,0.0,0.0,0.0,0.0,0.0,0.0,0.0,0.0,0.0,0.0,0.0,0.0,0.0,0.0,0.0,1.5784,1.5784,1.5784,1.5784,1.5784,1.5784,1.5784,1.5784,1.5784,1.5784,1.5784,1.5784,0.0,0.0,0.0,1.6312,1.6831,1.7113,1.7254,1.7473,1.7692,1.8017,1.8257,1.8819,1.95,0.0,0.0,0.0,0.0,0.0,0.0,0.0,0.0,0.0,0.0,0.0,0.0,0.0,0.0,0.0,0.0,0.0,0.0,0.0,0.0,0.0,0.533,0.5352,0.5364,0.5383,0.5576,0.5679,0.5682,0.5493,0.5408,0.5407,0.5282,0.5185,0.5127,0.5108,0.5098,0.5098,0.5098,0.5098,0.5098,0.5098,0.0,0.0,0.0,0.0,0.0,0.0,0.0,0.0,0.5098,0.5098,0.5098,0.5088,0.0,0.0,0.0,0.0,0.0,0.7265,0.7292,0.7224,0.7182,0.7081,0.6966,0.6869,0.0,0.0,0.0,0.0,0.0,0.0,0.0,0.0,0.0,0.0,0.0,0.0,0.0,0.0,0.0,0.0,0.0,0.0,0.0,0.0,0.0,0.0,0.0,0.0,0.0,0.0,1.5784,1.5784,1.5784,1.5784,1.5784,1.5784,1.5784,1.5784,1.5784,1.5784,1.5784,1.5784,0.0,0.0,1.6312,1.6588,1.7052,1.7606,1.8203,1.8473,1.8842,1.9255,1.953,1.9948,2.0501,0.0,0.0,0.0,0.0,0.0,0.0,0.0,0.0,0.0,0.0,0.0,0.0,0.0,0.0,0.0,0.0,0.0,0.0,0.0,0.0,0.4784,0.5465,0.5705,0.5788,0.5725,0.5735,0.5701,0.5598,0.5426,0.534,0.534,0.5253,0.5166,0.5098,0.5098,0.5098,0.5098,0.5098,0.5098,0.5098,0.0,0.0,0.0,0.0,0.0,0.0,0.0,0.0,0.0,0.0,0.5098,0.5137,0.54,0.0,0.0,0.0,0.0,0.0,0.7473,0.7751,0.7982,0.8128,0.7708,0.7257,0.7264,0.0,0.0,0.0,0.0,0.0,0.0,0.0,0.0,0.0,0.0,0.0,0.0,0.0,0.0,0.0,0.0,0.0,0.0,0.0,0.0,0.0,0.0,0.0,0.0,0.0,0.0,0.0,1.5784,1.5784,1.5784,1.5927,1.6028,1.6028,1.6028,1.617,1.6454,1.6454,1.6494,1.6629,0.0,1.738,1.7645,1.838,1.8988,1.9455,1.9849,2.0212,2.0574,2.0943,2.1311,2.1668,0.0,0.0,0.0,0.0,0.0,0.0,0.0,0.0,0.0,0.0,0.0,0.0,0.0,0.0,0.0,0.0,0.0,0.0,0.0,0.4649,0.5115,0.5499,0.5794,0.5945,0.5925,0.5756,0.5598,0.5473,0.5349,0.5272,0.5253,0.5205,0.5146,0.5098,0.5098,0.5098,0.5098,0.5098,0.5098,0.5098,0.0,0.0,0.0,0.0,0.0,0.0,0.0,0.0,0.0,0.0,0.0,0.0,0.0,0.0,0.0,0.6875,0.7168,0.7301,0.7608,0.8047,0.8461,0.8728,0.0,0.7775,0.7911,0.0,0.0,0.0,0.0,0.0,0.0,0.0,0.0,0.0,0.0,0.0,0.0,0.0,0.0,0.0,0.0,0.0,0.0,0.0,0.0,0.0,0.0,0.0,0.0,0.0,0.0,0.0,1.5784,1.5784,1.5784,1.6076,1.6218,1.6312,1.6407,1.669,1.716,1.7207,1.7347,1.752,1.8032,1.8396,1.8665,1.9666,2.0266,2.06,2.1087,2.1401,2.1678,2.2087,2.2353,2.253,0.0,0.0,0.0,0.0,0.0,0.0,0.0,0.0,0.0,0.0,0.0,0.0,0.0,0.0,0.0,0.0,0.0,0.0,0.0,0.5063,0.5502,0.585,0.5835,0.5791,0.5723,0.5586,0.5484,0.5408,0.5273,0.5176,0.5108,0.5108,0.5098,0.5098,0.5098,0.5098,0.5098,0.5098,0.5098,0.5098,0.5098,0.0,0.0,0.0,0.0,0.0,0.0,0.0,0.0,0.0,0.0,0.0,0.0,0.0,0.6455,0.6953,0.7359,0.7656,0.7695,0.8047,0.8461,0.8728,0.8934,0.0,0.9459,0.0,0.0,0.0,0.0,0.0,0.0,0.0,0.0,0.0,0.0,0.0,0.0,0.0,0.0,0.0,0.0,0.0,0.0,0.0,0.0,0.0,0.0,0.0,0.0,0.0,0.0,0.0,0.0,1.5784,1.5784,1.6076,1.6312,1.6588,1.7005,1.7372,1.7645,1.7893,1.804,1.8087,1.8527,1.8896,1.9234,2.0184,2.0853,2.1356,2.182,2.2132,2.2353,2.2662,2.2759,2.2803,0.0,0.0,0.0,0.0,0.0,0.0,0.0,0.0,0.0,0.0,0.0,0.3791,0.3791,0.0,0.0,0.0,0.0,0.0,0.0,0.5193,0.5433,0.5762,0.5708,0.5623,0.5521,0.5465,0.5388,0.5273,0.5185,0.5127,0.5098,0.5098,0.5098,0.5098,0.5098,0.5098,0.5098,0.5098,0.5098,0.5098,0.5098,0.5098,0.0,0.0,0.0,0.0,0.0,0.0,0.0,0.0,0.5098,0.5224,0.5947,0.6279,0.654,0.7262,0.7583,0.7695,0.7695,0.8217,0.8792,0.8897,0.0,0.0,0.0,0.0,0.0,0.0,0.0,0.0,0.0,0.0,0.0,0.0,0.0,0.0,0.0,0.0,0.0,0.0,0.0,0.0,0.0,0.0,0.0,0.0,0.0,0.0,0.0,0.0,0.0,0.0,0.0,1.6588,1.6723,1.7145,1.7567,1.7963,1.7839,1.8249,1.9072,1.9363,1.9646,1.9903,2.0257,2.0529,2.0799,2.1445,2.1945,2.2299,2.2618,2.275,2.2838,2.2969,2.2969,2.3013,0.0,0.0,0.0,0.0,0.0,0.0,0.0,0.0,0.3744,0.0,0.0,0.0,0.0,0.459,0.0,0.0,0.0,0.0,0.5193,0.5321,0.5461,0.5634,0.5597,0.5502,0.534,0.5331,0.5282,0.5166,0.5127,0.5098,0.5098,0.5098,0.5098,0.5098,0.5098,0.5098,0.5098,0.5098,0.5098,0.5098,0.5098,0.5098,0.0,0.0,0.0,0.0,0.0,0.0,0.0,0.0,0.5098,0.5253,0.6121,0.6394,0.657,0.7442,0.7695,0.7695,0.7695,0.8334,0.9004,0.0,0.0,0.0,0.0,0.0,0.0,0.0,0.0,0.0,0.0,0.0,0.0,0.0,0.0,0.0,0.0,0.0,0.0,0.0,0.0,0.0,0.0,0.0,0.0,0.0,0.0,0.0,0.0,0.0,0.0,0.0,0.0,0.0,1.7567,1.8071,1.8573,1.9026,1.9034,1.9446,2.0257,2.06,2.0916,2.123,2.1499,2.1713,2.1847,2.2344,2.2662,2.2925,2.3057,2.3091,2.3091,2.3091,2.3091,2.3091,0.0,0.0,0.0,0.0,0.0,0.0,0.0,0.0,0.4724,0.4785,0.4744,0.0,0.0,0.0,0.0,0.0,0.0,0.0,0.5021,0.5503,0.5709,0.5511,0.5502,0.5407,0.5205,0.5205,0.5166,0.5098,0.5098,0.5098,0.5098,0.5098,0.5098,0.5098,0.5098,0.5098,0.5098,0.5098,0.5098,0.5108,0.5108,0.5108,0.5108,0.0,0.0,0.0,0.0,0.0,0.0,0.0,0.5108,0.5263,0.6131,0.6416,0.657,0.7442,0.7695,0.7695,0.7695,0.8344,0.0,0.0,0.0,0.0,0.0,0.0,0.0,0.0,0.0,0.0,0.0,0.0,0.0,0.0,0.0,0.0,0.0,0.0,0.0,0.0,0.0,0.0,0.0,0.0,0.0,0.0,0.0,0.0,0.0,0.0,0.0,0.0,0.0,0.0,1.8133,1.8573,1.9063,1.9521,2.0529,2.0988,2.1042,2.1508,2.1687,2.1731,2.2008,2.2097,2.2141,2.2627,2.2925,2.3091,2.3091,2.3091,2.3091,2.3091,2.3091,2.3091,0.0,0.0,0.0,0.0,0.0,0.0,0.0,0.0,0.4636,0.4663,0.4975,0.0,0.0,0.0,0.0,0.0,0.0,0.0,0.5428,0.5521,0.5521,0.5368,0.5358,0.5311,0.5205,0.5156,0.5127,0.5098,0.5098,0.5098,0.5098,0.5098,0.5098,0.5098,0.5098,0.5098,0.5098,0.5098,0.5293,0.5586,0.5586,0.5586,0.5586,0.0,0.0,0.0,0.0,0.0,0.0,0.0,0.0,0.0,0.6709,0.6895,0.6989,0.7544,0.7695,0.7695,0.7695,0.8987,0.0,0.0,0.0,0.0,0.0,0.0,0.0,0.0,0.0,0.0,0.0,0.0,0.0,0.0,0.0,0.0,0.0,0.0,0.0,0.0,0.0,0.0,0.0,0.0,0.0,0.0,0.0,0.0,0.0,0.0,0.0,0.0,0.0,0.0,2.013,2.0484,2.0623,2.0615,2.1248,2.1632,2.1776,2.2264,2.253,2.2706,2.275,2.2794,2.2794,2.2969,2.3057,2.3091,2.3091,2.3091,2.3091,2.3091,2.3091,2.3091,0.0,0.0,0.0,0.0,0.0,0.0,0.5316,0.5178,0.5116,0.5116,0.5396,0.5596,0.0,0.0,0.0,0.5893,0.5828,0.0,0.554,0.5483,0.5397,0.5272,0.5263,0.5234,0.5166,0.5127,0.5098,0.5098,0.5098,0.5098,0.5098,0.5098,0.5098,0.5098,0.5098,0.5098,0.5108,0.5292,0.5537,0.5823,0.5978,0.6037,0.6037,0.0,0.0,0.0,0.0,0.0,0.0,0.0,0.0,0.0,0.6953,0.7451,0.7924,0.8344,0.8454,0.8483,0.8675,0.0,0.0,0.0,0.0,0.0,0.0,0.0,0.0,0.0,0.0,0.0,0.0,0.0,0.0,0.0,0.0,0.0,0.0,0.0,0.0,0.0,0.0,0.0,0.0,0.0,0.0,0.0,0.0,0.0,0.0,0.0,0.0,0.0,0.0,0.0,2.1033,2.1298,2.1273,2.0998,2.1443,2.1755,2.1881,2.2433,2.277,2.2857,2.3023,2.3003,2.2847,2.2847,2.2847,2.2847,2.2847,2.2945,2.3091,2.3091,2.3091,2.3091,0.0,0.0,0.6449,0.6371,0.0,0.0,0.6089,0.5957,0.5883,0.5874,0.5883,0.5883,0.0,0.0,0.0,0.5682,0.5625,0.553,0.5388,0.5389,0.5321,0.5205,0.5195,0.5166,0.5098,0.5098,0.5098,0.5098,0.5098,0.5098,0.5098,0.5098,0.5117,0.5166,0.5166,0.5176,0.5244,0.5674,0.5881,0.5949,0.6318,0.6475,0.6475,0.6475,0.0,0.0,0.0,0.0,0.0,0.0,0.0,0.0,0.7021,0.8037,0.9123,0.9503,0.9592,0.9708,0.0,0.0,0.0,0.0,0.0,0.0,0.0,0.0,0.0,0.0,0.0,0.0,0.0,0.0,0.0,0.0,0.0,0.0,0.0,0.0,0.0,0.0,0.0,0.0,0.0,0.0,0.0,0.0,0.0,0.0,0.0,0.0,0.0,0.0,0.0,0.0,2.1192,2.133,2.1254,0.0,2.1269,2.1457,2.1438,2.212,2.2461,2.248,2.2818,2.2769,2.2461,2.2461,2.2461,2.2461,2.25,2.2701,2.3042,2.3042,2.3042,2.3033,0.0,0.0,0.6224,0.6106,0.0,0.0,0.5813,0.5767,0.5718,0.568,0.5709,0.5748,0.5748,0.5689,0.0,0.5472,0.5454,0.5388,0.5253,0.5244,0.5205,0.5127,0.5127,0.5117,0.5098,0.5098,0.5098,0.5098,0.5098,0.5098,0.5098,0.5098,0.5302,0.5655,0.5655,0.582,0.6131,0.623,0.6484,0.6826,0.6914,0.6953,0.6953,0.6953,0.6729,0.0,0.0,0.0,0.0,0.0,0.0,0.0,0.753,0.8451,0.9494,0.9563,0.9592,0.9708,0.0,0.0,0.0,0.0,0.0,0.0,0.0,0.0,0.0,0.0,0.0,0.0,0.0,0.0,0.0,0.0,0.0,0.0,0.0,0.0,0.0,0.0,0.0,0.0,0.0,0.0,0.0,0.0,0.0,0.0,0.0,0.0,0.0,0.0,0.0,2.1597,2.172,2.1762,2.1549,0.0,2.1205,2.1111,2.083,2.166,2.2021,2.2031,2.2119,2.21,2.2021,2.2021,2.2021,2.2051,2.2383,2.2568,2.2646,2.2646,2.2646,2.2598,0.0,0.0,0.0,0.0,0.0,0.0,0.0,0.0,0.5531,0.5463,0.5511,0.5541,0.5511,0.5502,0.0,0.0,0.5301,0.5263,0.5166,0.5156,0.5137,0.5098,0.5098,0.5098,0.5098,0.5098,0.5098,0.5098,0.5098,0.5098,0.5108,0.5332,0.5566,0.5813,0.5998,0.6201,0.6414,0.6641,0.6885,0.7119,0.7301,0.7388,0.7388,0.7388,0.7242,0.7028,0.7028,0.0,0.0,0.0,0.0,0.0,0.0,0.0,0.9592,0.9592,0.9592,0.9893,0.0,0.0,0.0,0.0,0.0,0.0,0.0,0.0,0.0,0.0,0.0,0.0,0.0,0.0,0.0,0.0,0.0,0.0,0.0,0.0,0.0,0.0,0.0,0.0,0.0,0.0,0.0,0.0,0.0,0.0,0.0,0.0,0.0,0.0,2.1668,2.1654,2.1582,2.1572,2.1357,2.0918,2.0918,2.0791,2.0625,2.1269,2.1689,2.1885,2.1885,2.1768,2.1572,2.1572,2.1572,2.1592,2.1816,2.2021,2.2207,2.2207,2.2207,2.2178,0.0,0.0,0.0,0.0,0.0,0.0,0.0,0.0,0.0,0.5291,0.534,0.5359,0.5282,0.534,0.5311,0.0,0.0,0.0,0.5098,0.5098,0.5098,0.5098,0.5098,0.5098,0.5098,0.5098,0.5098,0.5098,0.5331,0.5487,0.5545,0.5713,0.5881,0.6048,0.6367,0.656,0.6648,0.7037,0.7207,0.7236,0.7574,0.7695,0.7695,0.7695,0.7695,0.7695,0.7695,0.7695,0.7695,0.7695,0.0,0.0,0.0,0.0,0.9592,0.9592,0.9592,1.0069,0.0,0.0,0.0,0.0,0.0,0.0,0.0,0.0,0.0,0.0,0.0,0.0,0.0,0.0,0.0,0.0,0.0,0.0,0.0,0.0,0.0,0.0,0.0,0.0,0.0,0.0,0.0,0.0,0.0,0.0,0.0,0.0,2.1523,2.166,2.1701,2.1484,2.1083,2.1123,2.0937,2.0605,2.0605,2.0605,2.0615,2.0947,2.1318,2.1701,2.1701,2.1455,2.1123,2.1123,2.1123,2.1083,2.1161,2.1455,2.1777,2.1809,2.1818,2.184,0.0,0.0,0.0,0.0,0.0,0.0,0.0,0.0,0.0,0.0,0.5272,0.5292,0.5214,0.5224,0.5195,0.5127,0.5117,0.5108,0.5098,0.0,0.0,0.5098,0.5098,0.5098,0.5098,0.5098,0.5098,0.5098,0.6267,0.7008,0.7326,0.6279,0.6203,0.6924,0.6982,0.7193,0.753,0.7588,0.7618,0.7618,0.7676,0.7695,0.7695,0.7695,0.7695,0.7695,0.7695,0.7695,0.7695,0.7695,0.7695,0.0,0.0,0.0,0.0,0.9592,0.9592,0.0,0.0,0.0,0.0,0.0,0.0,0.0,0.0,0.0,0.0,0.0,0.0,0.0,0.0,0.0,0.0,0.0,0.0,0.0,0.0,0.0,0.0,0.0,0.0,0.0,0.0,0.0,0.0,0.0,0.0,0.0,0.0,2.1238,2.1103,2.0791,2.0781,2.0752,2.0693,2.0693,2.0664,2.0605,2.0605,2.0605,2.0605,2.0664,2.0723,2.0781,2.0781,2.0752,2.0693,2.0693,2.0693,2.0693,2.1044,2.1229,2.1318,2.1479,2.155,2.154,0.0,0.0,0.0,0.0,0.0,0.0,0.0,0.0,0.0,0.0,0.0,0.5175,0.5146,0.5137,0.5137,0.5098,0.5098,0.5098,0.5098,0.5098,0.5098,0.5098,0.5098,0.5098,0.5098,0.5098,0.5098,0.5098,0.6443,0.7441,0.8076,0.7514,0.7583,0.8145,0.7652,0.753,0.7695,0.7695,0.7695,0.7695,0.7695,0.7695,0.7695,0.7695,0.7695,0.7695,0.7695,0.7695,0.7695,0.7695,0.7695,0.7695,0.7695,0.0,0.0,0.0,0.0,0.0,0.0,0.0,0.0,0.0,0.0,0.0,0.0,0.0,0.0,0.0,0.0,0.0,0.0,0.0,0.0,0.0,0.0,0.0,0.0,0.0,0.0,0.0,0.0,0.0,0.0,0.0,0.0,0.0,0.0,0.0,2.0889,2.0859,2.0771,2.0615,2.0605,2.0488,2.0205,2.0195,2.0078,1.9891,1.9891,1.9891,1.9891,1.9891,2.0155,2.0605,2.0605,2.0605,2.0605,2.0605,2.0605,2.0625,2.0781,2.0859,2.0899,2.1105,2.1223,2.135,0.0,0.0,0.0,0.0,0.0,0.0,0.0,0.0,0.0,0.0,0.0,0.5098,0.5098,0.0,0.0,0.0,0.5098,0.5098,0.5098,0.5098,0.5098,0.5098,0.5098,0.5098,0.5098,0.5098,0.5098,0.5098,0.6443,0.7553,0.8395,0.8395,0.8678,0.9104,0.8139,0.7695,0.7695,0.7695,0.7695,0.7695,0.7695,0.7778,0.7876,0.7876,0.8149,0.8519,0.8519,0.8519,0.8519,0.8519,0.8305,0.8022,0.7915,0.7876,0.0,0.0,0.0,0.0,0.0,0.0,0.0,0.0,0.0,0.0,0.0,0.0,0.0,0.0,0.0,0.0,0.0,0.0,0.0,0.0,0.0,0.0,0.0,0.0,0.0,0.0,0.0,0.0,0.0,0.0,0.0,0.0,0.0,0.0,2.0625,2.0605,2.0556,2.0449,2.0439,2.0195,1.9756,1.9756,1.96,1.9287,1.9287,1.9287,1.9287,1.9287,1.9639,2.0282,2.0282,2.0282,2.0282,2.0282,2.0341,2.0439,2.0439,2.0546,2.0693,2.0974,2.1244,2.1578,0.0,0.0,0.0,0.0,0.0,0.0,0.0,0.0,0.0,0.0,0.0,0.5098,0.5098,0.5098,0.5098,0.5098,0.5098,0.5098,0.5098,0.5098,0.5098,0.5098,0.5098,0.0,0.5098,0.5098,0.5098,0.5098,0.6443,0.7553,0.8395,0.8395,0.8818,0.9505,0.826,0.7695,0.7695,0.7695,0.7695,0.7695,0.7695,0.7963,0.8356,0.8356,0.9346,0.0,0.0,0.0,1.0722,1.0722,0.9941,0.8867,0.8483,0.8356,0.8277,0.0,0.0,0.0,0.0,0.0,0.0,0.0,0.0,0.0,0.0,0.0,0.0,0.0,0.0,0.0,0.0,0.0,0.0,0.0,0.0,0.0,0.0,0.0,0.0,0.0,0.0,0.0,0.0,0.0,0.0,0.0,0.0,0.0,2.0605,2.0605,2.0419,1.9961,1.9951,1.9746,1.9326,1.9316,1.9307,1.9287,1.9287,1.9287,1.9287,1.9287,1.9307,1.9355,1.9355,1.9355,1.9355,1.9355,1.959,1.9951,1.9951,2.0329,2.0945,2.132,2.1845,2.244,0.0,0.0,0.0,0.0,0.0,0.0,0.0,0.0,0.0,0.0,0.0,0.0,0.0,0.5098,0.5098,0.5098,0.5098,0.5098,0.5098,0.5098,0.5098,0.5098,0.5098,0.5098,0.5098,0.5098,0.5098,0.5098,0.6703,0.7803,0.8404,0.8669,0.9082,0.9554,0.8594,0.8145,0.8164,0.8428,0.8529,0.8529,0.8529,0.8643,0.8867,0.0,0.0,0.0,0.0,0.0,0.0,1.0908,1.004,0.8975,0.8828,0.861,0.8307,0.7846,0.0,0.0,0.0,0.0,0.0,0.0,0.0,0.0,0.0,0.0,0.0,0.0,0.0,0.0,0.0,0.0,0.0,0.0,0.0,0.0,0.0,0.0,0.0,0.0,0.0,0.0,0.0,0.0,0.0,0.0,0.0,0.0,2.0605,2.0303,2.0078,1.9922,1.9648,1.9307,1.8877,1.8603,1.8467,1.8467,1.8467,1.8467,1.8467,1.8467,1.8467,1.8467,1.8467,1.886,1.9489,1.9489,1.9713,2.0046,2.0373,2.0696,2.1104,2.1807,2.2365,2.2889,0.0,0.0,0.0,0.5098,0.0,0.5098,0.5098,0.5098,0.5156,0.5322,0.0,0.0,0.0,0.0,0.5536,0.5536,0.5536,0.5536,0.5536,0.5536,0.5536,0.5536,0.5536,0.5536,0.5536,0.5536,0.5536,0.5536,0.6693,0.7496,0.7974,0.8232,0.8577,0.895,0.8711,0.8522,0.8424,0.0,0.0,0.9004,0.9004,0.918,0.9531,0.0,0.0,0.0,0.0,0.0,0.0,0.0,0.0,0.0,0.0,0.8926,0.8551,0.8227,0.0,0.0,0.0,0.0,0.0,0.0,0.0,0.0,0.0,0.0,0.0,0.0,0.0,0.0,0.0,0.0,0.0,0.0,0.0,0.0,0.0,0.0,0.0,0.0,0.0,0.0,0.0,0.0,0.0,0.0,0.0,0.0,2.0605,2.0146,1.9785,1.9455,1.9082,1.8721,1.8393,1.8144,1.8008,1.8008,1.8008,1.8008,1.8008,1.8076,1.811,1.811,1.8212,1.8616,1.9162,1.9197,1.9515,2.0032,2.0565,2.1042,2.156,2.2408,2.3065,2.368,0.5098,0.5098,0.5098,0.5098,0.5108,0.5117,0.5117,0.5127,0.5302,0.5753,0.0,0.0,0.0,0.0,0.0,0.6394,0.6394,0.6394,0.6394,0.6394,0.6394,0.6394,0.6394,0.6394,0.6394,0.6394,0.6394,0.6394,0.6416,0.666,0.71,0.7109,0.732,0.7734,0.8607,0.8779,0.8444,0.0,0.9043,0.9043,0.0,0.9561,1.0322,0.0,0.0,0.0,1.498,1.4834,0.0,0.0,0.0,0.0,0.0,0.9338,0.9023,0.9004,0.0,0.0,0.0,0.0,0.0,0.0,0.0,0.0,0.0,0.0,0.0,0.0,0.0,0.0,0.0,0.0,0.0,0.0,0.0,0.0,0.0,0.0,0.0,0.0,0.0,0.0,0.0,0.0,0.0,0.0,0.0,2.0595,2.0586,2.0117,1.9455,1.8607,1.8188,1.8008,1.8008,1.8008,1.8008,1.8008,1.8008,1.8008,1.8008,1.8202,1.8303,1.8303,1.8674,1.864,1.8337,1.8472,1.9029,1.9793,2.0481,2.1361,2.2316,2.3062,2.3936,2.4791,0.5098,0.5098,0.5098,0.5098,0.538,0.5606,0.5606,0.5859,0.6082,0.0,0.0,0.0,0.6384,0.6394,0.6394,0.6394,0.6394,0.6394,0.6394,0.6394,0.6394,0.6394,0.6394,0.6394,0.6394,0.6394,0.6394,0.6394,0.6738,0.6973,0.7109,0.7398,0.7603,0.7734,0.8607,0.8945,0.8877,0.9637,0.0,0.0,1.0264,1.0527,0.0,0.0,0.0,0.0,0.0,1.6055,0.0,0.0,1.4297,1.1888,0.0,0.0,0.0,0.0,0.0,0.0,0.9223,0.0,0.0,0.0,0.0,0.0,0.0,0.0,0.0,0.0,0.0,0.0,0.0,0.0,0.0,0.0,0.0,0.0,0.0,0.0,0.0,0.0,0.0,0.0,0.0,0.0,0.0,0.0,2.0605,2.0468,2.0107,1.9358,1.8705,1.8159,1.8076,1.8008,1.8008,1.8008,1.8008,1.8008,1.8008,1.8008,1.8008,1.8202,1.8337,1.8482,1.8841,1.9164,1.9386,1.9419,1.9889,2.0654,2.1722,2.2445,2.3064,2.4118,2.4802,2.5194,0.5098,0.5253,0.539,0.539,0.5752,0.6056,0.6056,0.625,0.6475,0.0,0.0,0.0,0.693,0.694,0.694,0.694,0.694,0.694,0.694,0.694,0.694,0.694,0.694,0.694,0.694,0.694,0.694,0.694,0.7213,0.7349,0.7359,0.7588,0.7807,0.8027,0.8701,0.9084,0.9299,0.0,0.0,0.0,1.0811,0.0,0.0,1.2564,1.3418,0.0,0.0,0.0,1.582,1.6709,1.5283,0.0,0.0,0.0,0.0,0.0,0.0,0.0,0.0,0.0,0.0,0.0,0.0,0.0,1.0178,1.1173,0.0,0.0,0.0,0.0,0.0,0.0,0.0,0.0,0.0,0.0,0.0,0.0,0.0,0.0,0.0,0.0,0.0,0.0,0.0,0.0,2.0067,1.9844,1.9368,1.887,1.8412,1.8018,1.8008,1.8008,1.8008,1.8008,1.8008,1.8008,1.8076,1.8144,1.8144,1.8529,1.8798,1.8975,1.9594,2.0074,2.0484,2.072,2.0912,2.1218,2.2448,2.3157,2.3668,2.4822,2.5418,2.5723,0.0,0.5547,0.5872,0.5872,0.6201,0.6484,0.6484,0.6562,0.6768,0.0,0.7285,0.7447,0.7802,0.7841,0.7841,0.7841,0.7841,0.7841,0.7841,0.7841,0.7841,0.7841,0.7793,0.7788,0.7788,0.7725,0.7695,0.7695,0.7695,0.7695,0.7695,0.7744,0.8008,0.8414,0.8867,0.927,0.9622,0.0,0.0,1.1201,1.1201,1.1765,0.0,0.0,1.3646,0.0,1.6056,1.6378,1.6496,1.7207,1.5791,0.0,0.0,0.0,0.0,0.0,1.0934,0.0,0.0,0.0,0.0,0.0,0.0,0.0,1.0598,1.1636,1.2712,0.0,0.0,0.0,0.0,0.0,0.0,0.0,0.0,0.0,0.0,0.0,0.0,0.0,0.0,0.0,0.0,0.0,1.9287,1.9287,1.9238,1.9043,1.8627,1.8559,1.8364,1.8018,1.8008,1.8042,1.8042,1.8076,1.8076,1.8076,1.8303,1.8405,1.8438,1.9077,1.9485,1.9736,2.0571,2.1146,2.1482,2.2018,2.1944,2.1651,2.2798,2.3589,2.4201,2.5213,2.5884,2.6236,0.5665,0.5996,0.6289,0.6289,0.666,0.6963,0.6963,0.7563,0.8042,0.8131,0.8428,0.8662,0.8733,0.8743,0.8743,0.8743,0.8743,0.8743,0.8743,0.8743,0.8743,0.8743,0.8428,0.8268,0.8268,0.7895,0.7695,0.7695,0.7695,0.7695,0.7705,0.8086,0.8316,0.8424,0.9153,0.9524,0.9651,0.0,0.0,1.2998,1.2998,0.0,1.5381,1.5683,1.6034,1.6482,1.7672,1.81,1.8081,0.0,1.6621,1.4805,0.0,0.0,0.0,0.0,0.0,0.0,0.0,0.0,0.0,0.0,0.0,0.0,1.1773,1.2234,1.2808,0.0,0.0,0.0,0.0,0.0,0.0,0.0,0.0,0.0,0.0,0.0,0.0,0.0,0.0,0.0,0.0,0.0,1.9287,1.9287,1.8965,1.8695,1.8607,1.8286,1.8096,1.8008,1.8178,1.8236,1.8236,1.8506,1.864,1.865,1.8841,1.8998,1.911,1.9507,1.9901,2.0269,2.1008,2.1482,2.1827,2.2223,2.2389,2.2512,2.3303,2.4035,2.4733,2.5357,2.5961,2.643,0.6105,0.6445,0.6758,0.6758,0.7295,0.7759,0.7759,0.8297,0.8691,0.8691,0.8877,0.9004,0.9004,0.9004,0.9004,0.9004,0.9004,0.9004,0.9004,0.9004,0.9004,0.9004,0.8809,0.8691,0.8691,0.8461,0.8246,0.8057,0.8057,0.8057,0.8057,0.8297,0.862,0.9023,0.9425,0.9836,0.0,0.0,1.2008,1.3792,1.3792,0.0,1.6416,1.6619,1.6697,1.6872,1.8149,1.9017,1.9463,1.8578,1.7711,0.0,0.0,1.3771,1.3359,0.0,1.2899,1.3485,0.0,0.0,0.0,1.3815,0.0,0.0,0.0,1.3217,0.0,0.0,0.0,0.0,0.0,0.0,0.0,0.0,0.0,0.0,0.0,0.0,0.0,0.0,0.0,0.0,0.0,0.0,1.8652,1.8652,1.8447,1.8286,1.8286,1.8125,1.8008,1.8008,1.8212,1.8337,1.8414,1.8774,1.8965,1.9054,1.9419,1.9616,1.9737,2.0323,2.0741,2.1005,2.1419,2.1753,2.2013,2.1952,2.2162,2.2586,2.3375,2.3997,2.4481,2.5008,2.5548,2.6059,0.654,0.6891,0.7246,0.7334,0.7935,0.8424,0.8502,0.8857,0.918,0.9355,0.959,0.9785,0.9863,1.0088,1.0234,1.0234,1.0234,1.0107,0.9775,0.9756,0.9717,0.9629,0.9289,0.9238,0.9492,0.917,0.8838,0.8512,0.8512,0.8512,0.8512,0.86,0.8984,0.9602,0.9768,1.0244,0.0,0.0,0.0,1.4133,0.0,1.5449,1.6697,1.6697,1.6853,1.7233,1.851,1.9521,2.0029,1.8948,0.0,1.7861,1.5732,1.5067,0.0,0.0,0.0,0.0,0.0,0.0,0.0,0.0,0.0,1.367,0.0,0.0,0.0,0.0,0.0,0.0,0.0,0.0,0.0,0.0,0.0,0.0,0.0,0.0,0.0,0.0,0.0,0.0,0.0,0.0,1.7703,1.7737,1.777,1.777,1.7803,1.8073,1.8212,1.8212,1.8438,1.8607,1.8741,1.9198,1.9518,1.9661,2.015,2.042,2.0484,2.123,2.1561,2.1618,2.1776,2.1881,2.1902,2.1625,2.1757,2.223,2.3081,2.3667,2.4054,2.4506,2.4996,2.5448,0.709,0.7349,0.7759,0.8179,0.8326,0.8522,0.8877,0.927,0.9815,1.0566,1.1709,1.2578,0.0,0.0,0.0,0.0,0.0,0.0,1.2539,0.0,1.2266,1.1853,1.0361,1.0098,1.1292,0.9785,0.8984,0.8936,0.8936,0.8936,0.8945,0.9299,0.9505,0.9631,1.041,0.0,0.0,0.0,1.388,0.0,1.5781,1.6521,0.0,1.6697,1.7399,1.8549,1.9883,1.9707,1.8802,0.0,1.7857,1.7017,0.0,1.6782,0.0,0.0,0.0,0.0,0.0,0.0,0.0,0.0,1.5047,0.0,0.0,0.0,0.0,0.0,0.0,0.0,0.0,0.0,0.0,0.0,0.0,0.0,0.0,0.0,0.0,0.0,0.0,0.0,0.0,0.0,0.0,1.685,1.6911,1.6961,1.7012,1.8252,1.8975,1.8975,1.9274,1.9528,1.9639,2.0345,2.0752,2.0901,2.127,2.1522,2.169,2.1987,2.1921,2.1613,2.1938,2.1774,2.1303,2.1462,2.1559,2.1644,2.223,2.3083,2.4004,2.4067,2.4443,2.4876,0.7583,0.7812,0.8164,0.8365,0.8779,0.9143,0.9328,0.9923,1.0488,1.0839,1.1633,0.0,0.0,0.0,0.0,0.0,0.0,1.5517,0.0,0.0,1.3164,1.2954,1.1543,1.0909,1.1193,1.0478,0.9854,0.9348,0.9348,0.9348,0.9357,0.9805,1.0118,1.0381,1.1016,0.0,1.2817,0.0,0.0,0.0,0.0,0.0,0.0,1.6697,1.7486,1.8773,2.0107,1.9774,1.8831,0.0,1.912,0.0,0.0,0.0,0.0,0.0,0.0,0.0,0.0,0.0,0.0,0.0,0.0,0.0,0.0,0.0,1.3042,0.0,0.0,0.0,0.0,0.0,0.0,0.0,0.0,0.0,0.0,0.0,0.0,0.0,0.0,0.0,0.0,0.0,0.0,0.0,0.0,1.7094,1.7124,1.8575,1.9374,1.9374,1.9726,1.9977,2.0139,2.0848,2.1273,2.1451,2.187,2.2118,2.218,2.2152,2.2046,2.1876,2.1475,2.1134,2.0897,2.0613,2.0715,2.1069,2.1295,2.2033,2.3062,2.3346,2.3853,2.4343,0.8188,0.833,0.86,0.8701,0.9211,0.968,0.9923,1.082,1.1572,0.0,0.0,0.0,1.5723,1.618,0.0,0.0,0.0,1.766,0.0,0.0,1.4863,0.0,0.0,0.0,1.2116,1.1445,1.0781,1.0156,1.0156,1.0156,1.0147,1.0508,1.0811,1.1103,0.0,1.2441,1.3617,0.0,0.0,1.62,1.656,1.6697,1.6746,1.7087,1.7798,1.8773,2.0107,1.9848,1.9037,2.0108,1.9899,0.0,2.0042,0.0,0.0,0.0,0.0,0.0,1.7713,0.0,0.0,0.0,0.0,0.0,0.0,0.0,0.0,0.0,0.0,0.0,0.0,0.0,0.0,0.0,0.0,0.0,0.0,0.0,0.0,0.0,0.0,0.0,0.0,0.0,0.0,0.0,0.0,0.0,1.6337,1.8746,1.9964,1.9518,2.022,2.0677,2.088,2.1463,2.1839,2.2025,2.2408,2.2604,2.258,2.2439,2.2209,2.1914,2.1214,2.0742,2.0427,1.9974,2.0049,2.0465,2.0629,2.1282,2.2159,2.2681,2.3246,2.3766,0.8975,0.8975,0.9094,0.9503,0.9573,0.9893,1.0722,1.1973,0.0,0.0,0.0,0.0,0.0,0.0,0.0,0.0,0.0,2.1592,1.9902,0.0,1.8256,0.0,0.0,1.4014,0.0,1.2846,1.1567,1.1538,1.1538,1.1538,1.1538,1.1557,1.1567,1.1606,0.0,1.2213,1.2379,1.4062,1.4795,1.4961,1.619,1.6697,1.6833,0.0,1.8568,1.8773,2.0107,0.0,0.0,1.9254,1.9442,0.0,0.0,0.0,0.0,0.0,0.0,0.0,0.0,0.0,0.0,1.9836,0.0,0.0,0.0,0.0,1.4846,0.0,0.0,0.0,0.0,0.0,0.0,0.0,0.0,0.0,0.0,0.0,0.0,0.0,0.0,0.0,0.0,0.0,0.0,0.0,0.0,0.0,1.3907,1.8729,2.0824,1.925,2.0912,2.1932,2.2123,2.2506,2.2739,2.2848,2.3017,2.3078,2.3078,2.3053,2.2493,2.1518,2.1481,2.084,1.9823,1.9811,1.9811,1.9886,2.0478,2.1043,2.1581,2.2133,2.2656,2.3133,1.0264,1.0518,1.0469,0.0,0.0,0.0,0.0,1.3125,0.0,0.0,0.0,0.0,0.0,0.0,2.3144,0.0,0.0,2.3398,2.2539,2.0869,0.0,0.0,0.0,1.5137,0.0,0.0,0.0,1.1606,1.1606,1.1606,1.1606,1.1865,1.2002,1.2021,0.0,1.3125,0.0,0.0,0.0,0.0,0.0,1.8802,1.8783,0.0,0.0,1.8773,2.0107,1.996,0.0,2.0512,2.0646,2.058,2.2339,2.2259,2.163,2.2376,2.1873,0.0,0.0,0.0,2.0137,2.0352,0.0,0.0,0.0,0.0,0.0,0.0,0.0,0.0,0.0,0.0,0.0,0.0,0.0,0.0,0.0,0.0,0.0,0.0,0.0,0.0,0.0,0.0,0.0,0.0,0.0,0.0,0.0,1.8298,2.0237,2.1146,2.1854,2.2254,2.2328,2.2665,2.2848,2.2909,2.3047,2.3108,2.3095,2.2732,2.2355,2.202,2.1644,2.1267,2.0916,2.0916,2.0916,2.0941,2.1157,2.1543,2.2058,2.2246,2.2631,2.3108,1.1814,1.1712,1.1341,0.0,0.0,0.0,0.0,0.0,0.0,0.0,1.9336,0.0,2.3662,0.0,2.4512,0.0,2.5391,2.4775,2.4502,2.2744,0.0,2.1074,1.8877,0.0,0.0,0.0,0.0,0.0,0.0,1.2054,1.2064,1.2324,1.2461,1.2447,0.0,0.0,0.0,0.0,1.588,0.0,0.0,2.0332,0.0,0.0,1.9465,1.9231,0.0,2.0631,2.027,2.1555,2.1776,2.1721,2.3327,2.3382,2.299,2.3418,2.3272,2.3119,2.3818,2.3119,0.0,2.2665,2.0941,0.0,1.8668,0.0,0.0,0.0,0.0,0.0,0.0,0.0,0.0,0.0,0.0,0.0,0.0,1.3198,0.0,0.0,0.0,0.0,0.0,0.0,0.0,0.0,0.0,0.0,0.0,0.0,1.8821,1.9858,2.0554,2.1186,2.1793,2.201,2.2413,2.2969,2.3047,2.3108,2.3095,2.2732,2.2468,2.2297,2.1933,2.1669,2.1493,2.1493,2.1493,2.1493,2.1493,2.1832,2.2309,2.2309,2.2631,2.3108,1.3447,1.2504,0.0,0.0,1.1734,0.0,0.0,0.0,1.8184,0.0,2.2656,2.498,2.6309,2.6455,2.6621,2.7041,2.6318,0.0,2.5752,2.46,0.0,0.0,2.1562,2.043,1.999,0.0,0.0,0.0,0.0,0.0,1.2993,1.2935,1.2905,1.2905,1.2905,0.0,1.2935,1.2935,1.4657,1.7607,2.0566,2.1006,2.0029,2.1348,2.1114,2.0184,2.1466,2.1896,2.1919,2.2323,2.2719,2.322,2.3982,2.4455,2.4862,2.5489,2.6137,2.6844,2.763,2.7174,2.6461,2.6524,0.0,0.0,0.0,0.0,2.2184,0.0,0.0,0.0,0.0,0.0,0.0,0.0,0.0,0.0,0.0,0.0,0.0,0.0,0.0,0.0,0.0,0.0,0.0,0.0,0.0,0.0,0.0,0.0,1.6832,1.5844,1.7375,1.8995,2.0679,2.0691,2.1493,2.3108,2.3108,2.3108,2.3108,2.3108,2.2819,2.2347,2.2347,2.2058,2.1568,2.1568,2.1568,2.1568,2.1568,2.1895,2.2347,2.2347,2.2656,2.3108,1.2535,1.2803,1.3008,0.0,1.3561,1.45,0.0,0.0,0.0,0.0,2.4316,2.5898,2.7197,2.7395,2.751,2.793,2.748,0.0,0.0,0.0,0.0,2.459,2.2637,2.1338,2.0869,1.8831,0.0,1.6875,0.0,0.0,1.4277,1.3345,1.2905,1.2905,0.0,0.0,1.335,1.335,1.4717,1.7048,1.9131,1.9746,0.0,0.0,2.1561,2.143,2.1957,2.2442,2.2875,2.3065,2.3624,2.4239,2.4668,2.5052,2.5502,2.6199,2.6364,2.6639,2.8102,2.7199,2.6025,2.6889,2.5523,2.3816,0.0,0.0,0.0,0.0,0.0,0.0,0.0,0.0,0.0,0.0,0.0,0.0,0.0,0.0,0.0,0.0,0.0,0.0,0.0,0.0,0.0,0.0,0.0,0.0,0.0,0.0,0.0,1.7526,1.7978,1.8995,2.0679,2.0691,2.1493,2.3108,2.3108,2.3108,2.3108,2.3108,2.3032,2.2895,2.2895,2.2819,2.2681,2.2681,2.2681,2.2681,2.2681,2.2769,2.2895,2.2895,2.2982,2.3108,1.3597,0.0,0.0,1.4033,0.0,0.0,1.7357,0.0,0.0,2.3789,2.5371,0.0,2.8076,2.8047,2.8105,2.8535,2.8018,0.0,0.0,0.0,0.0,2.5391,2.4023,2.2988,2.2363,2.0469,0.0,1.8486,0.0,0.0,1.4784,1.3512,1.2905,1.2905,0.0,1.3115,0.0,1.4484,1.5595,1.6902,1.9182,0.0,0.0,2.1969,2.2827,2.3227,2.3536,2.3701,2.3808,2.4183,2.4659,2.5187,2.5679,2.6118,2.6552,2.7149,2.7181,2.7278,2.8475,2.7949,2.7268,2.816,2.7457,2.6314,2.5465,2.5039,2.4883,0.0,0.0,0.0,0.0,0.0,0.0,0.0,0.0,0.0,0.0,0.0,0.0,0.0,0.0,0.0,0.0,0.0,0.0,0.0,0.0,0.0,0.0,0.0,0.0,1.7036,1.7112,1.7903,1.9598,1.961,2.0062,2.0964,2.1707,2.2058,2.2083,2.2782,2.3108,2.3108,2.3108,2.3108,2.3108,2.3108,2.3108,2.3108,2.3108,2.3108,2.3108,2.3108,2.3168,2.3241,0.0,0.0,0.0,0.0,0.0,0.0,0.0,1.9871,0.0,2.4521,0.0,2.7568,2.8789,2.8545,2.8467,2.8887,0.0,2.7796,2.7796,2.7344,2.6748,2.5888,2.542,2.4756,2.3896,2.2014,0.0,0.0,0.0,1.5537,1.5116,1.361,1.2905,0.0,0.0,0.0,0.0,1.5888,1.6816,0.0,2.0077,2.1421,2.187,2.337,2.4391,2.5073,2.5569,2.5341,2.4891,2.5466,2.5803,2.6097,2.6749,2.7236,2.7644,2.8087,2.816,2.8247,2.8838,2.895,2.9026,2.9641,2.9792,2.9515,2.8461,2.816,2.7808,2.6813,2.5229,2.4004,0.0,0.0,0.0,0.0,0.0,0.0,0.0,0.0,0.0,0.0,0.0,0.0,0.0,0.0,0.0,0.0,0.0,0.0,0.0,0.0,0.0,1.563,1.5693,0.0,1.8191,0.0,1.8204,1.8229,1.9899,2.0691,2.0742,2.2385,2.3108,2.3108,2.3108,2.3108,2.3108,2.3108,2.3108,2.3108,2.3138,2.3138,2.3138,2.3198,2.333,2.3509,0.0,0.0,0.0,0.0,0.0,1.9697,2.0908,2.3223,2.5371,2.6904,2.7415,2.79,2.8818,2.8545,2.8467,2.8887,2.8467,0.0,0.0,0.0,0.0,2.6816,2.6035,2.5205,2.4326,2.3594,2.2842,0.0,1.9033,1.7334,1.6907,1.4177,0.0,0.0,0.0,0.0,1.4678,1.6494,0.0,1.7754,2.045,2.1769,2.2358,2.4043,2.5147,2.581,2.661,2.6707,2.649,2.6502,2.6859,2.7337,2.7395,2.7558,2.789,2.8575,2.8461,2.8335,2.9365,2.9289,2.9026,2.9641,2.9792,2.9616,2.8938,2.8436,2.7921,2.7268,2.546,2.4004,2.4004,0.0,0.0,0.0,0.0,0.0,0.0,0.0,0.0,0.0,0.0,0.0,0.0,0.0,0.0,0.0,0.0,0.0,0.0,0.0,0.0,0.0,0.0,0.0,0.0,0.0,1.8204,1.8229,1.9899,2.0691,2.0742,2.2385,2.3108,2.3108,2.3108,2.3108,2.3108,2.3108,2.3108,2.3108,2.3271,2.3343,2.3373,2.3641,2.3923,2.4102,0.0,0.0,0.0,0.0,0.0,0.0,0.0,2.5215,0.0,2.764,2.7718,2.7988,2.8828,2.8545,2.8467,2.8887,2.8535,2.8291,2.8291,2.8105,2.7695,2.7041,2.6406,0.0,2.4443,2.4004,2.3369,2.251,2.0381,1.8662,1.7353,1.5928,0.0,0.0,0.0,1.4859,0.0,0.0,0.0,2.0204,2.1568,2.2854,2.4101,2.5143,2.6071,2.6816,2.747,2.7874,2.8039,2.7846,2.7999,2.8276,2.8444,2.8548,2.8724,2.9213,2.9189,2.9101,2.9641,2.9591,2.9453,2.9729,2.9792,2.9641,2.9026,2.8687,2.8373,2.7821,2.664,2.5624,2.5368,2.3916,0.0,0.0,0.0,0.0,0.0,0.0,0.0,0.0,0.0,0.0,0.0,0.0,0.0,0.0,0.0,0.0,0.0,0.0,0.0,0.0,0.0,0.0,0.0,0.0,0.0,1.8229,1.9899,2.0691,2.0742,2.2385,2.3108,2.3108,2.3108,2.3108,2.3108,2.3108,2.3108,2.3108,2.333,2.3433,2.3539,2.3894,2.4232,2.4536,0.0,1.813,0.0,0.0,2.0898,0.0,2.4482,2.6465,2.7855,2.7855,2.7855,2.8086,2.8838,2.8545,2.8467,2.8887,2.8535,2.8291,2.8291,2.8203,2.7822,2.7051,2.6611,2.5771,2.4443,2.4092,2.3506,0.0,2.129,1.9597,0.0,1.7559,0.0,0.0,0.0,0.0,0.0,0.0,2.0226,2.2619,2.3108,2.4322,2.5904,2.6321,2.6981,2.7765,2.8207,2.8736,2.917,2.9052,2.9,2.9091,2.9392,2.947,2.9521,2.974,2.9792,2.9792,2.9792,2.9792,2.9792,2.9792,2.9792,2.9679,2.9214,2.8976,2.8762,2.8373,2.7745,2.7153,2.66,2.5431,0.0,0.0,0.0,0.0,0.0,0.0,0.0,0.0,0.0,0.0,0.0,0.0,0.0,0.0,0.0,1.3198,1.3198,1.3198,0.0,0.0,0.0,1.6509,1.8191,0.0,1.8204,0.0,1.9899,2.0691,2.0742,2.2385,2.3108,2.3108,2.3108,2.3138,2.3168,2.3168,2.3198,2.3288,2.3509,2.3717,2.391,2.4305,2.4708,2.5103,0.0,0.0,0.0,0.0,0.0,0.0,0.0,2.7109,2.8232,2.8232,2.8232,2.8408,2.8867,2.8545,2.8467,2.8887,2.8535,2.8291,2.8291,2.7939,2.751,2.7041,2.6611,2.5771,2.4443,2.4375,2.3935,0.0,0.0,1.9863,0.0,0.0,0.0,0.0,0.0,0.0,0.0,2.1446,2.2668,2.3578,2.4998,2.6187,2.7062,2.7307,2.7805,2.8471,2.8855,2.9157,2.9431,2.9611,2.9714,2.9702,2.9753,2.9753,2.9753,2.9792,2.9792,2.9792,2.9792,2.9792,2.9792,2.9792,2.9792,2.9779,2.9729,2.9302,2.8875,2.8825,2.8009,2.7153,2.66,2.6361,2.621,0.0,0.0,0.0,0.0,0.0,0.0,0.0,0.0,0.0,0.0,0.0,0.0,0.0,0.0,1.3198,1.3198,1.3198,1.3967,1.5643,0.0,1.6509,1.8191,1.8204,0.0,1.8229,1.9899,2.0691,2.0742,2.2385,2.3108,2.3108,2.3108,2.3198,2.3373,2.3373,2.3552,2.3848,2.4102,2.4421,2.475,2.5328,2.5729,2.6114,0.0,0.0,0.0,0.0,0.0,0.0,0.0,2.7695,2.8291,2.8291,2.8291,2.8359,2.8525,2.8398,2.8359,2.8525,2.8389,2.8291,2.8291,2.79,2.7471,2.7031,2.6611,2.5771,2.4443,2.4414,2.3949,0.0,0.0,0.0,0.0,0.0,0.0,0.0,0.0,2.0175,2.1628,2.259,2.4006,2.5648,2.6526,2.7307,2.8007,2.8195,2.8605,2.9079,2.9236,2.9443,2.965,2.9753,2.9792,2.9792,2.9792,2.9792,2.9792,2.9792,2.9792,2.9792,2.9792,2.9792,2.9792,2.9792,2.9792,2.9792,2.9792,2.9616,2.9453,2.9453,2.8549,2.7607,2.709,2.6713,2.6172,0.0,0.0,0.0,0.0,0.0,0.0,0.0,0.0,0.0,0.0,0.0,0.0,0.0,0.0,0.0,1.3198,1.3198,1.3498,1.4181,0.0,1.5485,1.8179,1.8204,1.9196,2.1139,2.1832,2.2146,2.2171,2.2807,2.3108,2.3108,2.3108,2.3198,2.3403,2.348,2.394,2.4596,2.4983,2.5563,2.6239,2.6861,2.7272,2.7637,2.4473,0.0,2.5371,0.0,2.5996,2.6797,2.7705,2.8105,2.8291,2.8291,2.8291,2.8291,2.8291,2.8291,2.8291,2.8291,2.8291,2.8242,2.8115,2.7715,2.7285,2.6846,2.6426,0.0,2.4629,2.4482,2.4062,2.333,2.3159,0.0,0.0,0.0,0.0,0.0,2.0807,2.2015,2.3522,2.4176,2.5553,2.7307,2.7713,2.8247,2.8776,2.8922,2.9197,2.9509,2.9509,2.965,2.9792,2.9792,2.9792,2.9792,2.9792,2.9792,2.9792,2.9792,2.9792,2.9792,2.9792,2.9792,2.9792,2.9792,2.9792,2.9792,2.9792,2.9792,2.9741,2.9578,2.8775,2.7946,2.7381,2.6864,2.6109,2.4921,0.0,0.0,0.0,0.0,0.0,0.0,0.0,1.8304,0.0,0.0,0.0,0.0,0.0,0.0,1.3198,1.3198,0.0,0.0,0.0,0.0,0.0,1.8204,1.9923,2.2869,2.3358,2.3597,2.3597,2.3658,2.3689,2.3676,2.3799,2.3951,2.4219,2.4386,2.4998,2.5791,2.6222,2.6863,2.7618,2.8126,2.8524,2.8836,2.6973,2.7324,2.7679,2.7679,2.7978,2.8271,2.8281,2.8291,2.8291,2.8291,2.8291,2.8291,2.8291,2.8291,2.8291,2.8291,2.8291,2.8115,2.7748,2.7266,2.6836,0.0,0.0,2.5527,2.5116,2.4639,2.4209,2.3779,0.0,0.0,2.1161,0.0,2.2246,2.3487,2.4425,2.5073,2.5547,2.6659,2.7539,2.8219,2.8605,2.9028,2.938,2.938,2.956,2.9792,2.9792,2.9792,2.9792,2.9792,2.9792,2.9792,2.9792,2.9792,2.9792,2.9792,2.9792,2.9792,2.9792,2.9792,2.9792,2.9792,2.9792,2.9792,2.9792,2.9792,2.9628,2.9013,2.8499,2.7946,2.7381,2.6864,2.6487,2.6461,0.0,0.0,0.0,0.0,0.0,0.0,2.1606,2.0112,1.4658,0.0,0.0,0.0,0.0,0.0,0.0,0.0,0.0,1.3198,1.3198,0.0,1.65,1.8168,2.0111,2.2347,2.3973,2.4775,2.4808,2.4975,2.5071,2.509,2.5427,2.5772,2.6096,2.6434,2.6966,2.7603,2.7852,2.8268,2.8721,2.8987,2.9222,2.9491,2.7461,2.7803,2.8096,2.8096,2.8203,2.8291,2.8291,2.8291,2.8291,2.8291,2.8291,2.8291,2.8291,2.8291,2.8291,0.0,2.8291,2.8115,0.0,2.7256,2.6826,2.6406,2.5967,2.5527,2.5125,2.4639,2.4209,2.3789,0.0,0.0,0.0,2.2057,2.244,2.3174,2.465,2.5611,2.6238,2.7203,2.7983,2.8645,2.9067,2.9392,2.965,2.965,2.974,2.9792,2.9792,2.9792,2.9792,2.9792,2.9792,2.9792,2.9792,2.9792,2.9792,2.9792,2.9792,2.9792,2.9792,2.9792,2.9792,2.9792,2.9792,2.9792,2.9792,2.9792,2.9741,2.9553,2.9063,2.8461,2.7946,2.7394,2.6939,2.6549,2.6499,0.0,0.0,0.0,0.0,0.0,2.0654,1.9472,0.0,1.7476,0.0,0.0,0.0,0.0,0.0,0.0,0.0,0.0,1.3803,0.0,1.7087,1.8731,2.0476,2.2334,2.3985,2.4788,2.482,2.5,2.5148,2.5262,2.5654,2.6047,2.6478,2.6799,2.7587,2.859,2.8855,2.945,3.0163,3.0482,3.0625,3.0755,2.7953,2.8115,2.8291,2.8291,2.8291,2.8291,2.8291,2.8291,2.8291,2.8291,2.8291,2.8291,2.8291,2.8291,0.0,2.8291,2.8291,2.8047,2.7461,2.7168,2.6758,2.6172,2.584,2.5605,2.5322,0.0,0.0,2.4169,2.3957,2.3662,2.3287,2.3519,2.3801,2.4084,2.5582,2.6517,2.7051,2.7943,2.8581,2.9067,2.9392,2.965,2.9792,2.9792,2.9792,2.9792,2.9792,2.9792,2.9792,2.9792,2.9792,2.9792,2.9792,2.9792,2.9792,2.9792,2.9792,2.9792,2.9792,2.9792,2.9792,2.9792,2.9792,2.9792,2.9792,2.9792,2.9792,2.9792,2.934,2.8787,2.8473,2.7795,2.7203,2.6851,2.6625,2.6499,2.6499,0.0,0.0,0.0,0.0,0.0,0.0,1.8869,0.0,0.0,0.0,0.0,0.0,0.0,0.0,1.6191,1.6229,0.0,1.863,2.0238,2.1694,2.2962,2.4696,2.56,2.5764,2.6,2.6213,2.647,2.6947,2.7403,2.7834,2.8258,2.8933,2.9781,3.0031,3.0485,3.1087,3.1292,3.138,3.138,2.8291,2.8291,0.0,0.0,2.8291,0.0,2.8291,2.8291,2.8291,2.8291,2.8291,2.8291,2.8291,2.8291,2.8291,2.8291,0.0,0.0,0.0,2.7012,2.6631,2.5723,2.5693,2.5693,2.5693,2.5589,2.5322,2.489,2.4702,2.4786,2.5073,2.5684,2.6019,2.6102,2.7103,2.7661,2.7919,2.8752,2.9236,2.9419,2.9689,2.9792,2.9792,2.9792,2.9792,2.9792,2.9792,2.9792,2.9792,2.9792,2.9792,2.9792,2.9792,2.9792,2.9792,2.9792,2.9792,2.9792,2.9792,2.9792,2.9792,2.9792,2.9792,2.9792,2.9792,2.9792,2.9792,2.9792,2.9365,2.8938,2.89,2.8059,2.7318,2.7329,2.6851,2.6499,2.6499,0.0,0.0,0.0,0.0,0.0,0.0,2.0088,2.0844,0.0,0.0,0.0,0.0,0.0,1.7911,1.9798,1.9861,2.0137,2.0742,2.2372,2.3496,2.4224,2.5911,2.693,2.7335,2.7689,2.8039,2.8384,2.9044,2.9529,2.987,3.0417,3.0777,3.1029,3.1219,3.138,3.1511,3.1511,3.1511,3.1511,0.0,0.0,2.8291,2.8291,2.8291,2.8291,2.8291,2.8291,2.8291,2.8291,2.8291,2.8291,2.8291,2.8291,2.8291,2.8291,2.8291,2.793,2.707,2.7012,2.6631,2.5723,2.5693,2.5693,2.5693,2.5589,2.5542,2.5633,2.573,2.6074,2.664,2.6816,2.7185,2.7672,2.8099,2.8367,2.8593,2.9106,2.9341,2.9419,2.9689,2.9792,2.9792,2.9792,2.9792,2.9792,2.9792,2.9792,2.9792,2.9792,2.9792,2.9792,2.9792,2.9792,2.9792,2.9792,2.9792,2.9792,2.9792,2.9792,2.9792,2.9792,2.9792,2.9792,2.9792,2.9792,2.9792,2.9792,2.9679,2.9453,2.8963,2.8373,2.777,2.7392,2.6851,2.6499,2.6499,2.5079,0.0,0.0,2.3401,2.3201,2.2686,2.3851,2.4614,0.0,0.0,0.0,0.0,2.3275,2.1791,2.0542,2.049,2.0754,2.132,2.2962,2.4557,2.6076,2.6659,2.7108,2.7469,2.7973,2.8352,2.8739,2.9404,2.987,3.0221,3.0598,3.094,3.1219,3.1278,3.138,3.1511,3.1511,3.1511,3.1511,2.8291,2.8291,2.8291,2.8291,2.8291,2.8291,2.8291,2.8291,2.8291,2.8291,2.8291,2.8291,2.8291,2.8291,2.8291,2.8291,2.8291,2.793,2.707,2.7012,2.6631,2.5723,2.5693,2.5693,2.5693,2.5882,2.6156,2.6474,2.68,2.7166,2.7499,2.7782,2.8115,2.8486,2.8764,2.8961,2.9106,2.9443,2.956,2.9599,2.974,2.9792,2.9792,2.9792,2.9792,2.9792,2.9792,2.9792,2.9792,2.9792,2.9792,2.9792,2.9792,2.9792,2.9792,2.9792,2.9792,2.9792,2.9792,2.9792,2.9792,2.9792,2.9792,2.9792,2.9792,2.9792,2.9792,2.9792,2.9792,2.9691,2.9377,2.8863,2.8298,2.7745,2.7228,2.6788,2.6524,2.5079,0.0,2.4091,2.4331,2.4526,2.4621,2.6192,2.7067,2.6845,0.0,0.0,2.6869,2.6246,2.521,2.3838,2.3812,2.3966,2.4243,2.5134,2.6187,2.731,2.751,2.7861,2.8352,2.8771,2.9202,2.9654,3.0146,3.0509,3.0777,3.1029,3.1234,3.138,3.138,3.1438,3.1511,3.1511,3.1511,3.1511,2.8291,2.8291,2.8291,2.8291,2.8291,2.8291,2.8291,2.8291,2.8291,2.8291,2.8291,2.8291,2.8291,2.8291,2.8291,2.8291,2.8291,2.793,2.707,2.7012,2.6631,2.5723,2.5693,2.5742,2.5781,2.64,2.6926,2.7371,2.7881,2.808,2.8011,2.8633,2.891,2.8961,2.9314,2.947,2.947,2.9702,2.9792,2.9792,2.9792,2.9792,2.9792,2.9792,2.9792,2.9792,2.9792,2.9792,2.9792,2.9792,2.9792,2.9792,2.9792,2.9792,2.9792,2.9792,2.9792,2.9792,2.9792,2.9792,2.9792,2.9792,2.9792,2.9792,2.9792,2.9792,2.9792,2.9792,2.9792,2.9792,2.9792,2.9315,2.8712,2.8197,2.7467,2.6839,2.6571,0.0,2.4349,2.4766,2.5333,2.5787,2.5994,2.7769,2.8699,2.8291,2.8413,2.8397,0.0,2.8239,2.8272,2.8119,2.7874,2.7734,2.7734,2.7734,2.7835,2.8072,2.8287,2.8739,2.9404,2.9716,3.016,3.0642,3.0911,3.1161,3.1307,3.1438,3.1511,3.1511,3.1511,3.1511,3.1511,3.1511,3.1511,3.1511,2.8291,2.8291,2.8291,2.8291,2.8291,2.8291,2.8291,2.8291,2.8291,2.8291,2.8291,2.8291,2.8291,2.8291,2.8291,2.8291,2.8291,2.793,2.707,2.7012,2.6631,2.5723,2.5693,2.583,2.6052,2.7194,2.7899,2.8137,2.876,2.9035,2.8882,2.9184,2.9443,2.9663,2.9702,2.974,2.974,2.9792,2.9792,2.9792,2.9792,2.9792,2.9792,2.9792,2.9792,2.9792,2.9792,2.9792,2.9792,2.9792,2.9792,2.9792,2.9792,2.9792,2.9792,2.9792,2.9792,2.9792,2.9792,2.9792,2.9792,2.9792,2.9792,2.9792,2.9792,2.9792,2.9792,2.9792,2.9792,2.9792,2.9792,2.9315,2.8712,2.8197,2.6568,2.5651,2.6531,0.0,2.5704,2.7377,2.8049,2.8538,2.8907,2.9411,2.9749,2.9851,3.0283,3.0513,3.0451,3.0738,3.0917,3.0884,2.949,2.8778,2.8778,2.8778,2.8645,2.8417,2.8643,2.9075,2.9716,3.0068,3.0417,3.0791,3.1102,3.1278,3.1307,3.1438,3.1511,3.1511,3.1511,3.1511,3.1511,3.1511,3.1511,3.1511,2.8291,2.8291,2.8291,2.8291,2.8291,2.8291,2.8291,2.8291,2.8291,2.8291,2.8291,2.8291,2.8291,2.8291,2.8291,2.8291,2.8291,2.8027,2.7402,2.7363,2.7024,2.6291,2.6251,2.6436,2.6918,2.8023,2.8706,2.8895,2.9581,2.9772,2.9521,2.9592,2.9702,2.9792,2.9792,2.9792,2.9792,2.9792,2.9792,2.9792,2.9792,2.9792,2.9792,2.9792,2.9792,2.9792,2.9792,2.9792,2.9792,2.9792,2.9792,2.9792,2.9792,2.9792,2.9792,2.9792,2.9792,2.9792,2.9792,2.9792,2.9792,2.9792,2.9792,2.9792,2.9792,2.9792,2.9792,2.9792,2.9792,2.983,2.9934,2.9719,2.9391,2.8933,2.8148,0.0,0.0,2.7742,2.7975,2.9008,2.9777,3.0334,3.0637,3.111,3.1284,3.0971,3.1357,3.1443,3.1124,3.1476,3.1674,3.1772,3.0964,3.0513,3.0513,3.0566,3.0578,3.0544,3.0704,3.1054,3.1524,3.1419,3.1499,3.1708,3.1514,3.1409,3.1409,3.1467,3.1511,3.1511,3.1511,3.1511,3.1511,3.1511,3.1511,3.1511,2.8291,2.8291,2.8291,2.8291,2.8291,2.8291,2.8291,2.8291,2.8291,2.8291,2.8291,2.8291,2.8291,2.8291,2.8291,2.8291,2.8291,2.8154,2.7885,2.7917,2.758,2.6824,2.698,2.7341,2.7961,2.891,2.9534,2.9635,3.0343,3.0501,3.0195,3.0034,2.998,2.998,2.9854,2.9792,2.9792,2.9792,2.9792,2.9792,2.9792,2.9792,2.9792,2.9792,2.9792,2.9792,2.9792,2.9792,2.9792,2.9792,2.988,2.998,2.998,2.998,2.998,2.998,2.9892,2.9792,2.9792,2.9792,2.9792,2.9792,2.9792,2.9792,2.9792,2.9792,2.9792,2.9792,2.9792,2.9869,3.0049,3.0152,3.0037,2.9625,0.0,0.0,0.0,2.9384,2.9703,3.0354,3.1153,3.1789,3.2069,3.2639,3.2758,3.2284,3.2533,3.2492,3.2027,3.2345,3.2575,3.2673,3.2334,3.2131,3.2131,3.2266,3.2375,3.2437,3.2533,3.2754,3.3053,3.2717,3.2616,3.2706,3.2183,3.1959,3.1959,3.1959,3.1959,3.1959,3.1959,3.1959,3.1959,3.1959,3.1959,3.1959,2.8291,2.8291,2.8291,2.8291,2.8291,2.8291,2.8291,2.8291,2.8291,2.8291,2.8291,2.8291,2.8291,2.8291,2.8291,2.8291,2.8291,2.8281,2.8252,2.8465,2.8155,2.7102,2.7835,2.8524,2.8991,2.9966,3.0456,3.0434,3.1089,3.1262,3.1009,3.0688,3.0557,3.0532,3.0018,2.9792,2.9792,2.9792,2.9792,2.9792,2.9792,2.9792,2.9792,2.9792,2.9792,2.9792,2.9792,2.9792,2.9792,2.9792,3.0131,3.0557,3.0557,3.0557,3.0557,3.0557,3.0193,2.9792,2.9792,2.9792,2.9792,2.9792,2.9792,2.9792,2.9792,2.9792,2.9792,2.9792,2.9792,2.9869,3.0049,3.0254,3.0252,2.9822,0.0,0.0,2.9866,2.9454,2.9747,3.1701,3.2472,3.3059,3.3596,3.3673,3.3859,3.4172,3.4375,3.4495,3.4451,3.4603,3.4688,3.4688,3.3655,3.3087,3.3087,3.3285,3.319,3.2769,3.2769,3.2941,3.3268,3.3223,3.3286,3.3425,3.3365,3.335,3.335,3.335,3.335,3.335,3.335,3.335,3.335,3.335,3.335,3.335,2.8291,2.8291,2.8291,2.8291,2.8291,2.8291,2.8291,2.8291,2.8291,2.8291,2.8291,2.8291,2.8291,2.8291,2.8291,2.8291,2.8291,2.8344,2.8514,2.8983,2.9022,2.8479,2.9291,2.9834,3.0023,3.0824,3.1276,3.1436,3.1626,3.1707,3.158,3.1226,3.1097,3.1072,3.0545,3.0306,3.0281,2.9942,2.9792,2.9792,2.9792,2.9792,2.9829,3.0168,3.0306,3.0344,3.067,3.0783,3.0783,3.0783,3.0922,3.1097,3.1097,3.1097,3.1097,3.1097,3.0947,3.0721,3.0394,3.0055,2.9792,2.9792,2.9792,2.9792,2.9792,2.9792,2.983,2.9972,2.9972,3.0126,3.0571,3.0823,3.1007,3.1213,0.0,3.1164,3.1791,3.1956,3.2281,3.3055,3.3696,3.4128,3.4346,3.4433,3.4501,3.4597,3.4716,3.4783,3.4698,3.485,3.4902,3.4902,3.46,3.4449,3.4449,3.4661,3.4641,3.4486,3.4486,3.455,3.4646,3.4244,3.4082,3.4114,3.3664,3.3499,3.3499,3.3499,3.3499,3.3499,3.3499,3.3499,3.3499,3.3499,3.3499,3.3499,2.8291,2.8291,2.8291,2.8291,2.8291,2.8291,2.8291,2.8291,2.8291,2.8291,2.8291,2.8291,2.8291,2.8291,2.8291,2.8291,2.8291,2.8398,2.8684,2.9649,3.0104,2.9916,3.0514,3.0892,3.1026,3.1637,3.2033,3.2208,3.2252,3.2292,3.2279,3.183,3.165,3.1625,3.1097,3.0771,3.0595,3.0218,2.9942,2.9804,2.998,3.0043,3.0105,3.0658,3.0859,3.0909,3.126,3.1386,3.1386,3.1386,3.1499,3.165,3.165,3.165,3.1612,3.1436,3.1386,3.1311,3.0959,3.0583,3.0218,2.988,2.9792,2.9842,3.0018,3.0043,3.0171,3.057,3.0673,3.0906,3.1522,3.173,3.2008,3.2472,3.2828,3.3129,3.3304,3.377,3.4094,3.4147,3.4501,3.4798,3.4865,3.4949,3.4983,3.4964,3.5049,3.5049,3.4964,3.5049,3.5082,3.5082,3.5213,3.5294,3.5294,3.5439,3.5504,3.5504,3.5504,3.5504,3.5489,3.5011,3.4801,3.4771,3.4322,3.4128,3.4128,3.4128,3.4128,3.4128,3.4128,3.4128,3.4128,3.4128,3.4128,3.4128,2.8291,2.8291,2.8291,2.8291,2.8291,2.8291,2.8291,2.8291,2.8291,2.8291,2.8291,2.8291,2.8291,2.8291,2.8291,2.8291,2.8291,2.8408,2.8684,3.0505,3.15,3.1227,3.1261,3.1528,3.1989,3.2438,3.2711,3.2711,3.2982,3.3124,3.3111,3.2491,3.2227,3.219,3.165,3.111,3.062,3.062,3.0306,2.9854,3.0407,3.062,3.067,3.1198,3.1399,3.1399,3.1399,3.1399,3.1399,3.1399,3.1763,3.2227,3.2227,3.2227,3.2114,3.1562,3.1399,3.1399,3.1399,3.1399,3.1135,3.0068,2.9804,2.9942,3.0495,3.062,3.0851,3.1622,3.1966,3.2275,3.2909,3.3013,3.3159,3.3578,3.3712,3.3888,3.4108,3.4462,3.4765,3.4916,3.4902,3.4983,3.5195,3.5228,3.5294,3.5472,3.5504,3.5504,3.5504,3.5504,3.5504,3.5504,3.5504,3.5504,3.5504,3.5504,3.5504,3.5504,3.5504,3.5504,3.5504,3.5504,3.5504,3.5504,3.5504,3.5504,3.5504,3.5504,3.5504,3.5504,3.5504,3.5504,3.5504,3.5504,3.5504,3.5504,2.8291,2.8291,2.8291,2.8291,2.8291,2.8291,2.8291,2.8291,2.8291,2.8291,2.8291,2.8291,2.8291,2.8291,2.8398,2.8568,2.8568,2.9132,3.037,3.1711,3.2483,3.2606,3.2797,3.2779,3.2506,3.2797,3.2982,3.2982,3.3081,3.3124,3.3124,3.2905,3.2817,3.2792,3.2215,3.1876,3.1712,3.1323,3.1072,3.0934,3.1097,3.116,3.1223,3.1763,3.1964,3.2014,3.2428,3.2566,3.2566,3.2566,3.2679,3.2817,3.2817,3.2817,3.278,3.2616,3.2566,3.2478,3.2077,3.2101,3.2019,3.1125,3.0909,3.0999,3.1377,3.1455,3.1654,3.2488,3.2804,3.3222,3.4159,3.4571,3.4939,3.5396,3.5645,3.5811,3.6049,3.6306,3.6477,3.6511,3.6212,3.6045,3.6126,3.5708,3.5439,3.5504,3.5504,3.5504,3.5504,3.5504,3.5504,3.5504,3.5504,3.5504,3.5504,3.5504,3.5504,3.5504,3.5504,3.5504,3.5504,3.5504,3.5504,3.5504,3.5504,3.5504,3.5504,3.5504,3.5504,3.5504,3.5504,3.5504,3.5504,3.5504,3.5504,3.5504,2.8291,2.8291,2.8291,2.8291,2.8291,2.8291,2.8291,2.8291,2.8291,2.8291,2.8291,2.8291,2.8291,2.8398,2.8568,2.8834,2.9396,3.0266,3.1597,3.2666,3.3408,3.3678,3.3774,3.3572,3.2878,3.3025,3.3124,3.3124,3.3124,3.3124,3.3124,3.3124,3.3124,3.3056,3.2717,3.2428,3.219,3.1851,3.1587,3.1411,3.1625,3.1725,3.1775,3.234,3.2554,3.2604,3.2955,3.3124,3.3124,3.3124,3.3124,3.3124,3.3124,3.3124,3.3124,3.3124,3.3124,3.3006,3.2654,3.2723,3.2815,3.2294,3.1918,3.1775,3.2166,3.2299,3.2634,3.3581,3.4059,3.4597,3.5651,3.5943,3.6214,3.6736,3.6852,3.6901,3.7005,3.7193,3.7297,3.7297,3.7022,3.6746,3.6507,3.6133,3.5789,3.5534,3.5504,3.5504,3.5504,3.5504,3.5504,3.5504,3.5504,3.5504,3.5504,3.5504,3.5504,3.5504,3.5504,3.5504,3.5504,3.5504,3.5504,3.5504,3.5504,3.5504,3.5504,3.5504,3.5504,3.5504,3.5504,3.5504,3.5504,3.5504,3.5504,3.5504,2.8291,2.8291,2.8291,2.8291,2.8291,2.8291,2.8291,2.8291,2.8291,2.8291,2.8291,2.8344,2.8344,2.8621,2.8887,2.9185,3.0515,3.1688,3.251,3.3549,3.422,3.4445,3.441,3.403,3.3244,3.3174,3.3124,3.3124,3.3124,3.3124,3.3124,3.3124,3.3124,3.3124,3.3124,3.278,3.229,3.229,3.2001,3.1587,3.2089,3.229,3.2353,3.288,3.3124,3.3124,3.3124,3.3124,3.3124,3.3124,3.3124,3.3124,3.3124,3.3124,3.3124,3.3124,3.3124,3.3124,3.3124,3.3283,3.3441,3.3441,3.2915,3.2491,3.2952,3.3232,3.3744,3.4926,3.5535,3.6191,3.725,3.7238,3.7258,3.7689,3.7547,3.7407,3.7407,3.7495,3.7584,3.7584,3.7539,3.727,3.6716,3.6611,3.6327,3.5729,3.5669,3.5669,3.5669,3.5624,3.5594,3.5594,3.5534,3.5504,3.5504,3.5504,3.5504,3.5504,3.5504,3.5504,3.5504,3.5504,3.5504,3.5504,3.5504,3.5504,3.5504,3.5504,3.5504,3.5504,3.5504,3.5504,3.5504,3.5504,3.5504,3.5504,2.8291,2.8291,2.8291,2.8291,2.8291,2.8291,2.8291,2.8291,2.8291,2.8291,2.8461,2.8621,2.8621,2.9089,2.9606,3.0078,3.1739,3.3001,3.3598,3.4653,3.5171,3.5034,3.5164,3.4961,3.4387,3.352,3.3124,3.3124,3.3124,3.3124,3.3124,3.3124,3.3124,3.3124,3.3124,3.3048,3.288,3.288,3.2817,3.2717,3.2842,3.288,3.2905,3.3074,3.3124,3.3124,3.3124,3.3124,3.3124,3.3124,3.3124,3.3124,3.3124,3.3124,3.3124,3.3124,3.3124,3.3124,3.3124,3.3356,3.3683,3.3907,3.4214,3.4441,3.4341,3.4614,3.5224,3.6348,3.6925,3.7453,3.83,3.8569,3.87,3.8984,3.8973,3.8919,3.8919,3.8955,3.899,3.899,3.8497,3.8123,3.7988,3.7509,3.715,3.7,3.7,3.7,3.7,3.6537,3.6267,3.6267,3.5774,3.5504,3.5504,3.5504,3.5504,3.5504,3.5504,3.5504,3.5504,3.5504,3.5504,3.5504,3.5504,3.5504,3.5504,3.5504,3.5504,3.5504,3.5504,3.5504,3.5504,3.5504,3.5504,3.5504,2.8291,2.8291,2.8291,2.8291,2.8291,2.8291,2.8291,2.8291,2.8291,2.8291,2.8514,2.8727,2.8887,2.9659,3.063,3.1841,3.3062,3.4017,3.4556,3.5368,3.5736,3.5605,3.5506,3.537,3.5069,3.4299,3.3734,3.347,3.3206,3.3124,3.3124,3.3124,3.3124,3.3124,3.3124,3.3124,3.3124,3.3124,3.3124,3.3124,3.3124,3.3124,3.3124,3.3124,3.3124,3.3124,3.3124,3.3124,3.3124,3.3124,3.3124,3.3124,3.3124,3.3124,3.3124,3.3124,3.3154,3.324,3.324,3.3845,3.4549,3.4816,3.5656,3.6222,3.5356,3.5535,3.6097,3.7081,3.7544,3.8,3.8797,3.9017,3.9177,3.9373,3.9388,3.9388,3.9388,3.9388,3.9388,3.9388,3.9095,3.8751,3.8422,3.7793,3.7404,3.7404,3.7404,3.7404,3.7404,3.7105,3.6926,3.6926,3.6312,3.5968,3.5968,3.5669,3.5504,3.5504,3.5504,3.5504,3.5504,3.5504,3.5504,3.5504,3.5504,3.5504,3.5504,3.5504,3.5504,3.5504,3.5504,3.5504,3.5504,3.5504,3.5554,3.5604,2.8291,2.8291,2.8291,2.8291,2.8291,2.8291,2.8291,2.8291,2.8291,2.8291,2.8611,2.893,2.9237,3.0422,3.1891,3.3648,3.4323,3.4823,3.532,3.5812,3.6051,3.6051,3.579,3.5633,3.5633,3.5107,3.4587,3.4035,3.3583,3.3357,3.3357,3.3357,3.3357,3.3357,3.3357,3.3357,3.3357,3.3257,3.3262,3.3206,3.3162,3.3124,3.3124,3.3124,3.3124,3.3124,3.3124,3.3124,3.3093,3.3224,3.3262,3.3232,3.3332,3.3294,3.3262,3.3262,3.3379,3.3538,3.3623,3.4534,3.5575,3.5915,3.7008,3.7717,3.6646,3.6597,3.6973,3.7801,3.8121,3.8498,3.9194,3.9304,3.9392,3.9538,3.9448,3.9388,3.9388,3.9388,3.9388,3.9388,3.9388,3.9185,3.8616,3.8078,3.7749,3.7749,3.7749,3.7749,3.7749,3.7644,3.7584,3.7584,3.6971,3.6641,3.6641,3.6103,3.5833,3.5833,3.5833,3.5714,3.5504,3.5504,3.5504,3.5504,3.5504,3.5504,3.5504,3.5504,3.5504,3.5504,3.5504,3.5504,3.5504,3.5504,3.5572,3.5688,2.8291,2.8291,2.8291,2.8291,2.8291,2.8291,2.8291,2.8291,2.8291,2.8291,2.8983,2.9606,2.9848,3.1677,3.335,3.4519,3.5126,3.5572,3.5872,3.6181,3.637,3.637,3.6295,3.6304,3.6304,3.5717,3.5119,3.4613,3.4537,3.45,3.45,3.45,3.45,3.45,3.45,3.45,3.4462,3.3985,3.3784,3.3746,3.3269,3.3124,3.3124,3.3124,3.3124,3.3124,3.3124,3.3124,3.3156,3.3633,3.3784,3.3872,3.4349,3.4173,3.3784,3.3784,3.3972,3.4234,3.44,3.5388,3.6482,3.7126,3.7826,3.8558,3.9105,3.886,3.8736,3.9349,3.9652,3.9914,4.0188,4.0225,4.0225,4.0262,3.9783,3.9388,3.9388,3.9388,3.9388,3.9388,3.9388,3.9343,3.9254,3.92,3.9155,3.9155,3.9155,3.9155,3.9155,3.8586,3.8257,3.8257,3.7629,3.7285,3.7285,3.7195,3.715,3.715,3.715,3.6582,3.5504,3.5504,3.5504,3.5504,3.5504,3.5504,3.5504,3.5504,3.5504,3.5504,3.5504,3.5504,3.5504,3.5504,3.5572,3.572,2.8291,2.8291,2.8291,2.8291,2.8291,2.8291,2.8291,2.8291,2.8344,2.8514,2.9142,2.9858,3.0567,3.26,3.4323,3.5368,3.5668,3.5955,3.6181,3.6323,3.6405,3.6405,3.6405,3.6405,3.6405,3.6119,3.5881,3.5642,3.5027,3.468,3.468,3.468,3.468,3.468,3.468,3.468,3.4655,3.4462,3.4361,3.4336,3.4098,3.3997,3.3997,3.3997,3.3809,3.3495,3.3224,3.3269,3.3571,3.3822,3.411,3.4399,3.4785,3.4742,3.4629,3.4882,3.5234,3.5626,3.5946,3.7045,3.8261,3.8825,3.9716,4.0619,4.1284,4.1002,4.0602,4.0533,4.0626,4.0725,4.0913,4.095,4.095,4.095,4.0397,3.9963,3.9963,3.9649,3.9388,3.9388,3.9388,3.9388,3.9388,3.9388,3.9388,3.9388,3.9388,3.9388,3.9388,3.9125,3.896,3.896,3.8317,3.7958,3.7958,3.7599,3.7404,3.7404,3.7404,3.712,3.6567,3.6567,3.6387,3.6058,3.6058,3.5848,3.5504,3.5504,3.5504,3.5504,3.5504,3.5504,3.5504,3.5504,3.5701,3.6022]}]]